<?xml version="1.0" encoding="UTF-8" standalone="no" ?>
<gpx xmlns="http://www.topografix.com/GPX/1/1" xmlns:xsi="http://www.w3.org/2001/XMLSchema-instance" xsi:schemaLocation="http://www.topografix.com/GPX/1/1 http://www.topografix.com/GPX/1/1/gpx.xsd" version="1.1" creator="VisuGPX - https://www.visugpx.com">
  <metadata>
    <name>Tour de l\'Oisans, j1, Huez - Besse-en-Oisans</name>
    <desc><![CDATA[Tour de l\'Oisans, j1, Huez - Besse-en-Oisans ; une organisation de [url=http://benb.eu.org]Bassée en Balade[/url].]]></desc>
  </metadata>
  <trk>
    <name><![CDATA[JUIL-14-13 16:08:19]]></name>
    <trkseg>
      <trkpt lat="45.08115" lon="6.05961">
        <ele>1456.05</ele>
        <time>2013-07-14T06:55:10Z</time>
      </trkpt>
      <trkpt lat="45.08115" lon="6.05961">
        <ele>1457.5</ele>
        <time>2013-07-14T06:55:14Z</time>
      </trkpt>
      <trkpt lat="45.08115" lon="6.05961">
        <ele>1460.86</ele>
        <time>2013-07-14T06:55:32Z</time>
      </trkpt>
      <trkpt lat="45.08115" lon="6.05961">
        <ele>1458.94</ele>
        <time>2013-07-14T06:55:35Z</time>
      </trkpt>
      <trkpt lat="45.0812" lon="6.0597">
        <ele>1460.38</ele>
        <time>2013-07-14T06:56:22Z</time>
      </trkpt>
      <trkpt lat="45.08119" lon="6.05968">
        <ele>1459.9</ele>
        <time>2013-07-14T06:57:03Z</time>
      </trkpt>
      <trkpt lat="45.08119" lon="6.0596">
        <ele>1459.9</ele>
        <time>2013-07-14T06:57:50Z</time>
      </trkpt>
      <trkpt lat="45.08117" lon="6.05954">
        <ele>1459.42</ele>
        <time>2013-07-14T06:57:58Z</time>
      </trkpt>
      <trkpt lat="45.0811" lon="6.05938">
        <ele>1457.98</ele>
        <time>2013-07-14T06:58:13Z</time>
      </trkpt>
      <trkpt lat="45.08108" lon="6.05932">
        <ele>1457.5</ele>
        <time>2013-07-14T06:58:17Z</time>
      </trkpt>
      <trkpt lat="45.08106" lon="6.05921">
        <ele>1457.02</ele>
        <time>2013-07-14T06:58:34Z</time>
      </trkpt>
      <trkpt lat="45.08097" lon="6.05906">
        <ele>1455.57</ele>
        <time>2013-07-14T06:58:47Z</time>
      </trkpt>
      <trkpt lat="45.08095" lon="6.059">
        <ele>1454.61</ele>
        <time>2013-07-14T06:58:51Z</time>
      </trkpt>
      <trkpt lat="45.08092" lon="6.05892">
        <ele>1454.13</ele>
        <time>2013-07-14T06:58:56Z</time>
      </trkpt>
      <trkpt lat="45.0809" lon="6.05891">
        <ele>1452.21</ele>
        <time>2013-07-14T06:59:13Z</time>
      </trkpt>
      <trkpt lat="45.08091" lon="6.05896">
        <ele>1451.73</ele>
        <time>2013-07-14T06:59:16Z</time>
      </trkpt>
      <trkpt lat="45.08095" lon="6.05907">
        <ele>1449.81</ele>
        <time>2013-07-14T06:59:29Z</time>
      </trkpt>
      <trkpt lat="45.08098" lon="6.05922">
        <ele>1449.81</ele>
        <time>2013-07-14T06:59:42Z</time>
      </trkpt>
      <trkpt lat="45.08103" lon="6.05943">
        <ele>1449.81</ele>
        <time>2013-07-14T06:59:59Z</time>
      </trkpt>
      <trkpt lat="45.08109" lon="6.05969">
        <ele>1448.84</ele>
        <time>2013-07-14T07:00:16Z</time>
      </trkpt>
      <trkpt lat="45.08109" lon="6.05974">
        <ele>1448.84</ele>
        <time>2013-07-14T07:00:19Z</time>
      </trkpt>
      <trkpt lat="45.08113" lon="6.05999">
        <ele>1448.84</ele>
        <time>2013-07-14T07:00:35Z</time>
      </trkpt>
      <trkpt lat="45.08113" lon="6.06001">
        <ele>1449.32</ele>
        <time>2013-07-14T07:00:36Z</time>
      </trkpt>
      <trkpt lat="45.08114" lon="6.06007">
        <ele>1448.84</ele>
        <time>2013-07-14T07:00:40Z</time>
      </trkpt>
      <trkpt lat="45.08115" lon="6.06032">
        <ele>1449.32</ele>
        <time>2013-07-14T07:00:55Z</time>
      </trkpt>
      <trkpt lat="45.08117" lon="6.06039">
        <ele>1449.81</ele>
        <time>2013-07-14T07:01:00Z</time>
      </trkpt>
      <trkpt lat="45.08119" lon="6.06045">
        <ele>1449.81</ele>
        <time>2013-07-14T07:01:05Z</time>
      </trkpt>
      <trkpt lat="45.08126" lon="6.06062">
        <ele>1450.29</ele>
        <time>2013-07-14T07:01:17Z</time>
      </trkpt>
      <trkpt lat="45.08128" lon="6.06067">
        <ele>1450.29</ele>
        <time>2013-07-14T07:01:20Z</time>
      </trkpt>
      <trkpt lat="45.08134" lon="6.06082">
        <ele>1450.29</ele>
        <time>2013-07-14T07:01:31Z</time>
      </trkpt>
      <trkpt lat="45.08138" lon="6.06087">
        <ele>1450.77</ele>
        <time>2013-07-14T07:01:35Z</time>
      </trkpt>
      <trkpt lat="45.08146" lon="6.06104">
        <ele>1450.29</ele>
        <time>2013-07-14T07:01:47Z</time>
      </trkpt>
      <trkpt lat="45.08146" lon="6.0611">
        <ele>1450.29</ele>
        <time>2013-07-14T07:01:51Z</time>
      </trkpt>
      <trkpt lat="45.08152" lon="6.06141">
        <ele>1449.81</ele>
        <time>2013-07-14T07:02:10Z</time>
      </trkpt>
      <trkpt lat="45.08153" lon="6.06142">
        <ele>1449.81</ele>
        <time>2013-07-14T07:02:11Z</time>
      </trkpt>
      <trkpt lat="45.08156" lon="6.06147">
        <ele>1449.81</ele>
        <time>2013-07-14T07:02:16Z</time>
      </trkpt>
      <trkpt lat="45.08157" lon="6.06151">
        <ele>1449.32</ele>
        <time>2013-07-14T07:02:18Z</time>
      </trkpt>
      <trkpt lat="45.08163" lon="6.06168">
        <ele>1449.32</ele>
        <time>2013-07-14T07:02:28Z</time>
      </trkpt>
      <trkpt lat="45.08166" lon="6.06182">
        <ele>1448.84</ele>
        <time>2013-07-14T07:02:36Z</time>
      </trkpt>
      <trkpt lat="45.08169" lon="6.06191">
        <ele>1448.84</ele>
        <time>2013-07-14T07:02:42Z</time>
      </trkpt>
      <trkpt lat="45.08171" lon="6.06193">
        <ele>1449.32</ele>
        <time>2013-07-14T07:02:44Z</time>
      </trkpt>
      <trkpt lat="45.08177" lon="6.06208">
        <ele>1448.36</ele>
        <time>2013-07-14T07:02:54Z</time>
      </trkpt>
      <trkpt lat="45.08178" lon="6.06215">
        <ele>1448.36</ele>
        <time>2013-07-14T07:02:59Z</time>
      </trkpt>
      <trkpt lat="45.0818" lon="6.06222">
        <ele>1448.84</ele>
        <time>2013-07-14T07:03:03Z</time>
      </trkpt>
      <trkpt lat="45.08181" lon="6.06232">
        <ele>1448.36</ele>
        <time>2013-07-14T07:03:08Z</time>
      </trkpt>
      <trkpt lat="45.08182" lon="6.06238">
        <ele>1447.88</ele>
        <time>2013-07-14T07:03:11Z</time>
      </trkpt>
      <trkpt lat="45.08183" lon="6.06246">
        <ele>1447.88</ele>
        <time>2013-07-14T07:03:15Z</time>
      </trkpt>
      <trkpt lat="45.08189" lon="6.06271">
        <ele>1446.44</ele>
        <time>2013-07-14T07:03:29Z</time>
      </trkpt>
      <trkpt lat="45.08192" lon="6.06279">
        <ele>1446.44</ele>
        <time>2013-07-14T07:03:34Z</time>
      </trkpt>
      <trkpt lat="45.08195" lon="6.063">
        <ele>1445.96</ele>
        <time>2013-07-14T07:03:47Z</time>
      </trkpt>
      <trkpt lat="45.0819" lon="6.06325">
        <ele>1444.52</ele>
        <time>2013-07-14T07:04:02Z</time>
      </trkpt>
      <trkpt lat="45.08186" lon="6.06337">
        <ele>1445</ele>
        <time>2013-07-14T07:04:09Z</time>
      </trkpt>
      <trkpt lat="45.08179" lon="6.06356">
        <ele>1444.52</ele>
        <time>2013-07-14T07:04:21Z</time>
      </trkpt>
      <trkpt lat="45.08175" lon="6.06369">
        <ele>1444.52</ele>
        <time>2013-07-14T07:04:30Z</time>
      </trkpt>
      <trkpt lat="45.08176" lon="6.06374">
        <ele>1444.52</ele>
        <time>2013-07-14T07:04:33Z</time>
      </trkpt>
      <trkpt lat="45.08176" lon="6.06381">
        <ele>1444.04</ele>
        <time>2013-07-14T07:04:38Z</time>
      </trkpt>
      <trkpt lat="45.08176" lon="6.06386">
        <ele>1445</ele>
        <time>2013-07-14T07:04:41Z</time>
      </trkpt>
      <trkpt lat="45.08183" lon="6.06405">
        <ele>1444.52</ele>
        <time>2013-07-14T07:04:54Z</time>
      </trkpt>
      <trkpt lat="45.08185" lon="6.06424">
        <ele>1444.04</ele>
        <time>2013-07-14T07:05:04Z</time>
      </trkpt>
      <trkpt lat="45.08188" lon="6.06448">
        <ele>1444.04</ele>
        <time>2013-07-14T07:05:17Z</time>
      </trkpt>
      <trkpt lat="45.08189" lon="6.06466">
        <ele>1442.11</ele>
        <time>2013-07-14T07:05:27Z</time>
      </trkpt>
      <trkpt lat="45.08188" lon="6.06484">
        <ele>1441.63</ele>
        <time>2013-07-14T07:05:37Z</time>
      </trkpt>
      <trkpt lat="45.08188" lon="6.06489">
        <ele>1442.11</ele>
        <time>2013-07-14T07:05:41Z</time>
      </trkpt>
      <trkpt lat="45.08189" lon="6.06525">
        <ele>1441.63</ele>
        <time>2013-07-14T07:06:02Z</time>
      </trkpt>
      <trkpt lat="45.0819" lon="6.06547">
        <ele>1441.63</ele>
        <time>2013-07-14T07:06:15Z</time>
      </trkpt>
      <trkpt lat="45.08189" lon="6.06561">
        <ele>1441.63</ele>
        <time>2013-07-14T07:06:25Z</time>
      </trkpt>
      <trkpt lat="45.08184" lon="6.06586">
        <ele>1441.63</ele>
        <time>2013-07-14T07:06:41Z</time>
      </trkpt>
      <trkpt lat="45.08183" lon="6.06622">
        <ele>1440.67</ele>
        <time>2013-07-14T07:06:59Z</time>
      </trkpt>
      <trkpt lat="45.08185" lon="6.06646">
        <ele>1439.71</ele>
        <time>2013-07-14T07:07:13Z</time>
      </trkpt>
      <trkpt lat="45.08182" lon="6.06674">
        <ele>1437.79</ele>
        <time>2013-07-14T07:07:31Z</time>
      </trkpt>
      <trkpt lat="45.08183" lon="6.06687">
        <ele>1436.83</ele>
        <time>2013-07-14T07:07:38Z</time>
      </trkpt>
      <trkpt lat="45.08181" lon="6.06717">
        <ele>1436.35</ele>
        <time>2013-07-14T07:07:55Z</time>
      </trkpt>
      <trkpt lat="45.08176" lon="6.06742">
        <ele>1436.83</ele>
        <time>2013-07-14T07:08:09Z</time>
      </trkpt>
      <trkpt lat="45.08168" lon="6.06769">
        <ele>1438.27</ele>
        <time>2013-07-14T07:08:27Z</time>
      </trkpt>
      <trkpt lat="45.08164" lon="6.06792">
        <ele>1437.79</ele>
        <time>2013-07-14T07:08:40Z</time>
      </trkpt>
      <trkpt lat="45.08164" lon="6.06802">
        <ele>1437.79</ele>
        <time>2013-07-14T07:08:45Z</time>
      </trkpt>
      <trkpt lat="45.08164" lon="6.06829">
        <ele>1437.31</ele>
        <time>2013-07-14T07:09:01Z</time>
      </trkpt>
      <trkpt lat="45.08168" lon="6.06847">
        <ele>1437.79</ele>
        <time>2013-07-14T07:09:10Z</time>
      </trkpt>
      <trkpt lat="45.08166" lon="6.06856">
        <ele>1438.27</ele>
        <time>2013-07-14T07:09:14Z</time>
      </trkpt>
      <trkpt lat="45.08163" lon="6.06862">
        <ele>1438.27</ele>
        <time>2013-07-14T07:09:18Z</time>
      </trkpt>
      <trkpt lat="45.08161" lon="6.06893">
        <ele>1438.27</ele>
        <time>2013-07-14T07:09:37Z</time>
      </trkpt>
      <trkpt lat="45.08159" lon="6.0691">
        <ele>1438.27</ele>
        <time>2013-07-14T07:09:46Z</time>
      </trkpt>
      <trkpt lat="45.08154" lon="6.06935">
        <ele>1439.71</ele>
        <time>2013-07-14T07:10:02Z</time>
      </trkpt>
      <trkpt lat="45.08153" lon="6.06939">
        <ele>1439.71</ele>
        <time>2013-07-14T07:10:06Z</time>
      </trkpt>
      <trkpt lat="45.08156" lon="6.06966">
        <ele>1441.63</ele>
        <time>2013-07-14T07:10:23Z</time>
      </trkpt>
      <trkpt lat="45.08155" lon="6.06987">
        <ele>1444.04</ele>
        <time>2013-07-14T07:10:39Z</time>
      </trkpt>
      <trkpt lat="45.08155" lon="6.07018">
        <ele>1445.48</ele>
        <time>2013-07-14T07:11:00Z</time>
      </trkpt>
      <trkpt lat="45.08157" lon="6.07028">
        <ele>1445.48</ele>
        <time>2013-07-14T07:11:04Z</time>
      </trkpt>
      <trkpt lat="45.08153" lon="6.0705">
        <ele>1446.44</ele>
        <time>2013-07-14T07:11:18Z</time>
      </trkpt>
      <trkpt lat="45.08159" lon="6.07069">
        <ele>1447.4</ele>
        <time>2013-07-14T07:11:34Z</time>
      </trkpt>
      <trkpt lat="45.08162" lon="6.07095">
        <ele>1448.84</ele>
        <time>2013-07-14T07:11:52Z</time>
      </trkpt>
      <trkpt lat="45.08168" lon="6.07125">
        <ele>1449.81</ele>
        <time>2013-07-14T07:12:14Z</time>
      </trkpt>
      <trkpt lat="45.0817" lon="6.07152">
        <ele>1452.21</ele>
        <time>2013-07-14T07:12:32Z</time>
      </trkpt>
      <trkpt lat="45.08176" lon="6.07168">
        <ele>1454.61</ele>
        <time>2013-07-14T07:12:48Z</time>
      </trkpt>
      <trkpt lat="45.08188" lon="6.07195">
        <ele>1456.05</ele>
        <time>2013-07-14T07:13:07Z</time>
      </trkpt>
      <trkpt lat="45.08199" lon="6.07215">
        <ele>1457.98</ele>
        <time>2013-07-14T07:13:25Z</time>
      </trkpt>
      <trkpt lat="45.082" lon="6.07229">
        <ele>1459.42</ele>
        <time>2013-07-14T07:13:43Z</time>
      </trkpt>
      <trkpt lat="45.08203" lon="6.07244">
        <ele>1460.38</ele>
        <time>2013-07-14T07:13:57Z</time>
      </trkpt>
      <trkpt lat="45.08206" lon="6.07264">
        <ele>1462.3</ele>
        <time>2013-07-14T07:14:12Z</time>
      </trkpt>
      <trkpt lat="45.0821" lon="6.07283">
        <ele>1463.74</ele>
        <time>2013-07-14T07:14:26Z</time>
      </trkpt>
      <trkpt lat="45.08211" lon="6.07286">
        <ele>1463.74</ele>
        <time>2013-07-14T07:14:28Z</time>
      </trkpt>
      <trkpt lat="45.08209" lon="6.07304">
        <ele>1465.19</ele>
        <time>2013-07-14T07:14:42Z</time>
      </trkpt>
      <trkpt lat="45.08206" lon="6.07317">
        <ele>1466.15</ele>
        <time>2013-07-14T07:14:55Z</time>
      </trkpt>
      <trkpt lat="45.08206" lon="6.0732">
        <ele>1466.15</ele>
        <time>2013-07-14T07:14:57Z</time>
      </trkpt>
      <trkpt lat="45.08205" lon="6.0733">
        <ele>1467.59</ele>
        <time>2013-07-14T07:15:05Z</time>
      </trkpt>
      <trkpt lat="45.08203" lon="6.07338">
        <ele>1467.59</ele>
        <time>2013-07-14T07:15:12Z</time>
      </trkpt>
      <trkpt lat="45.08205" lon="6.07347">
        <ele>1468.55</ele>
        <time>2013-07-14T07:15:19Z</time>
      </trkpt>
      <trkpt lat="45.08209" lon="6.07358">
        <ele>1469.03</ele>
        <time>2013-07-14T07:15:27Z</time>
      </trkpt>
      <trkpt lat="45.08214" lon="6.07372">
        <ele>1470.47</ele>
        <time>2013-07-14T07:15:38Z</time>
      </trkpt>
      <trkpt lat="45.08216" lon="6.07377">
        <ele>1464.23</ele>
        <time>2013-07-14T07:15:42Z</time>
      </trkpt>
      <trkpt lat="45.08216" lon="6.07378">
        <ele>1474.8</ele>
        <time>2013-07-14T07:15:43Z</time>
      </trkpt>
      <trkpt lat="45.08216" lon="6.07382">
        <ele>1471.44</ele>
        <time>2013-07-14T07:15:47Z</time>
      </trkpt>
      <trkpt lat="45.08217" lon="6.07388">
        <ele>1470.47</ele>
        <time>2013-07-14T07:15:52Z</time>
      </trkpt>
      <trkpt lat="45.0822" lon="6.07392">
        <ele>1467.11</ele>
        <time>2013-07-14T07:15:59Z</time>
      </trkpt>
      <trkpt lat="45.0822" lon="6.07392">
        <ele>1467.11</ele>
        <time>2013-07-14T07:16:00Z</time>
      </trkpt>
      <trkpt lat="45.0822" lon="6.07394">
        <ele>1471.92</ele>
        <time>2013-07-14T07:16:01Z</time>
      </trkpt>
      <trkpt lat="45.08221" lon="6.07398">
        <ele>1473.84</ele>
        <time>2013-07-14T07:16:04Z</time>
      </trkpt>
      <trkpt lat="45.08221" lon="6.07402">
        <ele>1471.92</ele>
        <time>2013-07-14T07:16:06Z</time>
      </trkpt>
      <trkpt lat="45.08223" lon="6.07407">
        <ele>1472.88</ele>
        <time>2013-07-14T07:16:09Z</time>
      </trkpt>
      <trkpt lat="45.08223" lon="6.07418">
        <ele>1473.36</ele>
        <time>2013-07-14T07:16:16Z</time>
      </trkpt>
      <trkpt lat="45.08213" lon="6.07435">
        <ele>1475.28</ele>
        <time>2013-07-14T07:16:32Z</time>
      </trkpt>
      <trkpt lat="45.0821" lon="6.07442">
        <ele>1475.28</ele>
        <time>2013-07-14T07:16:49Z</time>
      </trkpt>
      <trkpt lat="45.0821" lon="6.07442">
        <ele>1475.76</ele>
        <time>2013-07-14T07:17:24Z</time>
      </trkpt>
      <trkpt lat="45.08212" lon="6.07445">
        <ele>1476.24</ele>
        <time>2013-07-14T07:17:40Z</time>
      </trkpt>
      <trkpt lat="45.08213" lon="6.07449">
        <ele>1475.76</ele>
        <time>2013-07-14T07:18:10Z</time>
      </trkpt>
      <trkpt lat="45.08213" lon="6.0745">
        <ele>1475.76</ele>
        <time>2013-07-14T07:18:40Z</time>
      </trkpt>
      <trkpt lat="45.08214" lon="6.0745">
        <ele>1475.28</ele>
        <time>2013-07-14T07:19:08Z</time>
      </trkpt>
      <trkpt lat="45.0821" lon="6.07447">
        <ele>1475.76</ele>
        <time>2013-07-14T07:19:29Z</time>
      </trkpt>
      <trkpt lat="45.0821" lon="6.07445">
        <ele>1475.76</ele>
        <time>2013-07-14T07:19:47Z</time>
      </trkpt>
      <trkpt lat="45.0821" lon="6.07444">
        <ele>1475.76</ele>
        <time>2013-07-14T07:20:10Z</time>
      </trkpt>
      <trkpt lat="45.08207" lon="6.07444">
        <ele>1475.76</ele>
        <time>2013-07-14T07:20:58Z</time>
      </trkpt>
      <trkpt lat="45.0821" lon="6.07444">
        <ele>1475.76</ele>
        <time>2013-07-14T07:21:19Z</time>
      </trkpt>
      <trkpt lat="45.08214" lon="6.07444">
        <ele>1475.76</ele>
        <time>2013-07-14T07:21:24Z</time>
      </trkpt>
      <trkpt lat="45.08217" lon="6.07443">
        <ele>1475.76</ele>
        <time>2013-07-14T07:21:39Z</time>
      </trkpt>
      <trkpt lat="45.08216" lon="6.07445">
        <ele>1476.24</ele>
        <time>2013-07-14T07:22:05Z</time>
      </trkpt>
      <trkpt lat="45.08215" lon="6.07449">
        <ele>1476.24</ele>
        <time>2013-07-14T07:22:13Z</time>
      </trkpt>
      <trkpt lat="45.08215" lon="6.07453">
        <ele>1475.76</ele>
        <time>2013-07-14T07:22:16Z</time>
      </trkpt>
      <trkpt lat="45.08215" lon="6.07462">
        <ele>1477.2</ele>
        <time>2013-07-14T07:22:23Z</time>
      </trkpt>
      <trkpt lat="45.08211" lon="6.07476">
        <ele>1479.13</ele>
        <time>2013-07-14T07:22:35Z</time>
      </trkpt>
      <trkpt lat="45.0821" lon="6.07487">
        <ele>1480.09</ele>
        <time>2013-07-14T07:22:44Z</time>
      </trkpt>
      <trkpt lat="45.08209" lon="6.0749">
        <ele>1480.09</ele>
        <time>2013-07-14T07:22:46Z</time>
      </trkpt>
      <trkpt lat="45.08206" lon="6.07512">
        <ele>1481.53</ele>
        <time>2013-07-14T07:23:02Z</time>
      </trkpt>
      <trkpt lat="45.08204" lon="6.07519">
        <ele>1481.53</ele>
        <time>2013-07-14T07:23:07Z</time>
      </trkpt>
      <trkpt lat="45.08199" lon="6.07541">
        <ele>1482.01</ele>
        <time>2013-07-14T07:23:22Z</time>
      </trkpt>
      <trkpt lat="45.08197" lon="6.07564">
        <ele>1482.97</ele>
        <time>2013-07-14T07:23:39Z</time>
      </trkpt>
      <trkpt lat="45.082" lon="6.07578">
        <ele>1484.89</ele>
        <time>2013-07-14T07:23:55Z</time>
      </trkpt>
      <trkpt lat="45.08198" lon="6.07593">
        <ele>1486.34</ele>
        <time>2013-07-14T07:24:06Z</time>
      </trkpt>
      <trkpt lat="45.08198" lon="6.07595">
        <ele>1485.85</ele>
        <time>2013-07-14T07:24:08Z</time>
      </trkpt>
      <trkpt lat="45.08198" lon="6.07606">
        <ele>1486.34</ele>
        <time>2013-07-14T07:24:16Z</time>
      </trkpt>
      <trkpt lat="45.08194" lon="6.07623">
        <ele>1487.78</ele>
        <time>2013-07-14T07:24:29Z</time>
      </trkpt>
      <trkpt lat="45.08187" lon="6.07643">
        <ele>1488.74</ele>
        <time>2013-07-14T07:24:46Z</time>
      </trkpt>
      <trkpt lat="45.08185" lon="6.07662">
        <ele>1490.18</ele>
        <time>2013-07-14T07:25:01Z</time>
      </trkpt>
      <trkpt lat="45.08178" lon="6.07691">
        <ele>1492.1</ele>
        <time>2013-07-14T07:25:20Z</time>
      </trkpt>
      <trkpt lat="45.0818" lon="6.07695">
        <ele>1492.1</ele>
        <time>2013-07-14T07:25:23Z</time>
      </trkpt>
      <trkpt lat="45.08189" lon="6.07717">
        <ele>1494.51</ele>
        <time>2013-07-14T07:25:40Z</time>
      </trkpt>
      <trkpt lat="45.08188" lon="6.0774">
        <ele>1496.43</ele>
        <time>2013-07-14T07:25:56Z</time>
      </trkpt>
      <trkpt lat="45.08189" lon="6.07748">
        <ele>1496.91</ele>
        <time>2013-07-14T07:26:02Z</time>
      </trkpt>
      <trkpt lat="45.0819" lon="6.07751">
        <ele>1496.91</ele>
        <time>2013-07-14T07:26:04Z</time>
      </trkpt>
      <trkpt lat="45.08191" lon="6.07757">
        <ele>1496.91</ele>
        <time>2013-07-14T07:26:08Z</time>
      </trkpt>
      <trkpt lat="45.08191" lon="6.07778">
        <ele>1496.91</ele>
        <time>2013-07-14T07:26:23Z</time>
      </trkpt>
      <trkpt lat="45.08187" lon="6.07794">
        <ele>1497.39</ele>
        <time>2013-07-14T07:26:35Z</time>
      </trkpt>
      <trkpt lat="45.08187" lon="6.07798">
        <ele>1496.91</ele>
        <time>2013-07-14T07:26:37Z</time>
      </trkpt>
      <trkpt lat="45.08189" lon="6.07806">
        <ele>1496.91</ele>
        <time>2013-07-14T07:26:42Z</time>
      </trkpt>
      <trkpt lat="45.08183" lon="6.07833">
        <ele>1497.87</ele>
        <time>2013-07-14T07:27:00Z</time>
      </trkpt>
      <trkpt lat="45.08187" lon="6.07858">
        <ele>1499.31</ele>
        <time>2013-07-14T07:27:18Z</time>
      </trkpt>
      <trkpt lat="45.08186" lon="6.07864">
        <ele>1499.31</ele>
        <time>2013-07-14T07:27:23Z</time>
      </trkpt>
      <trkpt lat="45.08189" lon="6.07889">
        <ele>1500.76</ele>
        <time>2013-07-14T07:27:40Z</time>
      </trkpt>
      <trkpt lat="45.08187" lon="6.079">
        <ele>1504.12</ele>
        <time>2013-07-14T07:27:53Z</time>
      </trkpt>
      <trkpt lat="45.08186" lon="6.07901">
        <ele>1503.64</ele>
        <time>2013-07-14T07:27:54Z</time>
      </trkpt>
      <trkpt lat="45.08184" lon="6.07913">
        <ele>1505.08</ele>
        <time>2013-07-14T07:28:09Z</time>
      </trkpt>
      <trkpt lat="45.08189" lon="6.07935">
        <ele>1507.48</ele>
        <time>2013-07-14T07:28:26Z</time>
      </trkpt>
      <trkpt lat="45.08185" lon="6.07946">
        <ele>1507.97</ele>
        <time>2013-07-14T07:28:37Z</time>
      </trkpt>
      <trkpt lat="45.08179" lon="6.07965">
        <ele>1508.93</ele>
        <time>2013-07-14T07:28:52Z</time>
      </trkpt>
      <trkpt lat="45.08175" lon="6.07976">
        <ele>1510.85</ele>
        <time>2013-07-14T07:29:04Z</time>
      </trkpt>
      <trkpt lat="45.08171" lon="6.07997">
        <ele>1510.85</ele>
        <time>2013-07-14T07:29:20Z</time>
      </trkpt>
      <trkpt lat="45.08164" lon="6.08016">
        <ele>1512.29</ele>
        <time>2013-07-14T07:29:35Z</time>
      </trkpt>
      <trkpt lat="45.08174" lon="6.0804">
        <ele>1512.77</ele>
        <time>2013-07-14T07:29:47Z</time>
      </trkpt>
      <trkpt lat="45.08174" lon="6.08047">
        <ele>1512.77</ele>
        <time>2013-07-14T07:29:51Z</time>
      </trkpt>
      <trkpt lat="45.08167" lon="6.08063">
        <ele>1512.77</ele>
        <time>2013-07-14T07:30:05Z</time>
      </trkpt>
      <trkpt lat="45.08162" lon="6.08087">
        <ele>1513.73</ele>
        <time>2013-07-14T07:30:22Z</time>
      </trkpt>
      <trkpt lat="45.08159" lon="6.08099">
        <ele>1514.69</ele>
        <time>2013-07-14T07:30:32Z</time>
      </trkpt>
      <trkpt lat="45.08158" lon="6.08113">
        <ele>1513.73</ele>
        <time>2013-07-14T07:30:40Z</time>
      </trkpt>
      <trkpt lat="45.08163" lon="6.0814">
        <ele>1515.66</ele>
        <time>2013-07-14T07:30:56Z</time>
      </trkpt>
      <trkpt lat="45.08163" lon="6.08151">
        <ele>1516.62</ele>
        <time>2013-07-14T07:31:04Z</time>
      </trkpt>
      <trkpt lat="45.08158" lon="6.08166">
        <ele>1517.58</ele>
        <time>2013-07-14T07:31:19Z</time>
      </trkpt>
      <trkpt lat="45.08158" lon="6.08182">
        <ele>1517.1</ele>
        <time>2013-07-14T07:31:37Z</time>
      </trkpt>
      <trkpt lat="45.08154" lon="6.08205">
        <ele>1518.06</ele>
        <time>2013-07-14T07:31:49Z</time>
      </trkpt>
      <trkpt lat="45.08149" lon="6.0823">
        <ele>1520.46</ele>
        <time>2013-07-14T07:32:09Z</time>
      </trkpt>
      <trkpt lat="45.08153" lon="6.08249">
        <ele>1521.42</ele>
        <time>2013-07-14T07:32:25Z</time>
      </trkpt>
      <trkpt lat="45.08162" lon="6.08266">
        <ele>1524.79</ele>
        <time>2013-07-14T07:32:38Z</time>
      </trkpt>
      <trkpt lat="45.08163" lon="6.08277">
        <ele>1525.27</ele>
        <time>2013-07-14T07:32:47Z</time>
      </trkpt>
      <trkpt lat="45.08161" lon="6.08297">
        <ele>1526.71</ele>
        <time>2013-07-14T07:33:02Z</time>
      </trkpt>
      <trkpt lat="45.08157" lon="6.08309">
        <ele>1526.23</ele>
        <time>2013-07-14T07:33:09Z</time>
      </trkpt>
      <trkpt lat="45.08155" lon="6.0833">
        <ele>1526.71</ele>
        <time>2013-07-14T07:33:23Z</time>
      </trkpt>
      <trkpt lat="45.08157" lon="6.0834">
        <ele>1527.67</ele>
        <time>2013-07-14T07:33:30Z</time>
      </trkpt>
      <trkpt lat="45.0816" lon="6.08352">
        <ele>1527.67</ele>
        <time>2013-07-14T07:33:39Z</time>
      </trkpt>
      <trkpt lat="45.08161" lon="6.08355">
        <ele>1527.67</ele>
        <time>2013-07-14T07:33:41Z</time>
      </trkpt>
      <trkpt lat="45.08165" lon="6.08367">
        <ele>1528.63</ele>
        <time>2013-07-14T07:33:49Z</time>
      </trkpt>
      <trkpt lat="45.08163" lon="6.08374">
        <ele>1528.63</ele>
        <time>2013-07-14T07:33:54Z</time>
      </trkpt>
      <trkpt lat="45.08165" lon="6.08384">
        <ele>1529.59</ele>
        <time>2013-07-14T07:34:01Z</time>
      </trkpt>
      <trkpt lat="45.08164" lon="6.084">
        <ele>1530.08</ele>
        <time>2013-07-14T07:34:13Z</time>
      </trkpt>
      <trkpt lat="45.08163" lon="6.08407">
        <ele>1531.04</ele>
        <time>2013-07-14T07:34:17Z</time>
      </trkpt>
      <trkpt lat="45.08163" lon="6.0842">
        <ele>1531.04</ele>
        <time>2013-07-14T07:34:31Z</time>
      </trkpt>
      <trkpt lat="45.08163" lon="6.0842">
        <ele>1531.52</ele>
        <time>2013-07-14T07:34:32Z</time>
      </trkpt>
      <trkpt lat="45.08158" lon="6.08426">
        <ele>1531.52</ele>
        <time>2013-07-14T07:34:52Z</time>
      </trkpt>
      <trkpt lat="45.08159" lon="6.08429">
        <ele>1532</ele>
        <time>2013-07-14T07:35:15Z</time>
      </trkpt>
      <trkpt lat="45.08158" lon="6.08435">
        <ele>1532.48</ele>
        <time>2013-07-14T07:35:39Z</time>
      </trkpt>
      <trkpt lat="45.08159" lon="6.08452">
        <ele>1532.96</ele>
        <time>2013-07-14T07:36:10Z</time>
      </trkpt>
      <trkpt lat="45.08163" lon="6.08472">
        <ele>1534.88</ele>
        <time>2013-07-14T07:36:24Z</time>
      </trkpt>
      <trkpt lat="45.08165" lon="6.08475">
        <ele>1534.88</ele>
        <time>2013-07-14T07:36:26Z</time>
      </trkpt>
      <trkpt lat="45.08164" lon="6.08492">
        <ele>1535.36</ele>
        <time>2013-07-14T07:36:37Z</time>
      </trkpt>
      <trkpt lat="45.0816" lon="6.08502">
        <ele>1536.32</ele>
        <time>2013-07-14T07:36:43Z</time>
      </trkpt>
      <trkpt lat="45.08158" lon="6.08516">
        <ele>1536.32</ele>
        <time>2013-07-14T07:36:51Z</time>
      </trkpt>
      <trkpt lat="45.08156" lon="6.08526">
        <ele>1536.8</ele>
        <time>2013-07-14T07:36:57Z</time>
      </trkpt>
      <trkpt lat="45.0815" lon="6.0855">
        <ele>1537.29</ele>
        <time>2013-07-14T07:37:13Z</time>
      </trkpt>
      <trkpt lat="45.08149" lon="6.08552">
        <ele>1537.29</ele>
        <time>2013-07-14T07:37:15Z</time>
      </trkpt>
      <trkpt lat="45.08143" lon="6.08567">
        <ele>1537.77</ele>
        <time>2013-07-14T07:37:26Z</time>
      </trkpt>
      <trkpt lat="45.0814" lon="6.08571">
        <ele>1537.77</ele>
        <time>2013-07-14T07:37:29Z</time>
      </trkpt>
      <trkpt lat="45.08138" lon="6.08594">
        <ele>1537.77</ele>
        <time>2013-07-14T07:37:41Z</time>
      </trkpt>
      <trkpt lat="45.08136" lon="6.08622">
        <ele>1539.69</ele>
        <time>2013-07-14T07:38:00Z</time>
      </trkpt>
      <trkpt lat="45.0813" lon="6.08641">
        <ele>1541.13</ele>
        <time>2013-07-14T07:38:18Z</time>
      </trkpt>
      <trkpt lat="45.08136" lon="6.08673">
        <ele>1543.05</ele>
        <time>2013-07-14T07:38:37Z</time>
      </trkpt>
      <trkpt lat="45.08134" lon="6.08696">
        <ele>1545.94</ele>
        <time>2013-07-14T07:38:55Z</time>
      </trkpt>
      <trkpt lat="45.08129" lon="6.08709">
        <ele>1546.9</ele>
        <time>2013-07-14T07:39:05Z</time>
      </trkpt>
      <trkpt lat="45.08122" lon="6.08731">
        <ele>1548.82</ele>
        <time>2013-07-14T07:39:20Z</time>
      </trkpt>
      <trkpt lat="45.08118" lon="6.08744">
        <ele>1548.82</ele>
        <time>2013-07-14T07:39:29Z</time>
      </trkpt>
      <trkpt lat="45.08117" lon="6.08748">
        <ele>1548.82</ele>
        <time>2013-07-14T07:39:32Z</time>
      </trkpt>
      <trkpt lat="45.08106" lon="6.08768">
        <ele>1549.78</ele>
        <time>2013-07-14T07:39:48Z</time>
      </trkpt>
      <trkpt lat="45.08103" lon="6.0878">
        <ele>1551.22</ele>
        <time>2013-07-14T07:39:57Z</time>
      </trkpt>
      <trkpt lat="45.08098" lon="6.0881">
        <ele>1553.15</ele>
        <time>2013-07-14T07:40:15Z</time>
      </trkpt>
      <trkpt lat="45.08093" lon="6.08827">
        <ele>1555.07</ele>
        <time>2013-07-14T07:40:30Z</time>
      </trkpt>
      <trkpt lat="45.08093" lon="6.08835">
        <ele>1556.03</ele>
        <time>2013-07-14T07:40:38Z</time>
      </trkpt>
      <trkpt lat="45.08094" lon="6.08856">
        <ele>1557.95</ele>
        <time>2013-07-14T07:40:53Z</time>
      </trkpt>
      <trkpt lat="45.08093" lon="6.08868">
        <ele>1558.92</ele>
        <time>2013-07-14T07:41:01Z</time>
      </trkpt>
      <trkpt lat="45.08093" lon="6.08871">
        <ele>1559.4</ele>
        <time>2013-07-14T07:41:03Z</time>
      </trkpt>
      <trkpt lat="45.0809" lon="6.08886">
        <ele>1560.36</ele>
        <time>2013-07-14T07:41:13Z</time>
      </trkpt>
      <trkpt lat="45.08089" lon="6.08892">
        <ele>1560.36</ele>
        <time>2013-07-14T07:41:17Z</time>
      </trkpt>
      <trkpt lat="45.08084" lon="6.08912">
        <ele>1561.8</ele>
        <time>2013-07-14T07:41:31Z</time>
      </trkpt>
      <trkpt lat="45.08085" lon="6.08915">
        <ele>1562.28</ele>
        <time>2013-07-14T07:41:34Z</time>
      </trkpt>
      <trkpt lat="45.08083" lon="6.08933">
        <ele>1562.76</ele>
        <time>2013-07-14T07:41:46Z</time>
      </trkpt>
      <trkpt lat="45.08083" lon="6.08934">
        <ele>1562.76</ele>
        <time>2013-07-14T07:41:47Z</time>
      </trkpt>
      <trkpt lat="45.08083" lon="6.08941">
        <ele>1562.76</ele>
        <time>2013-07-14T07:41:52Z</time>
      </trkpt>
      <trkpt lat="45.08085" lon="6.08945">
        <ele>1563.24</ele>
        <time>2013-07-14T07:41:55Z</time>
      </trkpt>
      <trkpt lat="45.08085" lon="6.0895">
        <ele>1563.72</ele>
        <time>2013-07-14T07:41:58Z</time>
      </trkpt>
      <trkpt lat="45.08083" lon="6.08955">
        <ele>1563.72</ele>
        <time>2013-07-14T07:42:01Z</time>
      </trkpt>
      <trkpt lat="45.08081" lon="6.08962">
        <ele>1563.72</ele>
        <time>2013-07-14T07:42:05Z</time>
      </trkpt>
      <trkpt lat="45.0808" lon="6.08966">
        <ele>1563.72</ele>
        <time>2013-07-14T07:42:08Z</time>
      </trkpt>
      <trkpt lat="45.08079" lon="6.08977">
        <ele>1564.2</ele>
        <time>2013-07-14T07:42:15Z</time>
      </trkpt>
      <trkpt lat="45.08078" lon="6.08982">
        <ele>1563.72</ele>
        <time>2013-07-14T07:42:18Z</time>
      </trkpt>
      <trkpt lat="45.08078" lon="6.08994">
        <ele>1564.2</ele>
        <time>2013-07-14T07:42:27Z</time>
      </trkpt>
      <trkpt lat="45.08081" lon="6.09016">
        <ele>1564.68</ele>
        <time>2013-07-14T07:42:42Z</time>
      </trkpt>
      <trkpt lat="45.0808" lon="6.09039">
        <ele>1564.2</ele>
        <time>2013-07-14T07:42:57Z</time>
      </trkpt>
      <trkpt lat="45.0808" lon="6.09062">
        <ele>1565.64</ele>
        <time>2013-07-14T07:43:14Z</time>
      </trkpt>
      <trkpt lat="45.08082" lon="6.09088">
        <ele>1566.61</ele>
        <time>2013-07-14T07:43:29Z</time>
      </trkpt>
      <trkpt lat="45.08085" lon="6.09112">
        <ele>1567.57</ele>
        <time>2013-07-14T07:43:43Z</time>
      </trkpt>
      <trkpt lat="45.08086" lon="6.09118">
        <ele>1568.05</ele>
        <time>2013-07-14T07:43:47Z</time>
      </trkpt>
      <trkpt lat="45.08088" lon="6.09141">
        <ele>1569.01</ele>
        <time>2013-07-14T07:44:02Z</time>
      </trkpt>
      <trkpt lat="45.08087" lon="6.0915">
        <ele>1569.97</ele>
        <time>2013-07-14T07:44:08Z</time>
      </trkpt>
      <trkpt lat="45.08091" lon="6.09164">
        <ele>1570.45</ele>
        <time>2013-07-14T07:44:16Z</time>
      </trkpt>
      <trkpt lat="45.08088" lon="6.09188">
        <ele>1571.41</ele>
        <time>2013-07-14T07:44:31Z</time>
      </trkpt>
      <trkpt lat="45.0809" lon="6.09196">
        <ele>1571.89</ele>
        <time>2013-07-14T07:44:36Z</time>
      </trkpt>
      <trkpt lat="45.08091" lon="6.09206">
        <ele>1572.37</ele>
        <time>2013-07-14T07:44:42Z</time>
      </trkpt>
      <trkpt lat="45.08091" lon="6.09211">
        <ele>1572.37</ele>
        <time>2013-07-14T07:44:45Z</time>
      </trkpt>
      <trkpt lat="45.08092" lon="6.0923">
        <ele>1573.82</ele>
        <time>2013-07-14T07:44:57Z</time>
      </trkpt>
      <trkpt lat="45.08093" lon="6.09235">
        <ele>1573.33</ele>
        <time>2013-07-14T07:45:00Z</time>
      </trkpt>
      <trkpt lat="45.08097" lon="6.09257">
        <ele>1574.78</ele>
        <time>2013-07-14T07:45:15Z</time>
      </trkpt>
      <trkpt lat="45.08096" lon="6.09276">
        <ele>1575.74</ele>
        <time>2013-07-14T07:45:28Z</time>
      </trkpt>
      <trkpt lat="45.08094" lon="6.09296">
        <ele>1577.66</ele>
        <time>2013-07-14T07:45:42Z</time>
      </trkpt>
      <trkpt lat="45.08095" lon="6.09322">
        <ele>1577.66</ele>
        <time>2013-07-14T07:45:59Z</time>
      </trkpt>
      <trkpt lat="45.08096" lon="6.09326">
        <ele>1578.14</ele>
        <time>2013-07-14T07:46:02Z</time>
      </trkpt>
      <trkpt lat="45.08104" lon="6.09342">
        <ele>1580.06</ele>
        <time>2013-07-14T07:46:17Z</time>
      </trkpt>
      <trkpt lat="45.08112" lon="6.09358">
        <ele>1581.51</ele>
        <time>2013-07-14T07:46:32Z</time>
      </trkpt>
      <trkpt lat="45.08116" lon="6.09369">
        <ele>1582.95</ele>
        <time>2013-07-14T07:46:43Z</time>
      </trkpt>
      <trkpt lat="45.08117" lon="6.09375">
        <ele>1583.43</ele>
        <time>2013-07-14T07:46:49Z</time>
      </trkpt>
      <trkpt lat="45.08118" lon="6.09394">
        <ele>1585.35</ele>
        <time>2013-07-14T07:47:04Z</time>
      </trkpt>
      <trkpt lat="45.0812" lon="6.09413">
        <ele>1586.31</ele>
        <time>2013-07-14T07:47:15Z</time>
      </trkpt>
      <trkpt lat="45.08126" lon="6.09431">
        <ele>1587.75</ele>
        <time>2013-07-14T07:47:29Z</time>
      </trkpt>
      <trkpt lat="45.08128" lon="6.09438">
        <ele>1587.75</ele>
        <time>2013-07-14T07:47:34Z</time>
      </trkpt>
      <trkpt lat="45.08131" lon="6.09442">
        <ele>1588.24</ele>
        <time>2013-07-14T07:47:37Z</time>
      </trkpt>
      <trkpt lat="45.0814" lon="6.09461">
        <ele>1588.24</ele>
        <time>2013-07-14T07:47:50Z</time>
      </trkpt>
      <trkpt lat="45.08146" lon="6.09477">
        <ele>1587.27</ele>
        <time>2013-07-14T07:48:00Z</time>
      </trkpt>
      <trkpt lat="45.08147" lon="6.09502">
        <ele>1586.79</ele>
        <time>2013-07-14T07:48:15Z</time>
      </trkpt>
      <trkpt lat="45.08145" lon="6.09518">
        <ele>1588.24</ele>
        <time>2013-07-14T07:48:30Z</time>
      </trkpt>
      <trkpt lat="45.08146" lon="6.09535">
        <ele>1588.72</ele>
        <time>2013-07-14T07:48:43Z</time>
      </trkpt>
      <trkpt lat="45.08143" lon="6.09563">
        <ele>1590.64</ele>
        <time>2013-07-14T07:48:59Z</time>
      </trkpt>
      <trkpt lat="45.0814" lon="6.09574">
        <ele>1591.12</ele>
        <time>2013-07-14T07:49:07Z</time>
      </trkpt>
      <trkpt lat="45.08135" lon="6.09578">
        <ele>1591.6</ele>
        <time>2013-07-14T07:49:12Z</time>
      </trkpt>
      <trkpt lat="45.08131" lon="6.09592">
        <ele>1591.12</ele>
        <time>2013-07-14T07:49:22Z</time>
      </trkpt>
      <trkpt lat="45.08131" lon="6.09596">
        <ele>1591.6</ele>
        <time>2013-07-14T07:49:25Z</time>
      </trkpt>
      <trkpt lat="45.08137" lon="6.09616">
        <ele>1591.6</ele>
        <time>2013-07-14T07:49:39Z</time>
      </trkpt>
      <trkpt lat="45.08141" lon="6.09628">
        <ele>1592.56</ele>
        <time>2013-07-14T07:49:47Z</time>
      </trkpt>
      <trkpt lat="45.08142" lon="6.09633">
        <ele>1592.56</ele>
        <time>2013-07-14T07:49:50Z</time>
      </trkpt>
      <trkpt lat="45.08143" lon="6.09641">
        <ele>1593.04</ele>
        <time>2013-07-14T07:49:56Z</time>
      </trkpt>
      <trkpt lat="45.08147" lon="6.09657">
        <ele>1593.52</ele>
        <time>2013-07-14T07:50:11Z</time>
      </trkpt>
      <trkpt lat="45.08141" lon="6.09653">
        <ele>1593.04</ele>
        <time>2013-07-14T07:50:25Z</time>
      </trkpt>
      <trkpt lat="45.08144" lon="6.09656">
        <ele>1592.56</ele>
        <time>2013-07-14T07:51:00Z</time>
      </trkpt>
      <trkpt lat="45.08144" lon="6.09655">
        <ele>1593.04</ele>
        <time>2013-07-14T07:53:37Z</time>
      </trkpt>
      <trkpt lat="45.08145" lon="6.09655">
        <ele>1594</ele>
        <time>2013-07-14T07:55:08Z</time>
      </trkpt>
      <trkpt lat="45.08145" lon="6.09655">
        <ele>1594</ele>
        <time>2013-07-14T07:56:48Z</time>
      </trkpt>
      <trkpt lat="45.08145" lon="6.09656">
        <ele>1594</ele>
        <time>2013-07-14T07:58:33Z</time>
      </trkpt>
      <trkpt lat="45.08145" lon="6.09656">
        <ele>1594.96</ele>
        <time>2013-07-14T07:59:41Z</time>
      </trkpt>
      <trkpt lat="45.08145" lon="6.09656">
        <ele>1594.96</ele>
        <time>2013-07-14T08:00:01Z</time>
      </trkpt>
      <trkpt lat="45.08152" lon="6.09666">
        <ele>1596.89</ele>
        <time>2013-07-14T08:00:13Z</time>
      </trkpt>
      <trkpt lat="45.08148" lon="6.09677">
        <ele>1597.85</ele>
        <time>2013-07-14T08:00:26Z</time>
      </trkpt>
      <trkpt lat="45.08146" lon="6.09677">
        <ele>1596.89</ele>
        <time>2013-07-14T08:00:47Z</time>
      </trkpt>
      <trkpt lat="45.08148" lon="6.09686">
        <ele>1597.85</ele>
        <time>2013-07-14T08:00:57Z</time>
      </trkpt>
      <trkpt lat="45.0815" lon="6.09696">
        <ele>1599.29</ele>
        <time>2013-07-14T08:01:07Z</time>
      </trkpt>
      <trkpt lat="45.08151" lon="6.09717">
        <ele>1598.33</ele>
        <time>2013-07-14T08:01:20Z</time>
      </trkpt>
      <trkpt lat="45.08155" lon="6.09743">
        <ele>1598.33</ele>
        <time>2013-07-14T08:01:34Z</time>
      </trkpt>
      <trkpt lat="45.08155" lon="6.09764">
        <ele>1599.29</ele>
        <time>2013-07-14T08:01:48Z</time>
      </trkpt>
      <trkpt lat="45.08155" lon="6.09767">
        <ele>1599.29</ele>
        <time>2013-07-14T08:01:50Z</time>
      </trkpt>
      <trkpt lat="45.08156" lon="6.09792">
        <ele>1600.25</ele>
        <time>2013-07-14T08:02:07Z</time>
      </trkpt>
      <trkpt lat="45.08151" lon="6.098">
        <ele>1600.25</ele>
        <time>2013-07-14T08:02:13Z</time>
      </trkpt>
      <trkpt lat="45.08145" lon="6.09814">
        <ele>1600.73</ele>
        <time>2013-07-14T08:02:25Z</time>
      </trkpt>
      <trkpt lat="45.08143" lon="6.09823">
        <ele>1601.21</ele>
        <time>2013-07-14T08:02:31Z</time>
      </trkpt>
      <trkpt lat="45.08148" lon="6.09851">
        <ele>1602.66</ele>
        <time>2013-07-14T08:02:47Z</time>
      </trkpt>
      <trkpt lat="45.08149" lon="6.09853">
        <ele>1602.66</ele>
        <time>2013-07-14T08:02:48Z</time>
      </trkpt>
      <trkpt lat="45.08144" lon="6.09871">
        <ele>1603.14</ele>
        <time>2013-07-14T08:03:00Z</time>
      </trkpt>
      <trkpt lat="45.08134" lon="6.09885">
        <ele>1604.58</ele>
        <time>2013-07-14T08:03:14Z</time>
      </trkpt>
      <trkpt lat="45.08131" lon="6.09888">
        <ele>1604.58</ele>
        <time>2013-07-14T08:03:18Z</time>
      </trkpt>
      <trkpt lat="45.08127" lon="6.09912">
        <ele>1606.02</ele>
        <time>2013-07-14T08:03:35Z</time>
      </trkpt>
      <trkpt lat="45.08121" lon="6.09927">
        <ele>1607.94</ele>
        <time>2013-07-14T08:03:50Z</time>
      </trkpt>
      <trkpt lat="45.08124" lon="6.09944">
        <ele>1609.38</ele>
        <time>2013-07-14T08:04:03Z</time>
      </trkpt>
      <trkpt lat="45.08127" lon="6.09954">
        <ele>1609.86</ele>
        <time>2013-07-14T08:04:10Z</time>
      </trkpt>
      <trkpt lat="45.08128" lon="6.09957">
        <ele>1610.35</ele>
        <time>2013-07-14T08:04:12Z</time>
      </trkpt>
      <trkpt lat="45.08128" lon="6.09971">
        <ele>1611.31</ele>
        <time>2013-07-14T08:04:22Z</time>
      </trkpt>
      <trkpt lat="45.08127" lon="6.09978">
        <ele>1611.31</ele>
        <time>2013-07-14T08:04:27Z</time>
      </trkpt>
      <trkpt lat="45.08122" lon="6.09996">
        <ele>1613.23</ele>
        <time>2013-07-14T08:04:43Z</time>
      </trkpt>
      <trkpt lat="45.08122" lon="6.1">
        <ele>1613.23</ele>
        <time>2013-07-14T08:04:46Z</time>
      </trkpt>
      <trkpt lat="45.08122" lon="6.10003">
        <ele>1612.75</ele>
        <time>2013-07-14T08:04:48Z</time>
      </trkpt>
      <trkpt lat="45.08121" lon="6.10009">
        <ele>1612.75</ele>
        <time>2013-07-14T08:04:53Z</time>
      </trkpt>
      <trkpt lat="45.08118" lon="6.10019">
        <ele>1613.71</ele>
        <time>2013-07-14T08:05:01Z</time>
      </trkpt>
      <trkpt lat="45.08111" lon="6.1004">
        <ele>1615.15</ele>
        <time>2013-07-14T08:05:18Z</time>
      </trkpt>
      <trkpt lat="45.08108" lon="6.1006">
        <ele>1617.07</ele>
        <time>2013-07-14T08:05:35Z</time>
      </trkpt>
      <trkpt lat="45.08105" lon="6.10076">
        <ele>1618.52</ele>
        <time>2013-07-14T08:05:50Z</time>
      </trkpt>
      <trkpt lat="45.08096" lon="6.10095">
        <ele>1620.44</ele>
        <time>2013-07-14T08:06:07Z</time>
      </trkpt>
      <trkpt lat="45.08085" lon="6.10114">
        <ele>1622.36</ele>
        <time>2013-07-14T08:06:25Z</time>
      </trkpt>
      <trkpt lat="45.08079" lon="6.10132">
        <ele>1624.28</ele>
        <time>2013-07-14T08:06:41Z</time>
      </trkpt>
      <trkpt lat="45.08074" lon="6.10149">
        <ele>1625.73</ele>
        <time>2013-07-14T08:06:56Z</time>
      </trkpt>
      <trkpt lat="45.08071" lon="6.10158">
        <ele>1626.21</ele>
        <time>2013-07-14T08:07:09Z</time>
      </trkpt>
      <trkpt lat="45.08068" lon="6.10168">
        <ele>1627.65</ele>
        <time>2013-07-14T08:07:26Z</time>
      </trkpt>
      <trkpt lat="45.08063" lon="6.10184">
        <ele>1629.09</ele>
        <time>2013-07-14T08:07:41Z</time>
      </trkpt>
      <trkpt lat="45.08062" lon="6.10197">
        <ele>1630.53</ele>
        <time>2013-07-14T08:07:54Z</time>
      </trkpt>
      <trkpt lat="45.08057" lon="6.10212">
        <ele>1632.46</ele>
        <time>2013-07-14T08:08:08Z</time>
      </trkpt>
      <trkpt lat="45.0805" lon="6.10233">
        <ele>1633.42</ele>
        <time>2013-07-14T08:08:24Z</time>
      </trkpt>
      <trkpt lat="45.08048" lon="6.10236">
        <ele>1634.38</ele>
        <time>2013-07-14T08:08:27Z</time>
      </trkpt>
      <trkpt lat="45.08045" lon="6.10253">
        <ele>1635.34</ele>
        <time>2013-07-14T08:08:42Z</time>
      </trkpt>
      <trkpt lat="45.08039" lon="6.1027">
        <ele>1636.3</ele>
        <time>2013-07-14T08:08:56Z</time>
      </trkpt>
      <trkpt lat="45.08032" lon="6.10278">
        <ele>1635.82</ele>
        <time>2013-07-14T08:09:06Z</time>
      </trkpt>
      <trkpt lat="45.08028" lon="6.10284">
        <ele>1636.3</ele>
        <time>2013-07-14T08:09:12Z</time>
      </trkpt>
      <trkpt lat="45.08026" lon="6.10286">
        <ele>1637.26</ele>
        <time>2013-07-14T08:09:15Z</time>
      </trkpt>
      <trkpt lat="45.08012" lon="6.103">
        <ele>1637.26</ele>
        <time>2013-07-14T08:09:33Z</time>
      </trkpt>
      <trkpt lat="45.08002" lon="6.10308">
        <ele>1638.7</ele>
        <time>2013-07-14T08:09:45Z</time>
      </trkpt>
      <trkpt lat="45.08" lon="6.1031">
        <ele>1638.22</ele>
        <time>2013-07-14T08:09:47Z</time>
      </trkpt>
      <trkpt lat="45.0799" lon="6.1032">
        <ele>1640.15</ele>
        <time>2013-07-14T08:10:03Z</time>
      </trkpt>
      <trkpt lat="45.07983" lon="6.10333">
        <ele>1641.59</ele>
        <time>2013-07-14T08:10:18Z</time>
      </trkpt>
      <trkpt lat="45.07981" lon="6.10338">
        <ele>1642.55</ele>
        <time>2013-07-14T08:10:25Z</time>
      </trkpt>
      <trkpt lat="45.0798" lon="6.10347">
        <ele>1642.55</ele>
        <time>2013-07-14T08:10:36Z</time>
      </trkpt>
      <trkpt lat="45.07977" lon="6.10354">
        <ele>1643.51</ele>
        <time>2013-07-14T08:10:43Z</time>
      </trkpt>
      <trkpt lat="45.07976" lon="6.1036">
        <ele>1644.47</ele>
        <time>2013-07-14T08:10:47Z</time>
      </trkpt>
      <trkpt lat="45.07976" lon="6.10366">
        <ele>1643.99</ele>
        <time>2013-07-14T08:10:52Z</time>
      </trkpt>
      <trkpt lat="45.07969" lon="6.10382">
        <ele>1644.95</ele>
        <time>2013-07-14T08:11:07Z</time>
      </trkpt>
      <trkpt lat="45.07967" lon="6.10387">
        <ele>1645.91</ele>
        <time>2013-07-14T08:11:13Z</time>
      </trkpt>
      <trkpt lat="45.07955" lon="6.10408">
        <ele>1645.91</ele>
        <time>2013-07-14T08:11:29Z</time>
      </trkpt>
      <trkpt lat="45.07947" lon="6.10419">
        <ele>1645.91</ele>
        <time>2013-07-14T08:11:39Z</time>
      </trkpt>
      <trkpt lat="45.07943" lon="6.10423">
        <ele>1646.4</ele>
        <time>2013-07-14T08:11:43Z</time>
      </trkpt>
      <trkpt lat="45.0793" lon="6.10438">
        <ele>1646.4</ele>
        <time>2013-07-14T08:11:57Z</time>
      </trkpt>
      <trkpt lat="45.07927" lon="6.1044">
        <ele>1646.4</ele>
        <time>2013-07-14T08:12:00Z</time>
      </trkpt>
      <trkpt lat="45.07911" lon="6.10457">
        <ele>1647.36</ele>
        <time>2013-07-14T08:12:17Z</time>
      </trkpt>
      <trkpt lat="45.07898" lon="6.10478">
        <ele>1647.84</ele>
        <time>2013-07-14T08:12:34Z</time>
      </trkpt>
      <trkpt lat="45.07894" lon="6.10492">
        <ele>1648.8</ele>
        <time>2013-07-14T08:12:45Z</time>
      </trkpt>
      <trkpt lat="45.07891" lon="6.10501">
        <ele>1648.8</ele>
        <time>2013-07-14T08:12:59Z</time>
      </trkpt>
      <trkpt lat="45.07889" lon="6.10504">
        <ele>1648.8</ele>
        <time>2013-07-14T08:13:01Z</time>
      </trkpt>
      <trkpt lat="45.07882" lon="6.1053">
        <ele>1649.76</ele>
        <time>2013-07-14T08:13:19Z</time>
      </trkpt>
      <trkpt lat="45.07874" lon="6.10551">
        <ele>1650.72</ele>
        <time>2013-07-14T08:13:34Z</time>
      </trkpt>
      <trkpt lat="45.07864" lon="6.10575">
        <ele>1652.16</ele>
        <time>2013-07-14T08:13:51Z</time>
      </trkpt>
      <trkpt lat="45.07863" lon="6.10576">
        <ele>1652.16</ele>
        <time>2013-07-14T08:13:52Z</time>
      </trkpt>
      <trkpt lat="45.07862" lon="6.10578">
        <ele>1652.64</ele>
        <time>2013-07-14T08:13:54Z</time>
      </trkpt>
      <trkpt lat="45.07852" lon="6.10599">
        <ele>1654.09</ele>
        <time>2013-07-14T08:14:11Z</time>
      </trkpt>
      <trkpt lat="45.07848" lon="6.10613">
        <ele>1655.05</ele>
        <time>2013-07-14T08:14:23Z</time>
      </trkpt>
      <trkpt lat="45.07846" lon="6.10615">
        <ele>1656.01</ele>
        <time>2013-07-14T08:14:25Z</time>
      </trkpt>
      <trkpt lat="45.07842" lon="6.10624">
        <ele>1656.49</ele>
        <time>2013-07-14T08:14:33Z</time>
      </trkpt>
      <trkpt lat="45.07839" lon="6.10636">
        <ele>1657.45</ele>
        <time>2013-07-14T08:14:42Z</time>
      </trkpt>
      <trkpt lat="45.07835" lon="6.10659">
        <ele>1659.37</ele>
        <time>2013-07-14T08:14:59Z</time>
      </trkpt>
      <trkpt lat="45.07834" lon="6.10666">
        <ele>1659.85</ele>
        <time>2013-07-14T08:15:04Z</time>
      </trkpt>
      <trkpt lat="45.07833" lon="6.10675">
        <ele>1660.81</ele>
        <time>2013-07-14T08:15:11Z</time>
      </trkpt>
      <trkpt lat="45.07832" lon="6.10692">
        <ele>1662.74</ele>
        <time>2013-07-14T08:15:24Z</time>
      </trkpt>
      <trkpt lat="45.07831" lon="6.10696">
        <ele>1662.26</ele>
        <time>2013-07-14T08:15:27Z</time>
      </trkpt>
      <trkpt lat="45.07828" lon="6.10718">
        <ele>1664.66</ele>
        <time>2013-07-14T08:15:44Z</time>
      </trkpt>
      <trkpt lat="45.07828" lon="6.10731">
        <ele>1665.14</ele>
        <time>2013-07-14T08:15:52Z</time>
      </trkpt>
      <trkpt lat="45.07828" lon="6.10742">
        <ele>1666.1</ele>
        <time>2013-07-14T08:16:00Z</time>
      </trkpt>
      <trkpt lat="45.07833" lon="6.10754">
        <ele>1666.1</ele>
        <time>2013-07-14T08:16:09Z</time>
      </trkpt>
      <trkpt lat="45.07834" lon="6.10759">
        <ele>1667.06</ele>
        <time>2013-07-14T08:16:12Z</time>
      </trkpt>
      <trkpt lat="45.07846" lon="6.10779">
        <ele>1668.02</ele>
        <time>2013-07-14T08:16:29Z</time>
      </trkpt>
      <trkpt lat="45.0786" lon="6.10797">
        <ele>1668.51</ele>
        <time>2013-07-14T08:16:46Z</time>
      </trkpt>
      <trkpt lat="45.07861" lon="6.10799">
        <ele>1668.02</ele>
        <time>2013-07-14T08:16:48Z</time>
      </trkpt>
      <trkpt lat="45.07864" lon="6.10807">
        <ele>1668.99</ele>
        <time>2013-07-14T08:16:55Z</time>
      </trkpt>
      <trkpt lat="45.07871" lon="6.1082">
        <ele>1669.95</ele>
        <time>2013-07-14T08:17:07Z</time>
      </trkpt>
      <trkpt lat="45.07873" lon="6.10823">
        <ele>1669.95</ele>
        <time>2013-07-14T08:17:10Z</time>
      </trkpt>
      <trkpt lat="45.07888" lon="6.10841">
        <ele>1670.91</ele>
        <time>2013-07-14T08:17:27Z</time>
      </trkpt>
      <trkpt lat="45.07889" lon="6.10843">
        <ele>1671.39</ele>
        <time>2013-07-14T08:17:29Z</time>
      </trkpt>
      <trkpt lat="45.07893" lon="6.10852">
        <ele>1672.35</ele>
        <time>2013-07-14T08:17:36Z</time>
      </trkpt>
      <trkpt lat="45.07895" lon="6.10856">
        <ele>1672.35</ele>
        <time>2013-07-14T08:17:40Z</time>
      </trkpt>
      <trkpt lat="45.07897" lon="6.10859">
        <ele>1672.83</ele>
        <time>2013-07-14T08:17:43Z</time>
      </trkpt>
      <trkpt lat="45.07901" lon="6.10872">
        <ele>1674.75</ele>
        <time>2013-07-14T08:17:53Z</time>
      </trkpt>
      <trkpt lat="45.07903" lon="6.10877">
        <ele>1674.75</ele>
        <time>2013-07-14T08:17:57Z</time>
      </trkpt>
      <trkpt lat="45.07908" lon="6.10895">
        <ele>1675.72</ele>
        <time>2013-07-14T08:18:11Z</time>
      </trkpt>
      <trkpt lat="45.07908" lon="6.10898">
        <ele>1676.2</ele>
        <time>2013-07-14T08:18:14Z</time>
      </trkpt>
      <trkpt lat="45.0791" lon="6.10904">
        <ele>1677.16</ele>
        <time>2013-07-14T08:18:18Z</time>
      </trkpt>
      <trkpt lat="45.07913" lon="6.10922">
        <ele>1678.12</ele>
        <time>2013-07-14T08:18:33Z</time>
      </trkpt>
      <trkpt lat="45.07913" lon="6.10925">
        <ele>1679.08</ele>
        <time>2013-07-14T08:18:35Z</time>
      </trkpt>
      <trkpt lat="45.07915" lon="6.10935">
        <ele>1679.56</ele>
        <time>2013-07-14T08:18:42Z</time>
      </trkpt>
      <trkpt lat="45.07915" lon="6.10938">
        <ele>1680.04</ele>
        <time>2013-07-14T08:18:44Z</time>
      </trkpt>
      <trkpt lat="45.07917" lon="6.10949">
        <ele>1679.56</ele>
        <time>2013-07-14T08:18:53Z</time>
      </trkpt>
      <trkpt lat="45.07915" lon="6.10974">
        <ele>1682.44</ele>
        <time>2013-07-14T08:19:11Z</time>
      </trkpt>
      <trkpt lat="45.07911" lon="6.10992">
        <ele>1683.89</ele>
        <time>2013-07-14T08:19:25Z</time>
      </trkpt>
      <trkpt lat="45.0791" lon="6.10994">
        <ele>1684.37</ele>
        <time>2013-07-14T08:19:27Z</time>
      </trkpt>
      <trkpt lat="45.0791" lon="6.11014">
        <ele>1685.33</ele>
        <time>2013-07-14T08:19:41Z</time>
      </trkpt>
      <trkpt lat="45.0791" lon="6.11023">
        <ele>1686.29</ele>
        <time>2013-07-14T08:19:47Z</time>
      </trkpt>
      <trkpt lat="45.07911" lon="6.11046">
        <ele>1686.77</ele>
        <time>2013-07-14T08:20:02Z</time>
      </trkpt>
      <trkpt lat="45.07911" lon="6.11047">
        <ele>1686.29</ele>
        <time>2013-07-14T08:20:03Z</time>
      </trkpt>
      <trkpt lat="45.07911" lon="6.1105">
        <ele>1687.25</ele>
        <time>2013-07-14T08:20:05Z</time>
      </trkpt>
      <trkpt lat="45.0791" lon="6.11057">
        <ele>1687.25</ele>
        <time>2013-07-14T08:20:09Z</time>
      </trkpt>
      <trkpt lat="45.07911" lon="6.11061">
        <ele>1687.73</ele>
        <time>2013-07-14T08:20:12Z</time>
      </trkpt>
      <trkpt lat="45.0791" lon="6.11087">
        <ele>1688.21</ele>
        <time>2013-07-14T08:20:31Z</time>
      </trkpt>
      <trkpt lat="45.0791" lon="6.11093">
        <ele>1689.17</ele>
        <time>2013-07-14T08:20:35Z</time>
      </trkpt>
      <trkpt lat="45.07907" lon="6.11117">
        <ele>1691.58</ele>
        <time>2013-07-14T08:20:52Z</time>
      </trkpt>
      <trkpt lat="45.07902" lon="6.1114">
        <ele>1693.02</ele>
        <time>2013-07-14T08:21:09Z</time>
      </trkpt>
      <trkpt lat="45.07897" lon="6.11155">
        <ele>1693.98</ele>
        <time>2013-07-14T08:21:21Z</time>
      </trkpt>
      <trkpt lat="45.07895" lon="6.11165">
        <ele>1694.46</ele>
        <time>2013-07-14T08:21:29Z</time>
      </trkpt>
      <trkpt lat="45.0789" lon="6.11185">
        <ele>1695.9</ele>
        <time>2013-07-14T08:21:45Z</time>
      </trkpt>
      <trkpt lat="45.07889" lon="6.11195">
        <ele>1696.86</ele>
        <time>2013-07-14T08:21:53Z</time>
      </trkpt>
      <trkpt lat="45.07887" lon="6.11209">
        <ele>1697.34</ele>
        <time>2013-07-14T08:22:03Z</time>
      </trkpt>
      <trkpt lat="45.07885" lon="6.11215">
        <ele>1698.31</ele>
        <time>2013-07-14T08:22:07Z</time>
      </trkpt>
      <trkpt lat="45.07884" lon="6.11221">
        <ele>1698.31</ele>
        <time>2013-07-14T08:22:11Z</time>
      </trkpt>
      <trkpt lat="45.07882" lon="6.11227">
        <ele>1698.31</ele>
        <time>2013-07-14T08:22:15Z</time>
      </trkpt>
      <trkpt lat="45.07878" lon="6.11244">
        <ele>1698.79</ele>
        <time>2013-07-14T08:22:27Z</time>
      </trkpt>
      <trkpt lat="45.07877" lon="6.1127">
        <ele>1699.75</ele>
        <time>2013-07-14T08:22:44Z</time>
      </trkpt>
      <trkpt lat="45.07877" lon="6.11271">
        <ele>1699.27</ele>
        <time>2013-07-14T08:22:45Z</time>
      </trkpt>
      <trkpt lat="45.07875" lon="6.11281">
        <ele>1700.23</ele>
        <time>2013-07-14T08:22:51Z</time>
      </trkpt>
      <trkpt lat="45.07877" lon="6.11292">
        <ele>1700.23</ele>
        <time>2013-07-14T08:22:58Z</time>
      </trkpt>
      <trkpt lat="45.07876" lon="6.11302">
        <ele>1701.19</ele>
        <time>2013-07-14T08:23:04Z</time>
      </trkpt>
      <trkpt lat="45.07876" lon="6.11304">
        <ele>1701.19</ele>
        <time>2013-07-14T08:23:06Z</time>
      </trkpt>
      <trkpt lat="45.07876" lon="6.11307">
        <ele>1700.71</ele>
        <time>2013-07-14T08:23:08Z</time>
      </trkpt>
      <trkpt lat="45.07875" lon="6.11315">
        <ele>1701.19</ele>
        <time>2013-07-14T08:23:13Z</time>
      </trkpt>
      <trkpt lat="45.07875" lon="6.11317">
        <ele>1701.19</ele>
        <time>2013-07-14T08:23:15Z</time>
      </trkpt>
      <trkpt lat="45.07874" lon="6.11331">
        <ele>1701.67</ele>
        <time>2013-07-14T08:23:24Z</time>
      </trkpt>
      <trkpt lat="45.07874" lon="6.11341">
        <ele>1702.15</ele>
        <time>2013-07-14T08:23:30Z</time>
      </trkpt>
      <trkpt lat="45.07872" lon="6.11366">
        <ele>1704.07</ele>
        <time>2013-07-14T08:23:47Z</time>
      </trkpt>
      <trkpt lat="45.07871" lon="6.11371">
        <ele>1704.07</ele>
        <time>2013-07-14T08:23:50Z</time>
      </trkpt>
      <trkpt lat="45.07871" lon="6.11373">
        <ele>1704.55</ele>
        <time>2013-07-14T08:23:52Z</time>
      </trkpt>
      <trkpt lat="45.07869" lon="6.11375">
        <ele>1705.52</ele>
        <time>2013-07-14T08:23:54Z</time>
      </trkpt>
      <trkpt lat="45.07867" lon="6.11383">
        <ele>1705.04</ele>
        <time>2013-07-14T08:24:00Z</time>
      </trkpt>
      <trkpt lat="45.07866" lon="6.11387">
        <ele>1705.52</ele>
        <time>2013-07-14T08:24:03Z</time>
      </trkpt>
      <trkpt lat="45.07864" lon="6.1139">
        <ele>1706</ele>
        <time>2013-07-14T08:24:06Z</time>
      </trkpt>
      <trkpt lat="45.07863" lon="6.11396">
        <ele>1706.48</ele>
        <time>2013-07-14T08:24:10Z</time>
      </trkpt>
      <trkpt lat="45.07863" lon="6.114">
        <ele>1706.48</ele>
        <time>2013-07-14T08:24:13Z</time>
      </trkpt>
      <trkpt lat="45.07862" lon="6.11404">
        <ele>1706.48</ele>
        <time>2013-07-14T08:24:16Z</time>
      </trkpt>
      <trkpt lat="45.07857" lon="6.11428">
        <ele>1707.92</ele>
        <time>2013-07-14T08:24:33Z</time>
      </trkpt>
      <trkpt lat="45.07855" lon="6.11443">
        <ele>1709.36</ele>
        <time>2013-07-14T08:24:43Z</time>
      </trkpt>
      <trkpt lat="45.07854" lon="6.11457">
        <ele>1710.8</ele>
        <time>2013-07-14T08:24:53Z</time>
      </trkpt>
      <trkpt lat="45.07854" lon="6.11477">
        <ele>1710.8</ele>
        <time>2013-07-14T08:25:06Z</time>
      </trkpt>
      <trkpt lat="45.07856" lon="6.1149">
        <ele>1711.76</ele>
        <time>2013-07-14T08:25:14Z</time>
      </trkpt>
      <trkpt lat="45.07857" lon="6.11493">
        <ele>1711.76</ele>
        <time>2013-07-14T08:25:16Z</time>
      </trkpt>
      <trkpt lat="45.07856" lon="6.1152">
        <ele>1712.25</ele>
        <time>2013-07-14T08:25:33Z</time>
      </trkpt>
      <trkpt lat="45.07858" lon="6.11528">
        <ele>1712.73</ele>
        <time>2013-07-14T08:25:40Z</time>
      </trkpt>
      <trkpt lat="45.07858" lon="6.11531">
        <ele>1713.21</ele>
        <time>2013-07-14T08:25:45Z</time>
      </trkpt>
      <trkpt lat="45.07856" lon="6.11537">
        <ele>1712.73</ele>
        <time>2013-07-14T08:25:49Z</time>
      </trkpt>
      <trkpt lat="45.07855" lon="6.11547">
        <ele>1721.86</ele>
        <time>2013-07-14T08:25:55Z</time>
      </trkpt>
      <trkpt lat="45.07855" lon="6.11548">
        <ele>1714.65</ele>
        <time>2013-07-14T08:25:56Z</time>
      </trkpt>
      <trkpt lat="45.07854" lon="6.11562">
        <ele>1714.17</ele>
        <time>2013-07-14T08:26:11Z</time>
      </trkpt>
      <trkpt lat="45.07856" lon="6.11571">
        <ele>1714.17</ele>
        <time>2013-07-14T08:26:18Z</time>
      </trkpt>
      <trkpt lat="45.07853" lon="6.11586">
        <ele>1705.04</ele>
        <time>2013-07-14T08:26:28Z</time>
      </trkpt>
      <trkpt lat="45.07852" lon="6.11587">
        <ele>1708.88</ele>
        <time>2013-07-14T08:26:29Z</time>
      </trkpt>
      <trkpt lat="45.07852" lon="6.11588">
        <ele>1720.9</ele>
        <time>2013-07-14T08:26:30Z</time>
      </trkpt>
      <trkpt lat="45.07852" lon="6.1159">
        <ele>1717.53</ele>
        <time>2013-07-14T08:26:31Z</time>
      </trkpt>
      <trkpt lat="45.07852" lon="6.11594">
        <ele>1715.61</ele>
        <time>2013-07-14T08:26:34Z</time>
      </trkpt>
      <trkpt lat="45.0785" lon="6.11618">
        <ele>1716.09</ele>
        <time>2013-07-14T08:26:48Z</time>
      </trkpt>
      <trkpt lat="45.0785" lon="6.1162">
        <ele>1715.61</ele>
        <time>2013-07-14T08:26:49Z</time>
      </trkpt>
      <trkpt lat="45.07848" lon="6.11628">
        <ele>1716.57</ele>
        <time>2013-07-14T08:26:55Z</time>
      </trkpt>
      <trkpt lat="45.07845" lon="6.11642">
        <ele>1717.05</ele>
        <time>2013-07-14T08:27:06Z</time>
      </trkpt>
      <trkpt lat="45.07844" lon="6.1165">
        <ele>1718.01</ele>
        <time>2013-07-14T08:27:12Z</time>
      </trkpt>
      <trkpt lat="45.07843" lon="6.11652">
        <ele>1718.01</ele>
        <time>2013-07-14T08:27:15Z</time>
      </trkpt>
      <trkpt lat="45.07842" lon="6.11662">
        <ele>1718.49</ele>
        <time>2013-07-14T08:27:25Z</time>
      </trkpt>
      <trkpt lat="45.07839" lon="6.11663">
        <ele>1718.49</ele>
        <time>2013-07-14T08:27:39Z</time>
      </trkpt>
      <trkpt lat="45.07838" lon="6.1167">
        <ele>1718.97</ele>
        <time>2013-07-14T08:27:51Z</time>
      </trkpt>
      <trkpt lat="45.07838" lon="6.11672">
        <ele>1719.46</ele>
        <time>2013-07-14T08:28:17Z</time>
      </trkpt>
      <trkpt lat="45.07838" lon="6.11678">
        <ele>1719.46</ele>
        <time>2013-07-14T08:28:38Z</time>
      </trkpt>
      <trkpt lat="45.07838" lon="6.11681">
        <ele>1719.46</ele>
        <time>2013-07-14T08:28:55Z</time>
      </trkpt>
      <trkpt lat="45.07839" lon="6.11683">
        <ele>1718.97</ele>
        <time>2013-07-14T08:29:09Z</time>
      </trkpt>
      <trkpt lat="45.07839" lon="6.11682">
        <ele>1719.46</ele>
        <time>2013-07-14T08:29:58Z</time>
      </trkpt>
      <trkpt lat="45.0784" lon="6.11682">
        <ele>1719.94</ele>
        <time>2013-07-14T08:30:32Z</time>
      </trkpt>
      <trkpt lat="45.0784" lon="6.11681">
        <ele>1719.46</ele>
        <time>2013-07-14T08:31:06Z</time>
      </trkpt>
      <trkpt lat="45.07834" lon="6.11687">
        <ele>1719.94</ele>
        <time>2013-07-14T08:31:29Z</time>
      </trkpt>
      <trkpt lat="45.07833" lon="6.11689">
        <ele>1718.97</ele>
        <time>2013-07-14T08:31:38Z</time>
      </trkpt>
      <trkpt lat="45.07828" lon="6.11702">
        <ele>1719.94</ele>
        <time>2013-07-14T08:31:47Z</time>
      </trkpt>
      <trkpt lat="45.07822" lon="6.11715">
        <ele>1719.94</ele>
        <time>2013-07-14T08:32:02Z</time>
      </trkpt>
      <trkpt lat="45.07818" lon="6.11743">
        <ele>1718.49</ele>
        <time>2013-07-14T08:32:20Z</time>
      </trkpt>
      <trkpt lat="45.07818" lon="6.11759">
        <ele>1719.46</ele>
        <time>2013-07-14T08:32:30Z</time>
      </trkpt>
      <trkpt lat="45.07814" lon="6.11776">
        <ele>1719.94</ele>
        <time>2013-07-14T08:32:44Z</time>
      </trkpt>
      <trkpt lat="45.07812" lon="6.11778">
        <ele>1719.46</ele>
        <time>2013-07-14T08:32:48Z</time>
      </trkpt>
      <trkpt lat="45.0781" lon="6.1178">
        <ele>1719.94</ele>
        <time>2013-07-14T08:32:50Z</time>
      </trkpt>
      <trkpt lat="45.07811" lon="6.11791">
        <ele>1719.46</ele>
        <time>2013-07-14T08:32:59Z</time>
      </trkpt>
      <trkpt lat="45.07815" lon="6.11802">
        <ele>1719.94</ele>
        <time>2013-07-14T08:33:12Z</time>
      </trkpt>
      <trkpt lat="45.07815" lon="6.11803">
        <ele>1720.42</ele>
        <time>2013-07-14T08:33:13Z</time>
      </trkpt>
      <trkpt lat="45.07813" lon="6.11823">
        <ele>1721.86</ele>
        <time>2013-07-14T08:33:29Z</time>
      </trkpt>
      <trkpt lat="45.0781" lon="6.11839">
        <ele>1723.78</ele>
        <time>2013-07-14T08:33:42Z</time>
      </trkpt>
      <trkpt lat="45.0781" lon="6.11842">
        <ele>1724.26</ele>
        <time>2013-07-14T08:33:44Z</time>
      </trkpt>
      <trkpt lat="45.07808" lon="6.1185">
        <ele>1724.74</ele>
        <time>2013-07-14T08:33:51Z</time>
      </trkpt>
      <trkpt lat="45.07809" lon="6.11853">
        <ele>1724.74</ele>
        <time>2013-07-14T08:33:53Z</time>
      </trkpt>
      <trkpt lat="45.07809" lon="6.1186">
        <ele>1725.7</ele>
        <time>2013-07-14T08:33:58Z</time>
      </trkpt>
      <trkpt lat="45.07809" lon="6.11865">
        <ele>1726.18</ele>
        <time>2013-07-14T08:34:02Z</time>
      </trkpt>
      <trkpt lat="45.07808" lon="6.11872">
        <ele>1726.67</ele>
        <time>2013-07-14T08:34:07Z</time>
      </trkpt>
      <trkpt lat="45.07808" lon="6.11878">
        <ele>1726.67</ele>
        <time>2013-07-14T08:34:11Z</time>
      </trkpt>
      <trkpt lat="45.07808" lon="6.1188">
        <ele>1726.67</ele>
        <time>2013-07-14T08:34:13Z</time>
      </trkpt>
      <trkpt lat="45.07806" lon="6.11901">
        <ele>1728.59</ele>
        <time>2013-07-14T08:34:29Z</time>
      </trkpt>
      <trkpt lat="45.07806" lon="6.11905">
        <ele>1728.59</ele>
        <time>2013-07-14T08:34:32Z</time>
      </trkpt>
      <trkpt lat="45.07809" lon="6.11924">
        <ele>1730.03</ele>
        <time>2013-07-14T08:34:47Z</time>
      </trkpt>
      <trkpt lat="45.07811" lon="6.11948">
        <ele>1731.47</ele>
        <time>2013-07-14T08:35:04Z</time>
      </trkpt>
      <trkpt lat="45.07813" lon="6.11967">
        <ele>1733.39</ele>
        <time>2013-07-14T08:35:19Z</time>
      </trkpt>
      <trkpt lat="45.07813" lon="6.11973">
        <ele>1733.88</ele>
        <time>2013-07-14T08:35:24Z</time>
      </trkpt>
      <trkpt lat="45.07814" lon="6.11995">
        <ele>1736.28</ele>
        <time>2013-07-14T08:35:41Z</time>
      </trkpt>
      <trkpt lat="45.07814" lon="6.11999">
        <ele>1736.76</ele>
        <time>2013-07-14T08:35:45Z</time>
      </trkpt>
      <trkpt lat="45.07814" lon="6.12012">
        <ele>1738.68</ele>
        <time>2013-07-14T08:35:57Z</time>
      </trkpt>
      <trkpt lat="45.07815" lon="6.12028">
        <ele>1740.6</ele>
        <time>2013-07-14T08:36:11Z</time>
      </trkpt>
      <trkpt lat="45.07816" lon="6.12034">
        <ele>1741.08</ele>
        <time>2013-07-14T08:36:16Z</time>
      </trkpt>
      <trkpt lat="45.07817" lon="6.12037">
        <ele>1741.57</ele>
        <time>2013-07-14T08:36:19Z</time>
      </trkpt>
      <trkpt lat="45.07819" lon="6.12044">
        <ele>1742.05</ele>
        <time>2013-07-14T08:36:24Z</time>
      </trkpt>
      <trkpt lat="45.07822" lon="6.12047">
        <ele>1742.53</ele>
        <time>2013-07-14T08:36:28Z</time>
      </trkpt>
      <trkpt lat="45.07824" lon="6.12049">
        <ele>1742.05</ele>
        <time>2013-07-14T08:36:30Z</time>
      </trkpt>
      <trkpt lat="45.07834" lon="6.12071">
        <ele>1743.49</ele>
        <time>2013-07-14T08:36:47Z</time>
      </trkpt>
      <trkpt lat="45.07838" lon="6.12085">
        <ele>1744.45</ele>
        <time>2013-07-14T08:36:57Z</time>
      </trkpt>
      <trkpt lat="45.07839" lon="6.12094">
        <ele>1744.45</ele>
        <time>2013-07-14T08:37:03Z</time>
      </trkpt>
      <trkpt lat="45.07839" lon="6.12097">
        <ele>1744.45</ele>
        <time>2013-07-14T08:37:06Z</time>
      </trkpt>
      <trkpt lat="45.0784" lon="6.12099">
        <ele>1744.45</ele>
        <time>2013-07-14T08:37:08Z</time>
      </trkpt>
      <trkpt lat="45.07841" lon="6.12113">
        <ele>1744.93</ele>
        <time>2013-07-14T08:37:17Z</time>
      </trkpt>
      <trkpt lat="45.07841" lon="6.12115">
        <ele>1745.41</ele>
        <time>2013-07-14T08:37:19Z</time>
      </trkpt>
      <trkpt lat="45.07841" lon="6.12118">
        <ele>1746.37</ele>
        <time>2013-07-14T08:37:21Z</time>
      </trkpt>
      <trkpt lat="45.07841" lon="6.12121">
        <ele>1745.89</ele>
        <time>2013-07-14T08:37:23Z</time>
      </trkpt>
      <trkpt lat="45.07842" lon="6.12136">
        <ele>1746.37</ele>
        <time>2013-07-14T08:37:34Z</time>
      </trkpt>
      <trkpt lat="45.07843" lon="6.12143">
        <ele>1747.33</ele>
        <time>2013-07-14T08:37:38Z</time>
      </trkpt>
      <trkpt lat="45.07845" lon="6.12166">
        <ele>1749.26</ele>
        <time>2013-07-14T08:37:54Z</time>
      </trkpt>
      <trkpt lat="45.07846" lon="6.12175">
        <ele>1748.78</ele>
        <time>2013-07-14T08:38:01Z</time>
      </trkpt>
      <trkpt lat="45.07847" lon="6.12186">
        <ele>1750.22</ele>
        <time>2013-07-14T08:38:08Z</time>
      </trkpt>
      <trkpt lat="45.07847" lon="6.12192">
        <ele>1750.22</ele>
        <time>2013-07-14T08:38:12Z</time>
      </trkpt>
      <trkpt lat="45.07847" lon="6.12198">
        <ele>1750.22</ele>
        <time>2013-07-14T08:38:16Z</time>
      </trkpt>
      <trkpt lat="45.07847" lon="6.12206">
        <ele>1751.18</ele>
        <time>2013-07-14T08:38:22Z</time>
      </trkpt>
      <trkpt lat="45.0785" lon="6.12219">
        <ele>1751.66</ele>
        <time>2013-07-14T08:38:30Z</time>
      </trkpt>
      <trkpt lat="45.07851" lon="6.12224">
        <ele>1752.14</ele>
        <time>2013-07-14T08:38:34Z</time>
      </trkpt>
      <trkpt lat="45.07854" lon="6.12252">
        <ele>1753.58</ele>
        <time>2013-07-14T08:38:52Z</time>
      </trkpt>
      <trkpt lat="45.07855" lon="6.12258">
        <ele>1753.1</ele>
        <time>2013-07-14T08:38:56Z</time>
      </trkpt>
      <trkpt lat="45.07857" lon="6.12262">
        <ele>1753.1</ele>
        <time>2013-07-14T08:38:59Z</time>
      </trkpt>
      <trkpt lat="45.07857" lon="6.12283">
        <ele>1754.54</ele>
        <time>2013-07-14T08:39:14Z</time>
      </trkpt>
      <trkpt lat="45.07858" lon="6.12296">
        <ele>1755.02</ele>
        <time>2013-07-14T08:39:22Z</time>
      </trkpt>
      <trkpt lat="45.0786" lon="6.12308">
        <ele>1755.99</ele>
        <time>2013-07-14T08:39:30Z</time>
      </trkpt>
      <trkpt lat="45.0786" lon="6.12313">
        <ele>1755.99</ele>
        <time>2013-07-14T08:39:34Z</time>
      </trkpt>
      <trkpt lat="45.07859" lon="6.12317">
        <ele>1756.47</ele>
        <time>2013-07-14T08:39:37Z</time>
      </trkpt>
      <trkpt lat="45.07867" lon="6.12342">
        <ele>1757.43</ele>
        <time>2013-07-14T08:39:54Z</time>
      </trkpt>
      <trkpt lat="45.07872" lon="6.12354">
        <ele>1757.91</ele>
        <time>2013-07-14T08:40:04Z</time>
      </trkpt>
      <trkpt lat="45.07881" lon="6.12371">
        <ele>1759.35</ele>
        <time>2013-07-14T08:40:20Z</time>
      </trkpt>
      <trkpt lat="45.07895" lon="6.12387">
        <ele>1760.79</ele>
        <time>2013-07-14T08:40:38Z</time>
      </trkpt>
      <trkpt lat="45.07907" lon="6.12405">
        <ele>1762.23</ele>
        <time>2013-07-14T08:40:53Z</time>
      </trkpt>
      <trkpt lat="45.07912" lon="6.12429">
        <ele>1764.16</ele>
        <time>2013-07-14T08:41:10Z</time>
      </trkpt>
      <trkpt lat="45.07912" lon="6.12431">
        <ele>1764.16</ele>
        <time>2013-07-14T08:41:11Z</time>
      </trkpt>
      <trkpt lat="45.07913" lon="6.12441">
        <ele>1764.64</ele>
        <time>2013-07-14T08:41:18Z</time>
      </trkpt>
      <trkpt lat="45.07914" lon="6.12443">
        <ele>1764.64</ele>
        <time>2013-07-14T08:41:20Z</time>
      </trkpt>
      <trkpt lat="45.07914" lon="6.12449">
        <ele>1765.12</ele>
        <time>2013-07-14T08:41:24Z</time>
      </trkpt>
      <trkpt lat="45.07915" lon="6.1246">
        <ele>1765.12</ele>
        <time>2013-07-14T08:41:32Z</time>
      </trkpt>
      <trkpt lat="45.07915" lon="6.12462">
        <ele>1765.6</ele>
        <time>2013-07-14T08:41:34Z</time>
      </trkpt>
      <trkpt lat="45.07916" lon="6.12465">
        <ele>1765.12</ele>
        <time>2013-07-14T08:41:36Z</time>
      </trkpt>
      <trkpt lat="45.07922" lon="6.12485">
        <ele>1767.04</ele>
        <time>2013-07-14T08:41:53Z</time>
      </trkpt>
      <trkpt lat="45.07931" lon="6.12505">
        <ele>1768.48</ele>
        <time>2013-07-14T08:42:10Z</time>
      </trkpt>
      <trkpt lat="45.07935" lon="6.12518">
        <ele>1769.44</ele>
        <time>2013-07-14T08:42:20Z</time>
      </trkpt>
      <trkpt lat="45.07937" lon="6.12527">
        <ele>1769.92</ele>
        <time>2013-07-14T08:42:27Z</time>
      </trkpt>
      <trkpt lat="45.07941" lon="6.12537">
        <ele>1770.41</ele>
        <time>2013-07-14T08:42:35Z</time>
      </trkpt>
      <trkpt lat="45.07945" lon="6.12544">
        <ele>1770.89</ele>
        <time>2013-07-14T08:42:41Z</time>
      </trkpt>
      <trkpt lat="45.07958" lon="6.12559">
        <ele>1772.81</ele>
        <time>2013-07-14T08:42:58Z</time>
      </trkpt>
      <trkpt lat="45.07973" lon="6.12575">
        <ele>1773.29</ele>
        <time>2013-07-14T08:43:16Z</time>
      </trkpt>
      <trkpt lat="45.07974" lon="6.12577">
        <ele>1774.25</ele>
        <time>2013-07-14T08:43:18Z</time>
      </trkpt>
      <trkpt lat="45.07976" lon="6.1258">
        <ele>1774.73</ele>
        <time>2013-07-14T08:43:21Z</time>
      </trkpt>
      <trkpt lat="45.07988" lon="6.126">
        <ele>1776.17</ele>
        <time>2013-07-14T08:43:39Z</time>
      </trkpt>
      <trkpt lat="45.07998" lon="6.12622">
        <ele>1777.61</ele>
        <time>2013-07-14T08:43:56Z</time>
      </trkpt>
      <trkpt lat="45.08007" lon="6.12646">
        <ele>1778.58</ele>
        <time>2013-07-14T08:44:13Z</time>
      </trkpt>
      <trkpt lat="45.08015" lon="6.12659">
        <ele>1779.54</ele>
        <time>2013-07-14T08:44:25Z</time>
      </trkpt>
      <trkpt lat="45.08018" lon="6.12664">
        <ele>1780.02</ele>
        <time>2013-07-14T08:44:30Z</time>
      </trkpt>
      <trkpt lat="45.08025" lon="6.12683">
        <ele>1781.46</ele>
        <time>2013-07-14T08:44:47Z</time>
      </trkpt>
      <trkpt lat="45.08027" lon="6.12688">
        <ele>1781.94</ele>
        <time>2013-07-14T08:44:51Z</time>
      </trkpt>
      <trkpt lat="45.08032" lon="6.12691">
        <ele>1782.9</ele>
        <time>2013-07-14T08:44:56Z</time>
      </trkpt>
      <trkpt lat="45.08038" lon="6.12699">
        <ele>1783.38</ele>
        <time>2013-07-14T08:45:04Z</time>
      </trkpt>
      <trkpt lat="45.0805" lon="6.12712">
        <ele>1785.31</ele>
        <time>2013-07-14T08:45:19Z</time>
      </trkpt>
      <trkpt lat="45.08059" lon="6.12725">
        <ele>1786.75</ele>
        <time>2013-07-14T08:45:33Z</time>
      </trkpt>
      <trkpt lat="45.08069" lon="6.12745">
        <ele>1788.67</ele>
        <time>2013-07-14T08:45:50Z</time>
      </trkpt>
      <trkpt lat="45.08077" lon="6.12758">
        <ele>1789.63</ele>
        <time>2013-07-14T08:46:03Z</time>
      </trkpt>
      <trkpt lat="45.08089" lon="6.12774">
        <ele>1791.07</ele>
        <time>2013-07-14T08:46:20Z</time>
      </trkpt>
      <trkpt lat="45.0809" lon="6.12778">
        <ele>1791.55</ele>
        <time>2013-07-14T08:46:23Z</time>
      </trkpt>
      <trkpt lat="45.08092" lon="6.12779">
        <ele>1791.55</ele>
        <time>2013-07-14T08:46:25Z</time>
      </trkpt>
      <trkpt lat="45.08102" lon="6.12796">
        <ele>1793</ele>
        <time>2013-07-14T08:46:41Z</time>
      </trkpt>
      <trkpt lat="45.08109" lon="6.12808">
        <ele>1793.96</ele>
        <time>2013-07-14T08:46:52Z</time>
      </trkpt>
      <trkpt lat="45.0811" lon="6.12811">
        <ele>1793.96</ele>
        <time>2013-07-14T08:46:54Z</time>
      </trkpt>
      <trkpt lat="45.08114" lon="6.12825">
        <ele>1795.4</ele>
        <time>2013-07-14T08:47:05Z</time>
      </trkpt>
      <trkpt lat="45.08121" lon="6.12849">
        <ele>1797.8</ele>
        <time>2013-07-14T08:47:25Z</time>
      </trkpt>
      <trkpt lat="45.08126" lon="6.1287">
        <ele>1799.73</ele>
        <time>2013-07-14T08:47:42Z</time>
      </trkpt>
      <trkpt lat="45.0813" lon="6.12887">
        <ele>1800.21</ele>
        <time>2013-07-14T08:47:55Z</time>
      </trkpt>
      <trkpt lat="45.08133" lon="6.12908">
        <ele>1801.65</ele>
        <time>2013-07-14T08:48:11Z</time>
      </trkpt>
      <trkpt lat="45.08135" lon="6.12928">
        <ele>1803.57</ele>
        <time>2013-07-14T08:48:25Z</time>
      </trkpt>
      <trkpt lat="45.08136" lon="6.12949">
        <ele>1804.05</ele>
        <time>2013-07-14T08:48:41Z</time>
      </trkpt>
      <trkpt lat="45.08136" lon="6.12957">
        <ele>1805.01</ele>
        <time>2013-07-14T08:48:47Z</time>
      </trkpt>
      <trkpt lat="45.08136" lon="6.1296">
        <ele>1805.49</ele>
        <time>2013-07-14T08:48:50Z</time>
      </trkpt>
      <trkpt lat="45.08135" lon="6.12969">
        <ele>1805.49</ele>
        <time>2013-07-14T08:48:56Z</time>
      </trkpt>
      <trkpt lat="45.08131" lon="6.1298">
        <ele>1807.9</ele>
        <time>2013-07-14T08:49:04Z</time>
      </trkpt>
      <trkpt lat="45.08129" lon="6.12983">
        <ele>1813.66</ele>
        <time>2013-07-14T08:49:06Z</time>
      </trkpt>
      <trkpt lat="45.08128" lon="6.12985">
        <ele>1809.82</ele>
        <time>2013-07-14T08:49:07Z</time>
      </trkpt>
      <trkpt lat="45.08127" lon="6.12987">
        <ele>1797.8</ele>
        <time>2013-07-14T08:49:10Z</time>
      </trkpt>
      <trkpt lat="45.08126" lon="6.12988">
        <ele>1815.59</ele>
        <time>2013-07-14T08:49:11Z</time>
      </trkpt>
      <trkpt lat="45.08126" lon="6.12989">
        <ele>1811.74</ele>
        <time>2013-07-14T08:49:12Z</time>
      </trkpt>
      <trkpt lat="45.08126" lon="6.1299">
        <ele>1814.63</ele>
        <time>2013-07-14T08:49:13Z</time>
      </trkpt>
      <trkpt lat="45.08125" lon="6.12991">
        <ele>1793.48</ele>
        <time>2013-07-14T08:49:14Z</time>
      </trkpt>
      <trkpt lat="45.08125" lon="6.12992">
        <ele>1808.86</ele>
        <time>2013-07-14T08:49:15Z</time>
      </trkpt>
      <trkpt lat="45.0812" lon="6.12999">
        <ele>1809.82</ele>
        <time>2013-07-14T08:49:23Z</time>
      </trkpt>
      <trkpt lat="45.08109" lon="6.13016">
        <ele>1810.3</ele>
        <time>2013-07-14T08:49:39Z</time>
      </trkpt>
      <trkpt lat="45.08107" lon="6.1302">
        <ele>1809.82</ele>
        <time>2013-07-14T08:49:42Z</time>
      </trkpt>
      <trkpt lat="45.08105" lon="6.13022">
        <ele>1809.82</ele>
        <time>2013-07-14T08:49:45Z</time>
      </trkpt>
      <trkpt lat="45.08103" lon="6.13028">
        <ele>1810.78</ele>
        <time>2013-07-14T08:49:50Z</time>
      </trkpt>
      <trkpt lat="45.08099" lon="6.13033">
        <ele>1811.26</ele>
        <time>2013-07-14T08:49:55Z</time>
      </trkpt>
      <trkpt lat="45.0809" lon="6.13052">
        <ele>1812.7</ele>
        <time>2013-07-14T08:50:12Z</time>
      </trkpt>
      <trkpt lat="45.08089" lon="6.13063">
        <ele>1813.18</ele>
        <time>2013-07-14T08:50:20Z</time>
      </trkpt>
      <trkpt lat="45.08085" lon="6.13068">
        <ele>1813.66</ele>
        <time>2013-07-14T08:50:25Z</time>
      </trkpt>
      <trkpt lat="45.08083" lon="6.13079">
        <ele>1814.15</ele>
        <time>2013-07-14T08:50:33Z</time>
      </trkpt>
      <trkpt lat="45.08082" lon="6.13092">
        <ele>1815.59</ele>
        <time>2013-07-14T08:50:42Z</time>
      </trkpt>
      <trkpt lat="45.08084" lon="6.13099">
        <ele>1815.59</ele>
        <time>2013-07-14T08:50:47Z</time>
      </trkpt>
      <trkpt lat="45.08086" lon="6.13106">
        <ele>1815.59</ele>
        <time>2013-07-14T08:50:52Z</time>
      </trkpt>
      <trkpt lat="45.08097" lon="6.1313">
        <ele>1817.51</ele>
        <time>2013-07-14T08:51:12Z</time>
      </trkpt>
      <trkpt lat="45.08099" lon="6.13135">
        <ele>1818.47</ele>
        <time>2013-07-14T08:51:16Z</time>
      </trkpt>
      <trkpt lat="45.08109" lon="6.13154">
        <ele>1818.95</ele>
        <time>2013-07-14T08:51:33Z</time>
      </trkpt>
      <trkpt lat="45.0812" lon="6.13166">
        <ele>1820.39</ele>
        <time>2013-07-14T08:51:49Z</time>
      </trkpt>
      <trkpt lat="45.08122" lon="6.13169">
        <ele>1821.84</ele>
        <time>2013-07-14T08:51:52Z</time>
      </trkpt>
      <trkpt lat="45.08127" lon="6.13182">
        <ele>1823.76</ele>
        <time>2013-07-14T08:52:09Z</time>
      </trkpt>
      <trkpt lat="45.08126" lon="6.13184">
        <ele>1824.72</ele>
        <time>2013-07-14T08:52:11Z</time>
      </trkpt>
      <trkpt lat="45.08121" lon="6.13187">
        <ele>1824.24</ele>
        <time>2013-07-14T08:52:28Z</time>
      </trkpt>
      <trkpt lat="45.0812" lon="6.13188">
        <ele>1823.76</ele>
        <time>2013-07-14T08:52:38Z</time>
      </trkpt>
      <trkpt lat="45.08119" lon="6.13186">
        <ele>1824.24</ele>
        <time>2013-07-14T08:52:55Z</time>
      </trkpt>
      <trkpt lat="45.08119" lon="6.13185">
        <ele>1824.72</ele>
        <time>2013-07-14T08:55:16Z</time>
      </trkpt>
      <trkpt lat="45.08118" lon="6.13186">
        <ele>1826.16</ele>
        <time>2013-07-14T08:56:35Z</time>
      </trkpt>
      <trkpt lat="45.08119" lon="6.13186">
        <ele>1826.16</ele>
        <time>2013-07-14T08:57:37Z</time>
      </trkpt>
      <trkpt lat="45.08119" lon="6.13186">
        <ele>1826.16</ele>
        <time>2013-07-14T08:58:11Z</time>
      </trkpt>
      <trkpt lat="45.08121" lon="6.1319">
        <ele>1826.16</ele>
        <time>2013-07-14T08:58:29Z</time>
      </trkpt>
      <trkpt lat="45.0812" lon="6.1319">
        <ele>1826.64</ele>
        <time>2013-07-14T08:59:22Z</time>
      </trkpt>
      <trkpt lat="45.08119" lon="6.13194">
        <ele>1827.12</ele>
        <time>2013-07-14T08:59:26Z</time>
      </trkpt>
      <trkpt lat="45.08106" lon="6.13213">
        <ele>1827.6</ele>
        <time>2013-07-14T08:59:43Z</time>
      </trkpt>
      <trkpt lat="45.0809" lon="6.13218">
        <ele>1829.05</ele>
        <time>2013-07-14T08:59:59Z</time>
      </trkpt>
      <trkpt lat="45.08072" lon="6.13219">
        <ele>1830.49</ele>
        <time>2013-07-14T09:00:16Z</time>
      </trkpt>
      <trkpt lat="45.08059" lon="6.13216">
        <ele>1831.93</ele>
        <time>2013-07-14T09:00:31Z</time>
      </trkpt>
      <trkpt lat="45.08047" lon="6.13202">
        <ele>1832.89</ele>
        <time>2013-07-14T09:00:47Z</time>
      </trkpt>
      <trkpt lat="45.08037" lon="6.13182">
        <ele>1833.85</ele>
        <time>2013-07-14T09:01:05Z</time>
      </trkpt>
      <trkpt lat="45.08031" lon="6.13169">
        <ele>1835.29</ele>
        <time>2013-07-14T09:01:17Z</time>
      </trkpt>
      <trkpt lat="45.08023" lon="6.13155">
        <ele>1835.77</ele>
        <time>2013-07-14T09:01:31Z</time>
      </trkpt>
      <trkpt lat="45.08015" lon="6.13138">
        <ele>1838.18</ele>
        <time>2013-07-14T09:01:49Z</time>
      </trkpt>
      <trkpt lat="45.08003" lon="6.1313">
        <ele>1839.14</ele>
        <time>2013-07-14T09:02:03Z</time>
      </trkpt>
      <trkpt lat="45.07996" lon="6.13127">
        <ele>1841.54</ele>
        <time>2013-07-14T09:02:17Z</time>
      </trkpt>
      <trkpt lat="45.07987" lon="6.13131">
        <ele>1842.98</ele>
        <time>2013-07-14T09:02:30Z</time>
      </trkpt>
      <trkpt lat="45.07979" lon="6.13143">
        <ele>1844.91</ele>
        <time>2013-07-14T09:02:47Z</time>
      </trkpt>
      <trkpt lat="45.07973" lon="6.13166">
        <ele>1845.87</ele>
        <time>2013-07-14T09:03:05Z</time>
      </trkpt>
      <trkpt lat="45.07969" lon="6.13179">
        <ele>1846.35</ele>
        <time>2013-07-14T09:03:18Z</time>
      </trkpt>
      <trkpt lat="45.07965" lon="6.13197">
        <ele>1847.79</ele>
        <time>2013-07-14T09:03:34Z</time>
      </trkpt>
      <trkpt lat="45.07964" lon="6.13219">
        <ele>1849.23</ele>
        <time>2013-07-14T09:03:51Z</time>
      </trkpt>
      <trkpt lat="45.07964" lon="6.13229">
        <ele>1849.71</ele>
        <time>2013-07-14T09:04:06Z</time>
      </trkpt>
      <trkpt lat="45.07964" lon="6.13229">
        <ele>1857.4</ele>
        <time>2013-07-14T09:04:17Z</time>
      </trkpt>
      <trkpt lat="45.07964" lon="6.13229">
        <ele>1852.6</ele>
        <time>2013-07-14T09:04:18Z</time>
      </trkpt>
      <trkpt lat="45.07964" lon="6.1323">
        <ele>1855.48</ele>
        <time>2013-07-14T09:04:20Z</time>
      </trkpt>
      <trkpt lat="45.07965" lon="6.13231">
        <ele>1852.6</ele>
        <time>2013-07-14T09:04:21Z</time>
      </trkpt>
      <trkpt lat="45.07965" lon="6.13232">
        <ele>1855.48</ele>
        <time>2013-07-14T09:04:22Z</time>
      </trkpt>
      <trkpt lat="45.07965" lon="6.13235">
        <ele>1851.16</ele>
        <time>2013-07-14T09:04:24Z</time>
      </trkpt>
      <trkpt lat="45.07965" lon="6.13236">
        <ele>1851.16</ele>
        <time>2013-07-14T09:04:25Z</time>
      </trkpt>
      <trkpt lat="45.07965" lon="6.13244">
        <ele>1851.16</ele>
        <time>2013-07-14T09:04:31Z</time>
      </trkpt>
      <trkpt lat="45.0797" lon="6.13265">
        <ele>1853.56</ele>
        <time>2013-07-14T09:04:48Z</time>
      </trkpt>
      <trkpt lat="45.07978" lon="6.13284">
        <ele>1855</ele>
        <time>2013-07-14T09:05:05Z</time>
      </trkpt>
      <trkpt lat="45.07986" lon="6.13301">
        <ele>1856.44</ele>
        <time>2013-07-14T09:05:20Z</time>
      </trkpt>
      <trkpt lat="45.07993" lon="6.13319">
        <ele>1857.4</ele>
        <time>2013-07-14T09:05:35Z</time>
      </trkpt>
      <trkpt lat="45.08" lon="6.1334">
        <ele>1858.85</ele>
        <time>2013-07-14T09:05:52Z</time>
      </trkpt>
      <trkpt lat="45.08006" lon="6.1336">
        <ele>1860.29</ele>
        <time>2013-07-14T09:06:08Z</time>
      </trkpt>
      <trkpt lat="45.08007" lon="6.13364">
        <ele>1860.29</ele>
        <time>2013-07-14T09:06:11Z</time>
      </trkpt>
      <trkpt lat="45.08009" lon="6.1337">
        <ele>1860.77</ele>
        <time>2013-07-14T09:06:16Z</time>
      </trkpt>
      <trkpt lat="45.08009" lon="6.13373">
        <ele>1860.29</ele>
        <time>2013-07-14T09:06:18Z</time>
      </trkpt>
      <trkpt lat="45.08012" lon="6.13385">
        <ele>1861.73</ele>
        <time>2013-07-14T09:06:28Z</time>
      </trkpt>
      <trkpt lat="45.08013" lon="6.13388">
        <ele>1861.73</ele>
        <time>2013-07-14T09:06:30Z</time>
      </trkpt>
      <trkpt lat="45.08018" lon="6.13407">
        <ele>1863.17</ele>
        <time>2013-07-14T09:06:45Z</time>
      </trkpt>
      <trkpt lat="45.08021" lon="6.13418">
        <ele>1864.61</ele>
        <time>2013-07-14T09:06:55Z</time>
      </trkpt>
      <trkpt lat="45.08026" lon="6.13433">
        <ele>1865.09</ele>
        <time>2013-07-14T09:07:07Z</time>
      </trkpt>
      <trkpt lat="45.08029" lon="6.13443">
        <ele>1865.58</ele>
        <time>2013-07-14T09:07:15Z</time>
      </trkpt>
      <trkpt lat="45.08031" lon="6.13449">
        <ele>1866.06</ele>
        <time>2013-07-14T09:07:20Z</time>
      </trkpt>
      <trkpt lat="45.08037" lon="6.13468">
        <ele>1867.5</ele>
        <time>2013-07-14T09:07:36Z</time>
      </trkpt>
      <trkpt lat="45.0804" lon="6.13474">
        <ele>1867.98</ele>
        <time>2013-07-14T09:07:41Z</time>
      </trkpt>
      <trkpt lat="45.08046" lon="6.13493">
        <ele>1869.42</ele>
        <time>2013-07-14T09:07:57Z</time>
      </trkpt>
      <trkpt lat="45.0805" lon="6.13508">
        <ele>1870.86</ele>
        <time>2013-07-14T09:08:09Z</time>
      </trkpt>
      <trkpt lat="45.08056" lon="6.1353">
        <ele>1871.82</ele>
        <time>2013-07-14T09:08:26Z</time>
      </trkpt>
      <trkpt lat="45.08062" lon="6.13549">
        <ele>1873.75</ele>
        <time>2013-07-14T09:08:41Z</time>
      </trkpt>
      <trkpt lat="45.08064" lon="6.13556">
        <ele>1874.71</ele>
        <time>2013-07-14T09:08:47Z</time>
      </trkpt>
      <trkpt lat="45.08067" lon="6.13577">
        <ele>1876.15</ele>
        <time>2013-07-14T09:09:03Z</time>
      </trkpt>
      <trkpt lat="45.08068" lon="6.13601">
        <ele>1878.07</ele>
        <time>2013-07-14T09:09:22Z</time>
      </trkpt>
      <trkpt lat="45.08069" lon="6.13623">
        <ele>1880.48</ele>
        <time>2013-07-14T09:09:40Z</time>
      </trkpt>
      <trkpt lat="45.08069" lon="6.13645">
        <ele>1881.92</ele>
        <time>2013-07-14T09:09:57Z</time>
      </trkpt>
      <trkpt lat="45.08069" lon="6.13651">
        <ele>1881.92</ele>
        <time>2013-07-14T09:10:02Z</time>
      </trkpt>
      <trkpt lat="45.0807" lon="6.13654">
        <ele>1881.92</ele>
        <time>2013-07-14T09:10:04Z</time>
      </trkpt>
      <trkpt lat="45.0807" lon="6.13676">
        <ele>1883.84</ele>
        <time>2013-07-14T09:10:21Z</time>
      </trkpt>
      <trkpt lat="45.08071" lon="6.13699">
        <ele>1886.24</ele>
        <time>2013-07-14T09:10:38Z</time>
      </trkpt>
      <trkpt lat="45.08073" lon="6.13704">
        <ele>1886.24</ele>
        <time>2013-07-14T09:10:43Z</time>
      </trkpt>
      <trkpt lat="45.08076" lon="6.13726">
        <ele>1887.69</ele>
        <time>2013-07-14T09:11:00Z</time>
      </trkpt>
      <trkpt lat="45.08077" lon="6.13749">
        <ele>1889.61</ele>
        <time>2013-07-14T09:11:20Z</time>
      </trkpt>
      <trkpt lat="45.08081" lon="6.13771">
        <ele>1891.05</ele>
        <time>2013-07-14T09:11:36Z</time>
      </trkpt>
      <trkpt lat="45.08081" lon="6.13772">
        <ele>1891.53</ele>
        <time>2013-07-14T09:11:37Z</time>
      </trkpt>
      <trkpt lat="45.08083" lon="6.13791">
        <ele>1892.49</ele>
        <time>2013-07-14T09:11:53Z</time>
      </trkpt>
      <trkpt lat="45.08084" lon="6.13795">
        <ele>1892.49</ele>
        <time>2013-07-14T09:11:56Z</time>
      </trkpt>
      <trkpt lat="45.08085" lon="6.13819">
        <ele>1894.42</ele>
        <time>2013-07-14T09:12:14Z</time>
      </trkpt>
      <trkpt lat="45.08089" lon="6.13838">
        <ele>1896.82</ele>
        <time>2013-07-14T09:12:30Z</time>
      </trkpt>
      <trkpt lat="45.08092" lon="6.13861">
        <ele>1898.26</ele>
        <time>2013-07-14T09:12:48Z</time>
      </trkpt>
      <trkpt lat="45.08097" lon="6.13877">
        <ele>1899.22</ele>
        <time>2013-07-14T09:13:03Z</time>
      </trkpt>
      <trkpt lat="45.08101" lon="6.13893">
        <ele>1901.14</ele>
        <time>2013-07-14T09:13:18Z</time>
      </trkpt>
      <trkpt lat="45.08101" lon="6.139">
        <ele>1901.63</ele>
        <time>2013-07-14T09:13:23Z</time>
      </trkpt>
      <trkpt lat="45.08106" lon="6.1392">
        <ele>1903.55</ele>
        <time>2013-07-14T09:13:40Z</time>
      </trkpt>
      <trkpt lat="45.08113" lon="6.13939">
        <ele>1904.99</ele>
        <time>2013-07-14T09:13:57Z</time>
      </trkpt>
      <trkpt lat="45.08116" lon="6.13948">
        <ele>1906.43</ele>
        <time>2013-07-14T09:14:05Z</time>
      </trkpt>
      <trkpt lat="45.08124" lon="6.1397">
        <ele>1908.35</ele>
        <time>2013-07-14T09:14:22Z</time>
      </trkpt>
      <trkpt lat="45.08129" lon="6.13989">
        <ele>1909.8</ele>
        <time>2013-07-14T09:14:38Z</time>
      </trkpt>
      <trkpt lat="45.08136" lon="6.1401">
        <ele>1911.72</ele>
        <time>2013-07-14T09:14:55Z</time>
      </trkpt>
      <trkpt lat="45.08142" lon="6.14029">
        <ele>1913.16</ele>
        <time>2013-07-14T09:15:10Z</time>
      </trkpt>
      <trkpt lat="45.0815" lon="6.14047">
        <ele>1915.08</ele>
        <time>2013-07-14T09:15:27Z</time>
      </trkpt>
      <trkpt lat="45.08156" lon="6.14063">
        <ele>1916.53</ele>
        <time>2013-07-14T09:15:41Z</time>
      </trkpt>
      <trkpt lat="45.08162" lon="6.1408">
        <ele>1917.97</ele>
        <time>2013-07-14T09:15:56Z</time>
      </trkpt>
      <trkpt lat="45.08168" lon="6.14098">
        <ele>1918.93</ele>
        <time>2013-07-14T09:16:11Z</time>
      </trkpt>
      <trkpt lat="45.08172" lon="6.14117">
        <ele>1921.33</ele>
        <time>2013-07-14T09:16:26Z</time>
      </trkpt>
      <trkpt lat="45.08173" lon="6.14121">
        <ele>1921.33</ele>
        <time>2013-07-14T09:16:29Z</time>
      </trkpt>
      <trkpt lat="45.08176" lon="6.14138">
        <ele>1924.7</ele>
        <time>2013-07-14T09:16:43Z</time>
      </trkpt>
      <trkpt lat="45.08178" lon="6.14141">
        <ele>1914.12</ele>
        <time>2013-07-14T09:16:46Z</time>
      </trkpt>
      <trkpt lat="45.08178" lon="6.14142">
        <ele>1925.18</ele>
        <time>2013-07-14T09:16:47Z</time>
      </trkpt>
      <trkpt lat="45.08178" lon="6.14144">
        <ele>1916.04</ele>
        <time>2013-07-14T09:16:48Z</time>
      </trkpt>
      <trkpt lat="45.08179" lon="6.14148">
        <ele>1929.5</ele>
        <time>2013-07-14T09:16:51Z</time>
      </trkpt>
      <trkpt lat="45.0818" lon="6.14149">
        <ele>1924.7</ele>
        <time>2013-07-14T09:16:52Z</time>
      </trkpt>
      <trkpt lat="45.0818" lon="6.1415">
        <ele>1924.22</ele>
        <time>2013-07-14T09:16:53Z</time>
      </trkpt>
      <trkpt lat="45.08183" lon="6.14169">
        <ele>1925.18</ele>
        <time>2013-07-14T09:17:07Z</time>
      </trkpt>
      <trkpt lat="45.08186" lon="6.14189">
        <ele>1926.62</ele>
        <time>2013-07-14T09:17:23Z</time>
      </trkpt>
      <trkpt lat="45.08191" lon="6.14204">
        <ele>1928.54</ele>
        <time>2013-07-14T09:17:36Z</time>
      </trkpt>
      <trkpt lat="45.08195" lon="6.14214">
        <ele>1929.5</ele>
        <time>2013-07-14T09:17:44Z</time>
      </trkpt>
      <trkpt lat="45.08199" lon="6.14223">
        <ele>1929.5</ele>
        <time>2013-07-14T09:17:52Z</time>
      </trkpt>
      <trkpt lat="45.082" lon="6.14227">
        <ele>1929.98</ele>
        <time>2013-07-14T09:17:55Z</time>
      </trkpt>
      <trkpt lat="45.08213" lon="6.14247">
        <ele>1932.39</ele>
        <time>2013-07-14T09:18:15Z</time>
      </trkpt>
      <trkpt lat="45.08217" lon="6.14253">
        <ele>1933.35</ele>
        <time>2013-07-14T09:18:21Z</time>
      </trkpt>
      <trkpt lat="45.08227" lon="6.14266">
        <ele>1934.79</ele>
        <time>2013-07-14T09:18:36Z</time>
      </trkpt>
      <trkpt lat="45.08239" lon="6.14282">
        <ele>1936.71</ele>
        <time>2013-07-14T09:18:53Z</time>
      </trkpt>
      <trkpt lat="45.08249" lon="6.14302">
        <ele>1939.12</ele>
        <time>2013-07-14T09:19:11Z</time>
      </trkpt>
      <trkpt lat="45.0825" lon="6.14303">
        <ele>1939.6</ele>
        <time>2013-07-14T09:19:12Z</time>
      </trkpt>
      <trkpt lat="45.08261" lon="6.14321">
        <ele>1942</ele>
        <time>2013-07-14T09:19:29Z</time>
      </trkpt>
      <trkpt lat="45.08263" lon="6.14326">
        <ele>1942</ele>
        <time>2013-07-14T09:19:34Z</time>
      </trkpt>
      <trkpt lat="45.0827" lon="6.14341">
        <ele>1943.44</ele>
        <time>2013-07-14T09:19:48Z</time>
      </trkpt>
      <trkpt lat="45.08282" lon="6.14359">
        <ele>1945.85</ele>
        <time>2013-07-14T09:20:07Z</time>
      </trkpt>
      <trkpt lat="45.08295" lon="6.14377">
        <ele>1947.77</ele>
        <time>2013-07-14T09:20:26Z</time>
      </trkpt>
      <trkpt lat="45.08307" lon="6.14393">
        <ele>1949.21</ele>
        <time>2013-07-14T09:20:43Z</time>
      </trkpt>
      <trkpt lat="45.08309" lon="6.14397">
        <ele>1949.69</ele>
        <time>2013-07-14T09:20:47Z</time>
      </trkpt>
      <trkpt lat="45.08311" lon="6.14399">
        <ele>1951.13</ele>
        <time>2013-07-14T09:20:49Z</time>
      </trkpt>
      <trkpt lat="45.08312" lon="6.14402">
        <ele>1950.65</ele>
        <time>2013-07-14T09:20:52Z</time>
      </trkpt>
      <trkpt lat="45.08321" lon="6.14417">
        <ele>1952.57</ele>
        <time>2013-07-14T09:21:07Z</time>
      </trkpt>
      <trkpt lat="45.08324" lon="6.14421">
        <ele>1952.57</ele>
        <time>2013-07-14T09:21:12Z</time>
      </trkpt>
      <trkpt lat="45.08326" lon="6.14424">
        <ele>1953.06</ele>
        <time>2013-07-14T09:21:15Z</time>
      </trkpt>
      <trkpt lat="45.08333" lon="6.14435">
        <ele>1954.98</ele>
        <time>2013-07-14T09:21:26Z</time>
      </trkpt>
      <trkpt lat="45.08345" lon="6.14452">
        <ele>1955.94</ele>
        <time>2013-07-14T09:21:43Z</time>
      </trkpt>
      <trkpt lat="45.08354" lon="6.14469">
        <ele>1956.9</ele>
        <time>2013-07-14T09:21:59Z</time>
      </trkpt>
      <trkpt lat="45.08357" lon="6.14473">
        <ele>1957.38</ele>
        <time>2013-07-14T09:22:04Z</time>
      </trkpt>
      <trkpt lat="45.08363" lon="6.14483">
        <ele>1958.34</ele>
        <time>2013-07-14T09:22:13Z</time>
      </trkpt>
      <trkpt lat="45.08365" lon="6.14487">
        <ele>1958.82</ele>
        <time>2013-07-14T09:22:16Z</time>
      </trkpt>
      <trkpt lat="45.08375" lon="6.14506">
        <ele>1960.27</ele>
        <time>2013-07-14T09:22:34Z</time>
      </trkpt>
      <trkpt lat="45.08377" lon="6.1451">
        <ele>1960.75</ele>
        <time>2013-07-14T09:22:37Z</time>
      </trkpt>
      <trkpt lat="45.08386" lon="6.14528">
        <ele>1961.71</ele>
        <time>2013-07-14T09:22:53Z</time>
      </trkpt>
      <trkpt lat="45.08389" lon="6.14533">
        <ele>1962.19</ele>
        <time>2013-07-14T09:22:57Z</time>
      </trkpt>
      <trkpt lat="45.08391" lon="6.14538">
        <ele>1962.19</ele>
        <time>2013-07-14T09:23:01Z</time>
      </trkpt>
      <trkpt lat="45.08403" lon="6.14556">
        <ele>1963.15</ele>
        <time>2013-07-14T09:23:18Z</time>
      </trkpt>
      <trkpt lat="45.08404" lon="6.14558">
        <ele>1963.15</ele>
        <time>2013-07-14T09:23:20Z</time>
      </trkpt>
      <trkpt lat="45.08406" lon="6.14559">
        <ele>1963.63</ele>
        <time>2013-07-14T09:23:22Z</time>
      </trkpt>
      <trkpt lat="45.08414" lon="6.14576">
        <ele>1964.59</ele>
        <time>2013-07-14T09:23:37Z</time>
      </trkpt>
      <trkpt lat="45.08418" lon="6.1458">
        <ele>1964.11</ele>
        <time>2013-07-14T09:23:41Z</time>
      </trkpt>
      <trkpt lat="45.0842" lon="6.14582">
        <ele>1965.55</ele>
        <time>2013-07-14T09:23:44Z</time>
      </trkpt>
      <trkpt lat="45.08421" lon="6.14583">
        <ele>1966.03</ele>
        <time>2013-07-14T09:23:45Z</time>
      </trkpt>
      <trkpt lat="45.08428" lon="6.14593">
        <ele>1965.55</ele>
        <time>2013-07-14T09:23:55Z</time>
      </trkpt>
      <trkpt lat="45.08432" lon="6.14596">
        <ele>1966.03</ele>
        <time>2013-07-14T09:23:59Z</time>
      </trkpt>
      <trkpt lat="45.08436" lon="6.14601">
        <ele>1966.51</ele>
        <time>2013-07-14T09:24:04Z</time>
      </trkpt>
      <trkpt lat="45.0844" lon="6.14606">
        <ele>1966.99</ele>
        <time>2013-07-14T09:24:09Z</time>
      </trkpt>
      <trkpt lat="45.08443" lon="6.14612">
        <ele>1968.44</ele>
        <time>2013-07-14T09:24:14Z</time>
      </trkpt>
      <trkpt lat="45.08457" lon="6.1463">
        <ele>1968.44</ele>
        <time>2013-07-14T09:24:32Z</time>
      </trkpt>
      <trkpt lat="45.08458" lon="6.14632">
        <ele>1969.88</ele>
        <time>2013-07-14T09:24:34Z</time>
      </trkpt>
      <trkpt lat="45.08466" lon="6.14644">
        <ele>1969.88</ele>
        <time>2013-07-14T09:24:45Z</time>
      </trkpt>
      <trkpt lat="45.08468" lon="6.14649">
        <ele>1969.88</ele>
        <time>2013-07-14T09:24:49Z</time>
      </trkpt>
      <trkpt lat="45.08473" lon="6.14655">
        <ele>1970.36</ele>
        <time>2013-07-14T09:24:55Z</time>
      </trkpt>
      <trkpt lat="45.08475" lon="6.14657">
        <ele>1970.84</ele>
        <time>2013-07-14T09:24:57Z</time>
      </trkpt>
      <trkpt lat="45.08478" lon="6.14663">
        <ele>1970.84</ele>
        <time>2013-07-14T09:25:02Z</time>
      </trkpt>
      <trkpt lat="45.08489" lon="6.14682">
        <ele>1971.8</ele>
        <time>2013-07-14T09:25:19Z</time>
      </trkpt>
      <trkpt lat="45.0849" lon="6.14684">
        <ele>1971.8</ele>
        <time>2013-07-14T09:25:20Z</time>
      </trkpt>
      <trkpt lat="45.08497" lon="6.14694">
        <ele>1972.76</ele>
        <time>2013-07-14T09:25:30Z</time>
      </trkpt>
      <trkpt lat="45.08503" lon="6.14704">
        <ele>1973.24</ele>
        <time>2013-07-14T09:25:39Z</time>
      </trkpt>
      <trkpt lat="45.08505" lon="6.14705">
        <ele>1973.24</ele>
        <time>2013-07-14T09:25:41Z</time>
      </trkpt>
      <trkpt lat="45.08518" lon="6.14723">
        <ele>1974.69</ele>
        <time>2013-07-14T09:25:58Z</time>
      </trkpt>
      <trkpt lat="45.08535" lon="6.14739">
        <ele>1976.13</ele>
        <time>2013-07-14T09:26:17Z</time>
      </trkpt>
      <trkpt lat="45.08553" lon="6.14753">
        <ele>1976.61</ele>
        <time>2013-07-14T09:26:37Z</time>
      </trkpt>
      <trkpt lat="45.08569" lon="6.14766">
        <ele>1978.53</ele>
        <time>2013-07-14T09:26:56Z</time>
      </trkpt>
      <trkpt lat="45.08582" lon="6.14785">
        <ele>1979.49</ele>
        <time>2013-07-14T09:27:13Z</time>
      </trkpt>
      <trkpt lat="45.08592" lon="6.14801">
        <ele>1980.93</ele>
        <time>2013-07-14T09:27:29Z</time>
      </trkpt>
      <trkpt lat="45.086" lon="6.14814">
        <ele>1981.41</ele>
        <time>2013-07-14T09:27:45Z</time>
      </trkpt>
      <trkpt lat="45.086" lon="6.14816">
        <ele>1981.9</ele>
        <time>2013-07-14T09:27:49Z</time>
      </trkpt>
      <trkpt lat="45.08612" lon="6.1483">
        <ele>1982.38</ele>
        <time>2013-07-14T09:28:04Z</time>
      </trkpt>
      <trkpt lat="45.08627" lon="6.14849">
        <ele>1982.86</ele>
        <time>2013-07-14T09:28:23Z</time>
      </trkpt>
      <trkpt lat="45.08642" lon="6.14862">
        <ele>1984.78</ele>
        <time>2013-07-14T09:28:39Z</time>
      </trkpt>
      <trkpt lat="45.08645" lon="6.14866">
        <ele>1985.74</ele>
        <time>2013-07-14T09:28:44Z</time>
      </trkpt>
      <trkpt lat="45.08648" lon="6.14867">
        <ele>1985.26</ele>
        <time>2013-07-14T09:28:47Z</time>
      </trkpt>
      <trkpt lat="45.08664" lon="6.14878">
        <ele>1986.7</ele>
        <time>2013-07-14T09:29:03Z</time>
      </trkpt>
      <trkpt lat="45.08682" lon="6.14891">
        <ele>1987.66</ele>
        <time>2013-07-14T09:29:21Z</time>
      </trkpt>
      <trkpt lat="45.08698" lon="6.14899">
        <ele>1989.59</ele>
        <time>2013-07-14T09:29:38Z</time>
      </trkpt>
      <trkpt lat="45.08713" lon="6.14905">
        <ele>1991.51</ele>
        <time>2013-07-14T09:29:55Z</time>
      </trkpt>
      <trkpt lat="45.0873" lon="6.14906">
        <ele>1992.47</ele>
        <time>2013-07-14T09:30:12Z</time>
      </trkpt>
      <trkpt lat="45.08743" lon="6.14898">
        <ele>1994.39</ele>
        <time>2013-07-14T09:30:27Z</time>
      </trkpt>
      <trkpt lat="45.08754" lon="6.14899">
        <ele>1995.35</ele>
        <time>2013-07-14T09:30:44Z</time>
      </trkpt>
      <trkpt lat="45.08755" lon="6.14899">
        <ele>1995.83</ele>
        <time>2013-07-14T09:31:10Z</time>
      </trkpt>
      <trkpt lat="45.08755" lon="6.14899">
        <ele>1994.87</ele>
        <time>2013-07-14T09:31:12Z</time>
      </trkpt>
      <trkpt lat="45.08756" lon="6.14899">
        <ele>1995.83</ele>
        <time>2013-07-14T09:35:54Z</time>
      </trkpt>
      <trkpt lat="45.08756" lon="6.14899">
        <ele>1996.8</ele>
        <time>2013-07-14T09:39:17Z</time>
      </trkpt>
      <trkpt lat="45.08755" lon="6.149">
        <ele>1997.28</ele>
        <time>2013-07-14T09:42:40Z</time>
      </trkpt>
      <trkpt lat="45.08755" lon="6.14901">
        <ele>1998.24</ele>
        <time>2013-07-14T09:44:38Z</time>
      </trkpt>
      <trkpt lat="45.08754" lon="6.14903">
        <ele>1999.2</ele>
        <time>2013-07-14T09:44:58Z</time>
      </trkpt>
      <trkpt lat="45.08751" lon="6.14903">
        <ele>1998.72</ele>
        <time>2013-07-14T09:45:35Z</time>
      </trkpt>
      <trkpt lat="45.08751" lon="6.14902">
        <ele>1999.2</ele>
        <time>2013-07-14T09:46:20Z</time>
      </trkpt>
      <trkpt lat="45.08752" lon="6.14901">
        <ele>1999.68</ele>
        <time>2013-07-14T09:46:36Z</time>
      </trkpt>
      <trkpt lat="45.08756" lon="6.14902">
        <ele>1999.68</ele>
        <time>2013-07-14T09:46:50Z</time>
      </trkpt>
      <trkpt lat="45.08754" lon="6.14899">
        <ele>1999.68</ele>
        <time>2013-07-14T09:47:12Z</time>
      </trkpt>
      <trkpt lat="45.08755" lon="6.149">
        <ele>1999.2</ele>
        <time>2013-07-14T09:47:37Z</time>
      </trkpt>
      <trkpt lat="45.08758" lon="6.14899">
        <ele>1999.68</ele>
        <time>2013-07-14T09:47:59Z</time>
      </trkpt>
      <trkpt lat="45.08768" lon="6.14903">
        <ele>1998.72</ele>
        <time>2013-07-14T09:48:46Z</time>
      </trkpt>
      <trkpt lat="45.0877" lon="6.14905">
        <ele>1997.76</ele>
        <time>2013-07-14T09:48:50Z</time>
      </trkpt>
      <trkpt lat="45.08771" lon="6.14909">
        <ele>1997.76</ele>
        <time>2013-07-14T09:48:53Z</time>
      </trkpt>
      <trkpt lat="45.08787" lon="6.14917">
        <ele>1996.32</ele>
        <time>2013-07-14T09:49:11Z</time>
      </trkpt>
      <trkpt lat="45.08806" lon="6.14921">
        <ele>1994.87</ele>
        <time>2013-07-14T09:49:28Z</time>
      </trkpt>
      <trkpt lat="45.0882" lon="6.14929">
        <ele>1988.14</ele>
        <time>2013-07-14T09:49:42Z</time>
      </trkpt>
      <trkpt lat="45.08821" lon="6.14929">
        <ele>1991.03</ele>
        <time>2013-07-14T09:49:43Z</time>
      </trkpt>
      <trkpt lat="45.08822" lon="6.14931">
        <ele>1992.95</ele>
        <time>2013-07-14T09:49:45Z</time>
      </trkpt>
      <trkpt lat="45.08832" lon="6.14935">
        <ele>1983.82</ele>
        <time>2013-07-14T09:49:56Z</time>
      </trkpt>
      <trkpt lat="45.08839" lon="6.1494">
        <ele>1990.55</ele>
        <time>2013-07-14T09:50:05Z</time>
      </trkpt>
      <trkpt lat="45.08843" lon="6.14941">
        <ele>1986.22</ele>
        <time>2013-07-14T09:50:13Z</time>
      </trkpt>
      <trkpt lat="45.08844" lon="6.14941">
        <ele>1990.55</ele>
        <time>2013-07-14T09:50:14Z</time>
      </trkpt>
      <trkpt lat="45.08858" lon="6.14944">
        <ele>1982.86</ele>
        <time>2013-07-14T09:50:26Z</time>
      </trkpt>
      <trkpt lat="45.08859" lon="6.14944">
        <ele>1990.07</ele>
        <time>2013-07-14T09:50:27Z</time>
      </trkpt>
      <trkpt lat="45.0886" lon="6.14944">
        <ele>1994.39</ele>
        <time>2013-07-14T09:50:28Z</time>
      </trkpt>
      <trkpt lat="45.08861" lon="6.14944">
        <ele>1991.51</ele>
        <time>2013-07-14T09:50:29Z</time>
      </trkpt>
      <trkpt lat="45.08862" lon="6.14944">
        <ele>1989.1</ele>
        <time>2013-07-14T09:50:30Z</time>
      </trkpt>
      <trkpt lat="45.08871" lon="6.14943">
        <ele>1988.14</ele>
        <time>2013-07-14T09:50:37Z</time>
      </trkpt>
      <trkpt lat="45.08874" lon="6.14943">
        <ele>1986.7</ele>
        <time>2013-07-14T09:50:40Z</time>
      </trkpt>
      <trkpt lat="45.08885" lon="6.14938">
        <ele>1986.7</ele>
        <time>2013-07-14T09:50:52Z</time>
      </trkpt>
      <trkpt lat="45.08894" lon="6.14926">
        <ele>1985.74</ele>
        <time>2013-07-14T09:51:01Z</time>
      </trkpt>
      <trkpt lat="45.08907" lon="6.14919">
        <ele>1984.78</ele>
        <time>2013-07-14T09:51:16Z</time>
      </trkpt>
      <trkpt lat="45.08923" lon="6.14919">
        <ele>1983.82</ele>
        <time>2013-07-14T09:51:30Z</time>
      </trkpt>
      <trkpt lat="45.08932" lon="6.14923">
        <ele>1983.34</ele>
        <time>2013-07-14T09:51:39Z</time>
      </trkpt>
      <trkpt lat="45.08948" lon="6.14929">
        <ele>1981.9</ele>
        <time>2013-07-14T09:51:53Z</time>
      </trkpt>
      <trkpt lat="45.08967" lon="6.1492">
        <ele>1980.45</ele>
        <time>2013-07-14T09:52:09Z</time>
      </trkpt>
      <trkpt lat="45.08971" lon="6.14918">
        <ele>1979.49</ele>
        <time>2013-07-14T09:52:14Z</time>
      </trkpt>
      <trkpt lat="45.08976" lon="6.14908">
        <ele>1978.53</ele>
        <time>2013-07-14T09:52:22Z</time>
      </trkpt>
      <trkpt lat="45.08989" lon="6.14898">
        <ele>1977.57</ele>
        <time>2013-07-14T09:52:35Z</time>
      </trkpt>
      <trkpt lat="45.09003" lon="6.14888">
        <ele>1975.65</ele>
        <time>2013-07-14T09:52:50Z</time>
      </trkpt>
      <trkpt lat="45.09017" lon="6.14874">
        <ele>1974.2</ele>
        <time>2013-07-14T09:53:05Z</time>
      </trkpt>
      <trkpt lat="45.09035" lon="6.14867">
        <ele>1971.8</ele>
        <time>2013-07-14T09:53:20Z</time>
      </trkpt>
      <trkpt lat="45.09037" lon="6.14868">
        <ele>1971.32</ele>
        <time>2013-07-14T09:53:22Z</time>
      </trkpt>
      <trkpt lat="45.09036" lon="6.14876">
        <ele>1970.36</ele>
        <time>2013-07-14T09:53:26Z</time>
      </trkpt>
      <trkpt lat="45.09031" lon="6.14882">
        <ele>1969.4</ele>
        <time>2013-07-14T09:53:32Z</time>
      </trkpt>
      <trkpt lat="45.09015" lon="6.14896">
        <ele>1968.44</ele>
        <time>2013-07-14T09:53:50Z</time>
      </trkpt>
      <trkpt lat="45.09011" lon="6.14902">
        <ele>1966.99</ele>
        <time>2013-07-14T09:53:56Z</time>
      </trkpt>
      <trkpt lat="45.09008" lon="6.14906">
        <ele>1966.99</ele>
        <time>2013-07-14T09:54:00Z</time>
      </trkpt>
      <trkpt lat="45.08996" lon="6.14927">
        <ele>1963.63</ele>
        <time>2013-07-14T09:54:16Z</time>
      </trkpt>
      <trkpt lat="45.08994" lon="6.14931">
        <ele>1963.15</ele>
        <time>2013-07-14T09:54:20Z</time>
      </trkpt>
      <trkpt lat="45.08993" lon="6.14943">
        <ele>1961.71</ele>
        <time>2013-07-14T09:54:27Z</time>
      </trkpt>
      <trkpt lat="45.08996" lon="6.14947">
        <ele>1962.67</ele>
        <time>2013-07-14T09:54:30Z</time>
      </trkpt>
      <trkpt lat="45.09002" lon="6.14952">
        <ele>1962.19</ele>
        <time>2013-07-14T09:54:36Z</time>
      </trkpt>
      <trkpt lat="45.09014" lon="6.14944">
        <ele>1959.3</ele>
        <time>2013-07-14T09:54:50Z</time>
      </trkpt>
      <trkpt lat="45.09016" lon="6.14938">
        <ele>1958.82</ele>
        <time>2013-07-14T09:54:54Z</time>
      </trkpt>
      <trkpt lat="45.09019" lon="6.14934">
        <ele>1959.3</ele>
        <time>2013-07-14T09:54:57Z</time>
      </trkpt>
      <trkpt lat="45.09022" lon="6.14926">
        <ele>1958.34</ele>
        <time>2013-07-14T09:55:02Z</time>
      </trkpt>
      <trkpt lat="45.09026" lon="6.14921">
        <ele>1957.38</ele>
        <time>2013-07-14T09:55:07Z</time>
      </trkpt>
      <trkpt lat="45.09033" lon="6.14914">
        <ele>1956.42</ele>
        <time>2013-07-14T09:55:13Z</time>
      </trkpt>
      <trkpt lat="45.09039" lon="6.14913">
        <ele>1955.94</ele>
        <time>2013-07-14T09:55:18Z</time>
      </trkpt>
      <trkpt lat="45.09049" lon="6.1491">
        <ele>1955.46</ele>
        <time>2013-07-14T09:55:25Z</time>
      </trkpt>
      <trkpt lat="45.09067" lon="6.14903">
        <ele>1953.54</ele>
        <time>2013-07-14T09:55:41Z</time>
      </trkpt>
      <trkpt lat="45.09073" lon="6.14899">
        <ele>1953.54</ele>
        <time>2013-07-14T09:55:46Z</time>
      </trkpt>
      <trkpt lat="45.09084" lon="6.14894">
        <ele>1952.57</ele>
        <time>2013-07-14T09:55:55Z</time>
      </trkpt>
      <trkpt lat="45.09093" lon="6.14895">
        <ele>1951.61</ele>
        <time>2013-07-14T09:56:03Z</time>
      </trkpt>
      <trkpt lat="45.09113" lon="6.14911">
        <ele>1950.17</ele>
        <time>2013-07-14T09:56:20Z</time>
      </trkpt>
      <trkpt lat="45.09122" lon="6.1492">
        <ele>1949.21</ele>
        <time>2013-07-14T09:56:29Z</time>
      </trkpt>
      <trkpt lat="45.09137" lon="6.14939">
        <ele>1945.85</ele>
        <time>2013-07-14T09:56:46Z</time>
      </trkpt>
      <trkpt lat="45.09139" lon="6.14945">
        <ele>1945.85</ele>
        <time>2013-07-14T09:56:50Z</time>
      </trkpt>
      <trkpt lat="45.09157" lon="6.14959">
        <ele>1942.48</ele>
        <time>2013-07-14T09:57:07Z</time>
      </trkpt>
      <trkpt lat="45.0916" lon="6.14962">
        <ele>1942</ele>
        <time>2013-07-14T09:57:11Z</time>
      </trkpt>
      <trkpt lat="45.09175" lon="6.14979">
        <ele>1940.08</ele>
        <time>2013-07-14T09:57:26Z</time>
      </trkpt>
      <trkpt lat="45.09175" lon="6.14993">
        <ele>1938.16</ele>
        <time>2013-07-14T09:57:40Z</time>
      </trkpt>
      <trkpt lat="45.09169" lon="6.14992">
        <ele>1934.79</ele>
        <time>2013-07-14T09:57:47Z</time>
      </trkpt>
      <trkpt lat="45.09161" lon="6.14994">
        <ele>1932.39</ele>
        <time>2013-07-14T09:58:01Z</time>
      </trkpt>
      <trkpt lat="45.09154" lon="6.15001">
        <ele>1929.02</ele>
        <time>2013-07-14T09:58:15Z</time>
      </trkpt>
      <trkpt lat="45.09154" lon="6.14998">
        <ele>1929.02</ele>
        <time>2013-07-14T09:58:38Z</time>
      </trkpt>
      <trkpt lat="45.09154" lon="6.14995">
        <ele>1929.02</ele>
        <time>2013-07-14T09:59:06Z</time>
      </trkpt>
      <trkpt lat="45.09152" lon="6.14994">
        <ele>1929.02</ele>
        <time>2013-07-14T09:59:43Z</time>
      </trkpt>
      <trkpt lat="45.09149" lon="6.14994">
        <ele>1928.06</ele>
        <time>2013-07-14T09:59:48Z</time>
      </trkpt>
      <trkpt lat="45.09143" lon="6.14995">
        <ele>1926.62</ele>
        <time>2013-07-14T09:59:54Z</time>
      </trkpt>
      <trkpt lat="45.09131" lon="6.1499">
        <ele>1923.25</ele>
        <time>2013-07-14T10:00:12Z</time>
      </trkpt>
      <trkpt lat="45.09126" lon="6.14993">
        <ele>1920.85</ele>
        <time>2013-07-14T10:00:27Z</time>
      </trkpt>
      <trkpt lat="45.09125" lon="6.14997">
        <ele>1919.89</ele>
        <time>2013-07-14T10:00:48Z</time>
      </trkpt>
      <trkpt lat="45.09127" lon="6.14999">
        <ele>1918.93</ele>
        <time>2013-07-14T10:00:52Z</time>
      </trkpt>
      <trkpt lat="45.09133" lon="6.15011">
        <ele>1916.04</ele>
        <time>2013-07-14T10:01:08Z</time>
      </trkpt>
      <trkpt lat="45.09138" lon="6.15021">
        <ele>1914.6</ele>
        <time>2013-07-14T10:01:22Z</time>
      </trkpt>
      <trkpt lat="45.09141" lon="6.15027">
        <ele>1913.16</ele>
        <time>2013-07-14T10:01:38Z</time>
      </trkpt>
      <trkpt lat="45.09143" lon="6.15036">
        <ele>1910.28</ele>
        <time>2013-07-14T10:01:51Z</time>
      </trkpt>
      <trkpt lat="45.09144" lon="6.15042">
        <ele>1908.35</ele>
        <time>2013-07-14T10:02:06Z</time>
      </trkpt>
      <trkpt lat="45.09146" lon="6.15049">
        <ele>1907.39</ele>
        <time>2013-07-14T10:02:26Z</time>
      </trkpt>
      <trkpt lat="45.0915" lon="6.15063">
        <ele>1904.51</ele>
        <time>2013-07-14T10:02:44Z</time>
      </trkpt>
      <trkpt lat="45.09151" lon="6.15074">
        <ele>1902.59</ele>
        <time>2013-07-14T10:03:02Z</time>
      </trkpt>
      <trkpt lat="45.09153" lon="6.15079">
        <ele>1902.59</ele>
        <time>2013-07-14T10:03:06Z</time>
      </trkpt>
      <trkpt lat="45.09154" lon="6.15091">
        <ele>1900.66</ele>
        <time>2013-07-14T10:03:16Z</time>
      </trkpt>
      <trkpt lat="45.09156" lon="6.15105">
        <ele>1898.74</ele>
        <time>2013-07-14T10:03:28Z</time>
      </trkpt>
      <trkpt lat="45.09166" lon="6.15113">
        <ele>1896.82</ele>
        <time>2013-07-14T10:03:45Z</time>
      </trkpt>
      <trkpt lat="45.09173" lon="6.15115">
        <ele>1893.45</ele>
        <time>2013-07-14T10:03:57Z</time>
      </trkpt>
      <trkpt lat="45.09175" lon="6.15118">
        <ele>1893.45</ele>
        <time>2013-07-14T10:04:20Z</time>
      </trkpt>
      <trkpt lat="45.09179" lon="6.15119">
        <ele>1891.53</ele>
        <time>2013-07-14T10:04:49Z</time>
      </trkpt>
      <trkpt lat="45.09179" lon="6.15121">
        <ele>1892.01</ele>
        <time>2013-07-14T10:04:55Z</time>
      </trkpt>
      <trkpt lat="45.09187" lon="6.15127">
        <ele>1889.61</ele>
        <time>2013-07-14T10:05:05Z</time>
      </trkpt>
      <trkpt lat="45.09196" lon="6.1513">
        <ele>1888.65</ele>
        <time>2013-07-14T10:05:20Z</time>
      </trkpt>
      <trkpt lat="45.09199" lon="6.15136">
        <ele>1886.72</ele>
        <time>2013-07-14T10:05:27Z</time>
      </trkpt>
      <trkpt lat="45.09203" lon="6.15142">
        <ele>1884.8</ele>
        <time>2013-07-14T10:05:41Z</time>
      </trkpt>
      <trkpt lat="45.09201" lon="6.15145">
        <ele>1884.8</ele>
        <time>2013-07-14T10:06:08Z</time>
      </trkpt>
      <trkpt lat="45.09199" lon="6.15146">
        <ele>1884.32</ele>
        <time>2013-07-14T10:06:18Z</time>
      </trkpt>
      <trkpt lat="45.09188" lon="6.15162">
        <ele>1880.96</ele>
        <time>2013-07-14T10:06:35Z</time>
      </trkpt>
      <trkpt lat="45.09184" lon="6.15167">
        <ele>1880.48</ele>
        <time>2013-07-14T10:06:46Z</time>
      </trkpt>
      <trkpt lat="45.09182" lon="6.15169">
        <ele>1879.03</ele>
        <time>2013-07-14T10:06:51Z</time>
      </trkpt>
      <trkpt lat="45.09182" lon="6.1517">
        <ele>1877.59</ele>
        <time>2013-07-14T10:07:04Z</time>
      </trkpt>
      <trkpt lat="45.09187" lon="6.15168">
        <ele>1876.63</ele>
        <time>2013-07-14T10:07:09Z</time>
      </trkpt>
      <trkpt lat="45.09189" lon="6.15168">
        <ele>1875.67</ele>
        <time>2013-07-14T10:07:13Z</time>
      </trkpt>
      <trkpt lat="45.09183" lon="6.15176">
        <ele>1873.27</ele>
        <time>2013-07-14T10:07:26Z</time>
      </trkpt>
      <trkpt lat="45.09193" lon="6.15172">
        <ele>1870.38</ele>
        <time>2013-07-14T10:07:37Z</time>
      </trkpt>
      <trkpt lat="45.09193" lon="6.15175">
        <ele>1869.42</ele>
        <time>2013-07-14T10:07:40Z</time>
      </trkpt>
      <trkpt lat="45.09188" lon="6.15181">
        <ele>1866.54</ele>
        <time>2013-07-14T10:07:54Z</time>
      </trkpt>
      <trkpt lat="45.09183" lon="6.15188">
        <ele>1865.09</ele>
        <time>2013-07-14T10:08:17Z</time>
      </trkpt>
      <trkpt lat="45.09191" lon="6.15187">
        <ele>1863.17</ele>
        <time>2013-07-14T10:08:27Z</time>
      </trkpt>
      <trkpt lat="45.09202" lon="6.1519">
        <ele>1861.25</ele>
        <time>2013-07-14T10:08:42Z</time>
      </trkpt>
      <trkpt lat="45.0921" lon="6.1519">
        <ele>1859.81</ele>
        <time>2013-07-14T10:08:51Z</time>
      </trkpt>
      <trkpt lat="45.09216" lon="6.15195">
        <ele>1858.85</ele>
        <time>2013-07-14T10:09:05Z</time>
      </trkpt>
      <trkpt lat="45.09218" lon="6.15201">
        <ele>1857.4</ele>
        <time>2013-07-14T10:09:35Z</time>
      </trkpt>
      <trkpt lat="45.09218" lon="6.15205">
        <ele>1854.52</ele>
        <time>2013-07-14T10:09:52Z</time>
      </trkpt>
      <trkpt lat="45.09216" lon="6.15208">
        <ele>1853.08</ele>
        <time>2013-07-14T10:10:24Z</time>
      </trkpt>
      <trkpt lat="45.09218" lon="6.15209">
        <ele>1851.64</ele>
        <time>2013-07-14T10:10:35Z</time>
      </trkpt>
      <trkpt lat="45.0922" lon="6.15211">
        <ele>1851.16</ele>
        <time>2013-07-14T10:10:52Z</time>
      </trkpt>
      <trkpt lat="45.0922" lon="6.15212">
        <ele>1850.68</ele>
        <time>2013-07-14T10:10:56Z</time>
      </trkpt>
      <trkpt lat="45.0923" lon="6.15213">
        <ele>1847.31</ele>
        <time>2013-07-14T10:11:10Z</time>
      </trkpt>
      <trkpt lat="45.09236" lon="6.15214">
        <ele>1845.39</ele>
        <time>2013-07-14T10:11:18Z</time>
      </trkpt>
      <trkpt lat="45.09245" lon="6.15218">
        <ele>1843.95</ele>
        <time>2013-07-14T10:11:29Z</time>
      </trkpt>
      <trkpt lat="45.09251" lon="6.15227">
        <ele>1841.06</ele>
        <time>2013-07-14T10:11:44Z</time>
      </trkpt>
      <trkpt lat="45.0925" lon="6.15228">
        <ele>1840.58</ele>
        <time>2013-07-14T10:11:58Z</time>
      </trkpt>
      <trkpt lat="45.09257" lon="6.15234">
        <ele>1838.66</ele>
        <time>2013-07-14T10:12:18Z</time>
      </trkpt>
      <trkpt lat="45.09262" lon="6.15242">
        <ele>1835.29</ele>
        <time>2013-07-14T10:12:31Z</time>
      </trkpt>
      <trkpt lat="45.0927" lon="6.15252">
        <ele>1832.89</ele>
        <time>2013-07-14T10:12:44Z</time>
      </trkpt>
      <trkpt lat="45.09277" lon="6.15258">
        <ele>1830.01</ele>
        <time>2013-07-14T10:12:54Z</time>
      </trkpt>
      <trkpt lat="45.0928" lon="6.15261">
        <ele>1829.05</ele>
        <time>2013-07-14T10:12:59Z</time>
      </trkpt>
      <trkpt lat="45.09281" lon="6.15267">
        <ele>1827.6</ele>
        <time>2013-07-14T10:13:04Z</time>
      </trkpt>
      <trkpt lat="45.09282" lon="6.15274">
        <ele>1824.72</ele>
        <time>2013-07-14T10:13:18Z</time>
      </trkpt>
      <trkpt lat="45.09288" lon="6.15267">
        <ele>1824.72</ele>
        <time>2013-07-14T10:13:45Z</time>
      </trkpt>
      <trkpt lat="45.09288" lon="6.15263">
        <ele>1823.28</ele>
        <time>2013-07-14T10:14:06Z</time>
      </trkpt>
      <trkpt lat="45.09281" lon="6.15267">
        <ele>1819.91</ele>
        <time>2013-07-14T10:14:26Z</time>
      </trkpt>
      <trkpt lat="45.09279" lon="6.15268">
        <ele>1818.95</ele>
        <time>2013-07-14T10:14:28Z</time>
      </trkpt>
      <trkpt lat="45.09278" lon="6.15269">
        <ele>1817.99</ele>
        <time>2013-07-14T10:14:44Z</time>
      </trkpt>
      <trkpt lat="45.09276" lon="6.1527">
        <ele>1817.99</ele>
        <time>2013-07-14T10:14:46Z</time>
      </trkpt>
      <trkpt lat="45.09273" lon="6.15274">
        <ele>1816.55</ele>
        <time>2013-07-14T10:14:49Z</time>
      </trkpt>
      <trkpt lat="45.09263" lon="6.15282">
        <ele>1813.66</ele>
        <time>2013-07-14T10:15:00Z</time>
      </trkpt>
      <trkpt lat="45.09262" lon="6.15284">
        <ele>1813.18</ele>
        <time>2013-07-14T10:15:02Z</time>
      </trkpt>
      <trkpt lat="45.09253" lon="6.1529">
        <ele>1810.3</ele>
        <time>2013-07-14T10:15:18Z</time>
      </trkpt>
      <trkpt lat="45.09249" lon="6.15293">
        <ele>1808.86</ele>
        <time>2013-07-14T10:15:23Z</time>
      </trkpt>
      <trkpt lat="45.09231" lon="6.15296">
        <ele>1805.49</ele>
        <time>2013-07-14T10:15:41Z</time>
      </trkpt>
      <trkpt lat="45.09222" lon="6.15298">
        <ele>1803.57</ele>
        <time>2013-07-14T10:15:50Z</time>
      </trkpt>
      <trkpt lat="45.09209" lon="6.15295">
        <ele>1801.17</ele>
        <time>2013-07-14T10:16:03Z</time>
      </trkpt>
      <trkpt lat="45.09208" lon="6.15297">
        <ele>1799.24</ele>
        <time>2013-07-14T10:16:18Z</time>
      </trkpt>
      <trkpt lat="45.09209" lon="6.15299">
        <ele>1798.76</ele>
        <time>2013-07-14T10:16:20Z</time>
      </trkpt>
      <trkpt lat="45.0922" lon="6.15313">
        <ele>1795.88</ele>
        <time>2013-07-14T10:16:35Z</time>
      </trkpt>
      <trkpt lat="45.09225" lon="6.15317">
        <ele>1795.4</ele>
        <time>2013-07-14T10:16:40Z</time>
      </trkpt>
      <trkpt lat="45.0923" lon="6.1532">
        <ele>1793.96</ele>
        <time>2013-07-14T10:16:45Z</time>
      </trkpt>
      <trkpt lat="45.09235" lon="6.15327">
        <ele>1792.03</ele>
        <time>2013-07-14T10:16:59Z</time>
      </trkpt>
      <trkpt lat="45.09228" lon="6.15327">
        <ele>1789.15</ele>
        <time>2013-07-14T10:17:30Z</time>
      </trkpt>
      <trkpt lat="45.09224" lon="6.15328">
        <ele>1788.19</ele>
        <time>2013-07-14T10:17:34Z</time>
      </trkpt>
      <trkpt lat="45.09222" lon="6.15335">
        <ele>1786.27</ele>
        <time>2013-07-14T10:17:47Z</time>
      </trkpt>
      <trkpt lat="45.09234" lon="6.15348">
        <ele>1783.38</ele>
        <time>2013-07-14T10:18:05Z</time>
      </trkpt>
      <trkpt lat="45.09233" lon="6.1535">
        <ele>1782.42</ele>
        <time>2013-07-14T10:18:08Z</time>
      </trkpt>
      <trkpt lat="45.09233" lon="6.1535">
        <ele>1780.98</ele>
        <time>2013-07-14T10:18:22Z</time>
      </trkpt>
      <trkpt lat="45.09227" lon="6.15355">
        <ele>1777.61</ele>
        <time>2013-07-14T10:18:39Z</time>
      </trkpt>
      <trkpt lat="45.09223" lon="6.15358">
        <ele>1777.13</ele>
        <time>2013-07-14T10:18:57Z</time>
      </trkpt>
      <trkpt lat="45.09219" lon="6.15358">
        <ele>1773.77</ele>
        <time>2013-07-14T10:19:05Z</time>
      </trkpt>
      <trkpt lat="45.09218" lon="6.15358">
        <ele>1774.25</ele>
        <time>2013-07-14T10:19:06Z</time>
      </trkpt>
      <trkpt lat="45.0921" lon="6.1536">
        <ele>1771.37</ele>
        <time>2013-07-14T10:19:23Z</time>
      </trkpt>
      <trkpt lat="45.09205" lon="6.15359">
        <ele>1769.44</ele>
        <time>2013-07-14T10:19:41Z</time>
      </trkpt>
      <trkpt lat="45.092" lon="6.15358">
        <ele>1767.52</ele>
        <time>2013-07-14T10:19:52Z</time>
      </trkpt>
      <trkpt lat="45.09199" lon="6.15358">
        <ele>1767.52</ele>
        <time>2013-07-14T10:19:53Z</time>
      </trkpt>
      <trkpt lat="45.09189" lon="6.1536">
        <ele>1763.68</ele>
        <time>2013-07-14T10:20:07Z</time>
      </trkpt>
      <trkpt lat="45.0918" lon="6.15361">
        <ele>1761.27</ele>
        <time>2013-07-14T10:20:20Z</time>
      </trkpt>
      <trkpt lat="45.09169" lon="6.1536">
        <ele>1759.83</ele>
        <time>2013-07-14T10:20:33Z</time>
      </trkpt>
      <trkpt lat="45.09162" lon="6.15363">
        <ele>1758.39</ele>
        <time>2013-07-14T10:20:39Z</time>
      </trkpt>
      <trkpt lat="45.09157" lon="6.15364">
        <ele>1756.95</ele>
        <time>2013-07-14T10:20:45Z</time>
      </trkpt>
      <trkpt lat="45.09152" lon="6.15365">
        <ele>1756.47</ele>
        <time>2013-07-14T10:20:50Z</time>
      </trkpt>
      <trkpt lat="45.09147" lon="6.15375">
        <ele>1752.62</ele>
        <time>2013-07-14T10:21:02Z</time>
      </trkpt>
      <trkpt lat="45.09154" lon="6.15389">
        <ele>1749.74</ele>
        <time>2013-07-14T10:21:17Z</time>
      </trkpt>
      <trkpt lat="45.09156" lon="6.15392">
        <ele>1749.26</ele>
        <time>2013-07-14T10:21:21Z</time>
      </trkpt>
      <trkpt lat="45.09158" lon="6.15394">
        <ele>1748.29</ele>
        <time>2013-07-14T10:21:41Z</time>
      </trkpt>
      <trkpt lat="45.09167" lon="6.15401">
        <ele>1745.89</ele>
        <time>2013-07-14T10:22:06Z</time>
      </trkpt>
      <trkpt lat="45.09169" lon="6.15402">
        <ele>1745.41</ele>
        <time>2013-07-14T10:22:09Z</time>
      </trkpt>
      <trkpt lat="45.09171" lon="6.15407">
        <ele>1743.97</ele>
        <time>2013-07-14T10:22:15Z</time>
      </trkpt>
      <trkpt lat="45.09175" lon="6.15416">
        <ele>1741.57</ele>
        <time>2013-07-14T10:22:24Z</time>
      </trkpt>
      <trkpt lat="45.09178" lon="6.15421">
        <ele>1740.6</ele>
        <time>2013-07-14T10:22:29Z</time>
      </trkpt>
      <trkpt lat="45.09184" lon="6.15432">
        <ele>1737.72</ele>
        <time>2013-07-14T10:22:41Z</time>
      </trkpt>
      <trkpt lat="45.09193" lon="6.1544">
        <ele>1736.28</ele>
        <time>2013-07-14T10:22:57Z</time>
      </trkpt>
      <trkpt lat="45.092" lon="6.15456">
        <ele>1733.39</ele>
        <time>2013-07-14T10:23:13Z</time>
      </trkpt>
      <trkpt lat="45.09208" lon="6.15463">
        <ele>1732.43</ele>
        <time>2013-07-14T10:23:22Z</time>
      </trkpt>
      <trkpt lat="45.09223" lon="6.15473">
        <ele>1729.07</ele>
        <time>2013-07-14T10:23:39Z</time>
      </trkpt>
      <trkpt lat="45.09237" lon="6.15482">
        <ele>1727.63</ele>
        <time>2013-07-14T10:23:54Z</time>
      </trkpt>
      <trkpt lat="45.09242" lon="6.15488">
        <ele>1726.67</ele>
        <time>2013-07-14T10:24:03Z</time>
      </trkpt>
      <trkpt lat="45.09241" lon="6.15492">
        <ele>1724.74</ele>
        <time>2013-07-14T10:24:25Z</time>
      </trkpt>
      <trkpt lat="45.09236" lon="6.1549">
        <ele>1723.78</ele>
        <time>2013-07-14T10:24:33Z</time>
      </trkpt>
      <trkpt lat="45.09224" lon="6.15488">
        <ele>1721.86</ele>
        <time>2013-07-14T10:24:47Z</time>
      </trkpt>
      <trkpt lat="45.09213" lon="6.15488">
        <ele>1719.94</ele>
        <time>2013-07-14T10:24:58Z</time>
      </trkpt>
      <trkpt lat="45.09209" lon="6.15488">
        <ele>1718.97</ele>
        <time>2013-07-14T10:25:02Z</time>
      </trkpt>
      <trkpt lat="45.092" lon="6.15489">
        <ele>1718.01</ele>
        <time>2013-07-14T10:25:11Z</time>
      </trkpt>
      <trkpt lat="45.09187" lon="6.15487">
        <ele>1715.13</ele>
        <time>2013-07-14T10:25:29Z</time>
      </trkpt>
      <trkpt lat="45.09195" lon="6.15499">
        <ele>1712.73</ele>
        <time>2013-07-14T10:25:46Z</time>
      </trkpt>
      <trkpt lat="45.09197" lon="6.15501">
        <ele>1711.28</ele>
        <time>2013-07-14T10:25:49Z</time>
      </trkpt>
      <trkpt lat="45.09197" lon="6.15502">
        <ele>1710.32</ele>
        <time>2013-07-14T10:25:50Z</time>
      </trkpt>
      <trkpt lat="45.09203" lon="6.1551">
        <ele>1709.84</ele>
        <time>2013-07-14T10:25:59Z</time>
      </trkpt>
      <trkpt lat="45.09204" lon="6.15513">
        <ele>1708.88</ele>
        <time>2013-07-14T10:26:02Z</time>
      </trkpt>
      <trkpt lat="45.09207" lon="6.15516">
        <ele>1708.4</ele>
        <time>2013-07-14T10:26:05Z</time>
      </trkpt>
      <trkpt lat="45.09209" lon="6.15517">
        <ele>1707.92</ele>
        <time>2013-07-14T10:26:07Z</time>
      </trkpt>
      <trkpt lat="45.09218" lon="6.15528">
        <ele>1705.04</ele>
        <time>2013-07-14T10:26:21Z</time>
      </trkpt>
      <trkpt lat="45.09222" lon="6.15532">
        <ele>1705.04</ele>
        <time>2013-07-14T10:26:26Z</time>
      </trkpt>
      <trkpt lat="45.0923" lon="6.15542">
        <ele>1703.11</ele>
        <time>2013-07-14T10:26:39Z</time>
      </trkpt>
      <trkpt lat="45.09232" lon="6.15546">
        <ele>1703.59</ele>
        <time>2013-07-14T10:26:43Z</time>
      </trkpt>
      <trkpt lat="45.09241" lon="6.15558">
        <ele>1701.67</ele>
        <time>2013-07-14T10:26:56Z</time>
      </trkpt>
      <trkpt lat="45.09243" lon="6.15562">
        <ele>1698.79</ele>
        <time>2013-07-14T10:27:04Z</time>
      </trkpt>
      <trkpt lat="45.09243" lon="6.15563">
        <ele>1698.79</ele>
        <time>2013-07-14T10:27:35Z</time>
      </trkpt>
      <trkpt lat="45.09243" lon="6.15573">
        <ele>1695.9</ele>
        <time>2013-07-14T10:27:49Z</time>
      </trkpt>
      <trkpt lat="45.09241" lon="6.15582">
        <ele>1692.54</ele>
        <time>2013-07-14T10:27:59Z</time>
      </trkpt>
      <trkpt lat="45.0924" lon="6.15587">
        <ele>1691.58</ele>
        <time>2013-07-14T10:28:15Z</time>
      </trkpt>
      <trkpt lat="45.09238" lon="6.15594">
        <ele>1688.69</ele>
        <time>2013-07-14T10:28:39Z</time>
      </trkpt>
      <trkpt lat="45.09238" lon="6.15602">
        <ele>1685.81</ele>
        <time>2013-07-14T10:28:55Z</time>
      </trkpt>
      <trkpt lat="45.09233" lon="6.15606">
        <ele>1683.89</ele>
        <time>2013-07-14T10:29:14Z</time>
      </trkpt>
      <trkpt lat="45.0923" lon="6.1561">
        <ele>1681.48</ele>
        <time>2013-07-14T10:29:39Z</time>
      </trkpt>
      <trkpt lat="45.09229" lon="6.15615">
        <ele>1680.04</ele>
        <time>2013-07-14T10:29:44Z</time>
      </trkpt>
      <trkpt lat="45.09224" lon="6.15627">
        <ele>1676.68</ele>
        <time>2013-07-14T10:29:59Z</time>
      </trkpt>
      <trkpt lat="45.09224" lon="6.15627">
        <ele>1676.68</ele>
        <time>2013-07-14T10:30:00Z</time>
      </trkpt>
      <trkpt lat="45.09214" lon="6.15632">
        <ele>1673.79</ele>
        <time>2013-07-14T10:30:15Z</time>
      </trkpt>
      <trkpt lat="45.09212" lon="6.1564">
        <ele>1671.39</ele>
        <time>2013-07-14T10:30:28Z</time>
      </trkpt>
      <trkpt lat="45.09211" lon="6.15642">
        <ele>1669.47</ele>
        <time>2013-07-14T10:30:53Z</time>
      </trkpt>
      <trkpt lat="45.0921" lon="6.15645">
        <ele>1668.99</ele>
        <time>2013-07-14T10:30:56Z</time>
      </trkpt>
      <trkpt lat="45.09207" lon="6.15656">
        <ele>1666.1</ele>
        <time>2013-07-14T10:31:07Z</time>
      </trkpt>
      <trkpt lat="45.09202" lon="6.15666">
        <ele>1663.22</ele>
        <time>2013-07-14T10:31:23Z</time>
      </trkpt>
      <trkpt lat="45.09199" lon="6.15674">
        <ele>1660.81</ele>
        <time>2013-07-14T10:31:38Z</time>
      </trkpt>
      <trkpt lat="45.09193" lon="6.15691">
        <ele>1656.49</ele>
        <time>2013-07-14T10:31:53Z</time>
      </trkpt>
      <trkpt lat="45.0919" lon="6.15704">
        <ele>1653.6</ele>
        <time>2013-07-14T10:32:07Z</time>
      </trkpt>
      <trkpt lat="45.09191" lon="6.15706">
        <ele>1654.09</ele>
        <time>2013-07-14T10:32:09Z</time>
      </trkpt>
      <trkpt lat="45.09188" lon="6.15713">
        <ele>1651.2</ele>
        <time>2013-07-14T10:32:26Z</time>
      </trkpt>
      <trkpt lat="45.09184" lon="6.15717">
        <ele>1650.24</ele>
        <time>2013-07-14T10:32:37Z</time>
      </trkpt>
      <trkpt lat="45.09175" lon="6.15728">
        <ele>1648.32</ele>
        <time>2013-07-14T10:32:47Z</time>
      </trkpt>
      <trkpt lat="45.09174" lon="6.15733">
        <ele>1647.36</ele>
        <time>2013-07-14T10:32:51Z</time>
      </trkpt>
      <trkpt lat="45.0916" lon="6.15744">
        <ele>1644.95</ele>
        <time>2013-07-14T10:33:07Z</time>
      </trkpt>
      <trkpt lat="45.09161" lon="6.15754">
        <ele>1641.59</ele>
        <time>2013-07-14T10:33:19Z</time>
      </trkpt>
      <trkpt lat="45.09166" lon="6.15761">
        <ele>1638.7</ele>
        <time>2013-07-14T10:33:49Z</time>
      </trkpt>
      <trkpt lat="45.09162" lon="6.15771">
        <ele>1635.82</ele>
        <time>2013-07-14T10:34:05Z</time>
      </trkpt>
      <trkpt lat="45.09167" lon="6.15773">
        <ele>1633.9</ele>
        <time>2013-07-14T10:34:12Z</time>
      </trkpt>
      <trkpt lat="45.09174" lon="6.15777">
        <ele>1631.98</ele>
        <time>2013-07-14T10:34:25Z</time>
      </trkpt>
      <trkpt lat="45.09171" lon="6.15784">
        <ele>1631.01</ele>
        <time>2013-07-14T10:34:33Z</time>
      </trkpt>
      <trkpt lat="45.09166" lon="6.15797">
        <ele>1627.65</ele>
        <time>2013-07-14T10:34:45Z</time>
      </trkpt>
      <trkpt lat="45.09166" lon="6.15803">
        <ele>1625.73</ele>
        <time>2013-07-14T10:34:53Z</time>
      </trkpt>
      <trkpt lat="45.09163" lon="6.1581">
        <ele>1624.77</ele>
        <time>2013-07-14T10:35:03Z</time>
      </trkpt>
      <trkpt lat="45.09165" lon="6.15818">
        <ele>1623.32</ele>
        <time>2013-07-14T10:35:09Z</time>
      </trkpt>
      <trkpt lat="45.09167" lon="6.15828">
        <ele>1621.88</ele>
        <time>2013-07-14T10:35:19Z</time>
      </trkpt>
      <trkpt lat="45.09173" lon="6.15835">
        <ele>1621.88</ele>
        <time>2013-07-14T10:35:28Z</time>
      </trkpt>
      <trkpt lat="45.09185" lon="6.15844">
        <ele>1623.32</ele>
        <time>2013-07-14T10:35:45Z</time>
      </trkpt>
      <trkpt lat="45.09189" lon="6.15846">
        <ele>1624.28</ele>
        <time>2013-07-14T10:35:59Z</time>
      </trkpt>
      <trkpt lat="45.09187" lon="6.1585">
        <ele>1623.8</ele>
        <time>2013-07-14T10:36:29Z</time>
      </trkpt>
      <trkpt lat="45.09187" lon="6.1585">
        <ele>1623.8</ele>
        <time>2013-07-14T10:36:30Z</time>
      </trkpt>
      <trkpt lat="45.09182" lon="6.15847">
        <ele>1621.88</ele>
        <time>2013-07-14T10:36:39Z</time>
      </trkpt>
      <trkpt lat="45.09171" lon="6.15839">
        <ele>1620.92</ele>
        <time>2013-07-14T10:36:54Z</time>
      </trkpt>
      <trkpt lat="45.09167" lon="6.15837">
        <ele>1620.44</ele>
        <time>2013-07-14T10:37:09Z</time>
      </trkpt>
      <trkpt lat="45.09167" lon="6.15837">
        <ele>1620.92</ele>
        <time>2013-07-14T10:37:55Z</time>
      </trkpt>
      <trkpt lat="45.09171" lon="6.15843">
        <ele>1618.52</ele>
        <time>2013-07-14T10:38:48Z</time>
      </trkpt>
      <trkpt lat="45.0917" lon="6.15844">
        <ele>1619</ele>
        <time>2013-07-14T10:38:55Z</time>
      </trkpt>
      <trkpt lat="45.0917" lon="6.15848">
        <ele>1618.04</ele>
        <time>2013-07-14T10:38:59Z</time>
      </trkpt>
      <trkpt lat="45.09167" lon="6.15855">
        <ele>1617.07</ele>
        <time>2013-07-14T10:39:04Z</time>
      </trkpt>
      <trkpt lat="45.09161" lon="6.15867">
        <ele>1616.11</ele>
        <time>2013-07-14T10:39:17Z</time>
      </trkpt>
      <trkpt lat="45.09154" lon="6.15868">
        <ele>1612.75</ele>
        <time>2013-07-14T10:39:33Z</time>
      </trkpt>
      <trkpt lat="45.09151" lon="6.15874">
        <ele>1613.23</ele>
        <time>2013-07-14T10:39:47Z</time>
      </trkpt>
      <trkpt lat="45.09151" lon="6.15876">
        <ele>1612.75</ele>
        <time>2013-07-14T10:40:05Z</time>
      </trkpt>
      <trkpt lat="45.09148" lon="6.15884">
        <ele>1611.79</ele>
        <time>2013-07-14T10:40:19Z</time>
      </trkpt>
      <trkpt lat="45.09147" lon="6.15896">
        <ele>1609.86</ele>
        <time>2013-07-14T10:40:35Z</time>
      </trkpt>
      <trkpt lat="45.09147" lon="6.159">
        <ele>1609.38</ele>
        <time>2013-07-14T10:40:39Z</time>
      </trkpt>
      <trkpt lat="45.09147" lon="6.15915">
        <ele>1606.5</ele>
        <time>2013-07-14T10:40:54Z</time>
      </trkpt>
      <trkpt lat="45.09145" lon="6.15927">
        <ele>1604.1</ele>
        <time>2013-07-14T10:41:09Z</time>
      </trkpt>
      <trkpt lat="45.09143" lon="6.15931">
        <ele>1603.62</ele>
        <time>2013-07-14T10:41:24Z</time>
      </trkpt>
      <trkpt lat="45.09144" lon="6.15939">
        <ele>1600.73</ele>
        <time>2013-07-14T10:41:38Z</time>
      </trkpt>
      <trkpt lat="45.09143" lon="6.1595">
        <ele>1598.33</ele>
        <time>2013-07-14T10:41:48Z</time>
      </trkpt>
      <trkpt lat="45.09142" lon="6.15957">
        <ele>1596.89</ele>
        <time>2013-07-14T10:41:54Z</time>
      </trkpt>
      <trkpt lat="45.09138" lon="6.15966">
        <ele>1595.45</ele>
        <time>2013-07-14T10:42:02Z</time>
      </trkpt>
      <trkpt lat="45.09137" lon="6.15974">
        <ele>1593.04</ele>
        <time>2013-07-14T10:42:12Z</time>
      </trkpt>
      <trkpt lat="45.09134" lon="6.15984">
        <ele>1590.16</ele>
        <time>2013-07-14T10:42:24Z</time>
      </trkpt>
      <trkpt lat="45.09132" lon="6.15991">
        <ele>1588.24</ele>
        <time>2013-07-14T10:42:31Z</time>
      </trkpt>
      <trkpt lat="45.09126" lon="6.16003">
        <ele>1584.87</ele>
        <time>2013-07-14T10:42:45Z</time>
      </trkpt>
      <trkpt lat="45.09123" lon="6.16014">
        <ele>1581.99</ele>
        <time>2013-07-14T10:42:57Z</time>
      </trkpt>
      <trkpt lat="45.09124" lon="6.16025">
        <ele>1578.62</ele>
        <time>2013-07-14T10:43:09Z</time>
      </trkpt>
      <trkpt lat="45.09124" lon="6.16031">
        <ele>1577.66</ele>
        <time>2013-07-14T10:43:14Z</time>
      </trkpt>
      <trkpt lat="45.09118" lon="6.16044">
        <ele>1574.3</ele>
        <time>2013-07-14T10:43:27Z</time>
      </trkpt>
      <trkpt lat="45.09114" lon="6.16054">
        <ele>1572.85</ele>
        <time>2013-07-14T10:43:44Z</time>
      </trkpt>
      <trkpt lat="45.09114" lon="6.16054">
        <ele>1576.22</ele>
        <time>2013-07-14T10:43:57Z</time>
      </trkpt>
      <trkpt lat="45.09114" lon="6.16054">
        <ele>1573.33</ele>
        <time>2013-07-14T10:43:59Z</time>
      </trkpt>
      <trkpt lat="45.09114" lon="6.16057">
        <ele>1572.37</ele>
        <time>2013-07-14T10:44:41Z</time>
      </trkpt>
      <trkpt lat="45.09112" lon="6.16062">
        <ele>1570.93</ele>
        <time>2013-07-14T10:45:33Z</time>
      </trkpt>
      <trkpt lat="45.0911" lon="6.16069">
        <ele>1568.05</ele>
        <time>2013-07-14T10:45:45Z</time>
      </trkpt>
      <trkpt lat="45.09108" lon="6.16074">
        <ele>1567.09</ele>
        <time>2013-07-14T10:46:03Z</time>
      </trkpt>
      <trkpt lat="45.09108" lon="6.16076">
        <ele>1566.12</ele>
        <time>2013-07-14T10:46:10Z</time>
      </trkpt>
      <trkpt lat="45.09105" lon="6.16084">
        <ele>1564.68</ele>
        <time>2013-07-14T10:46:17Z</time>
      </trkpt>
      <trkpt lat="45.09104" lon="6.16088">
        <ele>1563.24</ele>
        <time>2013-07-14T10:46:31Z</time>
      </trkpt>
      <trkpt lat="45.09099" lon="6.16101">
        <ele>1559.88</ele>
        <time>2013-07-14T10:46:46Z</time>
      </trkpt>
      <trkpt lat="45.09097" lon="6.16109">
        <ele>1557.95</ele>
        <time>2013-07-14T10:47:02Z</time>
      </trkpt>
      <trkpt lat="45.09097" lon="6.16109">
        <ele>1558.43</ele>
        <time>2013-07-14T10:47:03Z</time>
      </trkpt>
      <trkpt lat="45.09095" lon="6.16116">
        <ele>1556.51</ele>
        <time>2013-07-14T10:47:10Z</time>
      </trkpt>
      <trkpt lat="45.09092" lon="6.16123">
        <ele>1554.59</ele>
        <time>2013-07-14T10:47:18Z</time>
      </trkpt>
      <trkpt lat="45.09091" lon="6.16129">
        <ele>1554.11</ele>
        <time>2013-07-14T10:47:22Z</time>
      </trkpt>
      <trkpt lat="45.09089" lon="6.16137">
        <ele>1552.67</ele>
        <time>2013-07-14T10:47:29Z</time>
      </trkpt>
      <trkpt lat="45.0909" lon="6.16149">
        <ele>1549.78</ele>
        <time>2013-07-14T10:47:42Z</time>
      </trkpt>
      <trkpt lat="45.09087" lon="6.16167">
        <ele>1547.86</ele>
        <time>2013-07-14T10:47:55Z</time>
      </trkpt>
      <trkpt lat="45.09083" lon="6.16172">
        <ele>1546.42</ele>
        <time>2013-07-14T10:48:01Z</time>
      </trkpt>
      <trkpt lat="45.09081" lon="6.1618">
        <ele>1544.5</ele>
        <time>2013-07-14T10:48:17Z</time>
      </trkpt>
      <trkpt lat="45.09073" lon="6.16186">
        <ele>1543.53</ele>
        <time>2013-07-14T10:48:42Z</time>
      </trkpt>
      <trkpt lat="45.09071" lon="6.1619">
        <ele>1542.57</ele>
        <time>2013-07-14T10:48:46Z</time>
      </trkpt>
      <trkpt lat="45.09067" lon="6.16204">
        <ele>1539.69</ele>
        <time>2013-07-14T10:49:03Z</time>
      </trkpt>
      <trkpt lat="45.0906" lon="6.1622">
        <ele>1536.8</ele>
        <time>2013-07-14T10:49:21Z</time>
      </trkpt>
      <trkpt lat="45.09057" lon="6.16233">
        <ele>1533.92</ele>
        <time>2013-07-14T10:49:35Z</time>
      </trkpt>
      <trkpt lat="45.09054" lon="6.16242">
        <ele>1530.56</ele>
        <time>2013-07-14T10:49:49Z</time>
      </trkpt>
      <trkpt lat="45.09054" lon="6.16257">
        <ele>1528.15</ele>
        <time>2013-07-14T10:50:01Z</time>
      </trkpt>
      <trkpt lat="45.09055" lon="6.16265">
        <ele>1525.27</ele>
        <time>2013-07-14T10:50:17Z</time>
      </trkpt>
      <trkpt lat="45.09057" lon="6.16266">
        <ele>1524.79</ele>
        <time>2013-07-14T10:50:36Z</time>
      </trkpt>
      <trkpt lat="45.09056" lon="6.16269">
        <ele>1522.87</ele>
        <time>2013-07-14T10:51:20Z</time>
      </trkpt>
      <trkpt lat="45.09057" lon="6.1627">
        <ele>1522.39</ele>
        <time>2013-07-14T10:52:06Z</time>
      </trkpt>
      <trkpt lat="45.09057" lon="6.1627">
        <ele>1522.39</ele>
        <time>2013-07-14T10:53:41Z</time>
      </trkpt>
      <trkpt lat="45.09056" lon="6.16275">
        <ele>1519.02</ele>
        <time>2013-07-14T11:06:42Z</time>
      </trkpt>
      <trkpt lat="45.09056" lon="6.16274">
        <ele>1519.02</ele>
        <time>2013-07-14T11:12:39Z</time>
      </trkpt>
      <trkpt lat="45.09056" lon="6.16274">
        <ele>1518.54</ele>
        <time>2013-07-14T11:15:34Z</time>
      </trkpt>
      <trkpt lat="45.09057" lon="6.16274">
        <ele>1519.02</ele>
        <time>2013-07-14T11:17:03Z</time>
      </trkpt>
      <trkpt lat="45.09057" lon="6.16274">
        <ele>1522.39</ele>
        <time>2013-07-14T11:17:20Z</time>
      </trkpt>
      <trkpt lat="45.09057" lon="6.16274">
        <ele>1519.5</ele>
        <time>2013-07-14T11:17:21Z</time>
      </trkpt>
      <trkpt lat="45.0906" lon="6.16275">
        <ele>1518.54</ele>
        <time>2013-07-14T11:17:50Z</time>
      </trkpt>
      <trkpt lat="45.0906" lon="6.16275">
        <ele>1518.06</ele>
        <time>2013-07-14T11:18:21Z</time>
      </trkpt>
      <trkpt lat="45.09062" lon="6.16277">
        <ele>1518.54</ele>
        <time>2013-07-14T11:21:41Z</time>
      </trkpt>
      <trkpt lat="45.09062" lon="6.16277">
        <ele>1519.02</ele>
        <time>2013-07-14T11:22:19Z</time>
      </trkpt>
      <trkpt lat="45.09062" lon="6.16278">
        <ele>1519.02</ele>
        <time>2013-07-14T11:24:28Z</time>
      </trkpt>
      <trkpt lat="45.09062" lon="6.1628">
        <ele>1518.54</ele>
        <time>2013-07-14T11:25:38Z</time>
      </trkpt>
      <trkpt lat="45.09061" lon="6.16281">
        <ele>1517.1</ele>
        <time>2013-07-14T11:26:33Z</time>
      </trkpt>
      <trkpt lat="45.09061" lon="6.16281">
        <ele>1518.54</ele>
        <time>2013-07-14T11:26:36Z</time>
      </trkpt>
      <trkpt lat="45.0906" lon="6.1628">
        <ele>1518.54</ele>
        <time>2013-07-14T11:28:52Z</time>
      </trkpt>
      <trkpt lat="45.09058" lon="6.1628">
        <ele>1519.02</ele>
        <time>2013-07-14T11:31:26Z</time>
      </trkpt>
      <trkpt lat="45.09056" lon="6.1628">
        <ele>1519.02</ele>
        <time>2013-07-14T11:31:54Z</time>
      </trkpt>
      <trkpt lat="45.09054" lon="6.16273">
        <ele>1519.98</ele>
        <time>2013-07-14T11:32:27Z</time>
      </trkpt>
      <trkpt lat="45.09056" lon="6.1628">
        <ele>1517.58</ele>
        <time>2013-07-14T11:32:53Z</time>
      </trkpt>
      <trkpt lat="45.09055" lon="6.16295">
        <ele>1514.21</ele>
        <time>2013-07-14T11:33:09Z</time>
      </trkpt>
      <trkpt lat="45.09052" lon="6.16311">
        <ele>1511.81</ele>
        <time>2013-07-14T11:33:25Z</time>
      </trkpt>
      <trkpt lat="45.09045" lon="6.16326">
        <ele>1510.37</ele>
        <time>2013-07-14T11:33:45Z</time>
      </trkpt>
      <trkpt lat="45.09037" lon="6.16346">
        <ele>1507.97</ele>
        <time>2013-07-14T11:34:02Z</time>
      </trkpt>
      <trkpt lat="45.09034" lon="6.16351">
        <ele>1506.52</ele>
        <time>2013-07-14T11:34:07Z</time>
      </trkpt>
      <trkpt lat="45.0903" lon="6.16365">
        <ele>1504.6</ele>
        <time>2013-07-14T11:34:19Z</time>
      </trkpt>
      <trkpt lat="45.09028" lon="6.16368">
        <ele>1504.6</ele>
        <time>2013-07-14T11:34:30Z</time>
      </trkpt>
      <trkpt lat="45.09024" lon="6.1638">
        <ele>1504.12</ele>
        <time>2013-07-14T11:34:46Z</time>
      </trkpt>
      <trkpt lat="45.09023" lon="6.16386">
        <ele>1502.68</ele>
        <time>2013-07-14T11:34:55Z</time>
      </trkpt>
      <trkpt lat="45.09021" lon="6.16391">
        <ele>1502.2</ele>
        <time>2013-07-14T11:34:59Z</time>
      </trkpt>
      <trkpt lat="45.0902" lon="6.16394">
        <ele>1501.72</ele>
        <time>2013-07-14T11:35:01Z</time>
      </trkpt>
      <trkpt lat="45.09016" lon="6.16396">
        <ele>1500.27</ele>
        <time>2013-07-14T11:35:05Z</time>
      </trkpt>
      <trkpt lat="45.09005" lon="6.16403">
        <ele>1497.39</ele>
        <time>2013-07-14T11:35:18Z</time>
      </trkpt>
      <trkpt lat="45.08993" lon="6.16417">
        <ele>1494.51</ele>
        <time>2013-07-14T11:35:33Z</time>
      </trkpt>
      <trkpt lat="45.0899" lon="6.16418">
        <ele>1494.51</ele>
        <time>2013-07-14T11:35:36Z</time>
      </trkpt>
      <trkpt lat="45.08976" lon="6.16422">
        <ele>1491.14</ele>
        <time>2013-07-14T11:35:49Z</time>
      </trkpt>
      <trkpt lat="45.08965" lon="6.1643">
        <ele>1488.26</ele>
        <time>2013-07-14T11:36:03Z</time>
      </trkpt>
      <trkpt lat="45.08962" lon="6.16431">
        <ele>1487.78</ele>
        <time>2013-07-14T11:36:25Z</time>
      </trkpt>
      <trkpt lat="45.08962" lon="6.16432">
        <ele>1480.57</ele>
        <time>2013-07-14T11:36:42Z</time>
      </trkpt>
      <trkpt lat="45.08962" lon="6.16432">
        <ele>1490.66</ele>
        <time>2013-07-14T11:36:43Z</time>
      </trkpt>
      <trkpt lat="45.08962" lon="6.16432">
        <ele>1490.66</ele>
        <time>2013-07-14T11:36:44Z</time>
      </trkpt>
      <trkpt lat="45.08961" lon="6.16433">
        <ele>1485.85</ele>
        <time>2013-07-14T11:36:56Z</time>
      </trkpt>
      <trkpt lat="45.08961" lon="6.16433">
        <ele>1489.7</ele>
        <time>2013-07-14T11:37:04Z</time>
      </trkpt>
      <trkpt lat="45.08961" lon="6.16433">
        <ele>1487.78</ele>
        <time>2013-07-14T11:37:07Z</time>
      </trkpt>
      <trkpt lat="45.0896" lon="6.16434">
        <ele>1487.3</ele>
        <time>2013-07-14T11:37:52Z</time>
      </trkpt>
      <trkpt lat="45.08957" lon="6.16435">
        <ele>1486.82</ele>
        <time>2013-07-14T11:37:56Z</time>
      </trkpt>
      <trkpt lat="45.08954" lon="6.16435">
        <ele>1485.85</ele>
        <time>2013-07-14T11:37:59Z</time>
      </trkpt>
      <trkpt lat="45.08946" lon="6.1643">
        <ele>1484.41</ele>
        <time>2013-07-14T11:38:06Z</time>
      </trkpt>
      <trkpt lat="45.08941" lon="6.16426">
        <ele>1483.45</ele>
        <time>2013-07-14T11:38:10Z</time>
      </trkpt>
      <trkpt lat="45.08932" lon="6.16417">
        <ele>1480.57</ele>
        <time>2013-07-14T11:38:21Z</time>
      </trkpt>
      <trkpt lat="45.08918" lon="6.16409">
        <ele>1477.2</ele>
        <time>2013-07-14T11:38:35Z</time>
      </trkpt>
      <trkpt lat="45.08913" lon="6.16403">
        <ele>1476.72</ele>
        <time>2013-07-14T11:38:40Z</time>
      </trkpt>
      <trkpt lat="45.08909" lon="6.16399">
        <ele>1476.24</ele>
        <time>2013-07-14T11:38:46Z</time>
      </trkpt>
      <trkpt lat="45.08894" lon="6.16381">
        <ele>1475.76</ele>
        <time>2013-07-14T11:39:03Z</time>
      </trkpt>
      <trkpt lat="45.08881" lon="6.16365">
        <ele>1474.8</ele>
        <time>2013-07-14T11:39:19Z</time>
      </trkpt>
      <trkpt lat="45.08861" lon="6.16348">
        <ele>1472.88</ele>
        <time>2013-07-14T11:39:37Z</time>
      </trkpt>
      <trkpt lat="45.08857" lon="6.16346">
        <ele>1473.36</ele>
        <time>2013-07-14T11:39:41Z</time>
      </trkpt>
      <trkpt lat="45.08841" lon="6.16342">
        <ele>1470.95</ele>
        <time>2013-07-14T11:39:55Z</time>
      </trkpt>
      <trkpt lat="45.08827" lon="6.16342">
        <ele>1468.55</ele>
        <time>2013-07-14T11:40:08Z</time>
      </trkpt>
      <trkpt lat="45.08824" lon="6.16341">
        <ele>1468.55</ele>
        <time>2013-07-14T11:40:10Z</time>
      </trkpt>
      <trkpt lat="45.08816" lon="6.16338">
        <ele>1468.55</ele>
        <time>2013-07-14T11:40:19Z</time>
      </trkpt>
      <trkpt lat="45.08814" lon="6.16338">
        <ele>1468.07</ele>
        <time>2013-07-14T11:40:21Z</time>
      </trkpt>
      <trkpt lat="45.08793" lon="6.16325">
        <ele>1467.11</ele>
        <time>2013-07-14T11:40:37Z</time>
      </trkpt>
      <trkpt lat="45.08788" lon="6.16323">
        <ele>1466.15</ele>
        <time>2013-07-14T11:40:42Z</time>
      </trkpt>
      <trkpt lat="45.08773" lon="6.1631">
        <ele>1463.74</ele>
        <time>2013-07-14T11:41:00Z</time>
      </trkpt>
      <trkpt lat="45.08751" lon="6.16296">
        <ele>1461.34</ele>
        <time>2013-07-14T11:41:17Z</time>
      </trkpt>
      <trkpt lat="45.08749" lon="6.16294">
        <ele>1461.34</ele>
        <time>2013-07-14T11:41:18Z</time>
      </trkpt>
      <trkpt lat="45.08728" lon="6.16283">
        <ele>1459.9</ele>
        <time>2013-07-14T11:41:36Z</time>
      </trkpt>
      <trkpt lat="45.08725" lon="6.16284">
        <ele>1459.9</ele>
        <time>2013-07-14T11:41:38Z</time>
      </trkpt>
      <trkpt lat="45.08724" lon="6.16284">
        <ele>1459.42</ele>
        <time>2013-07-14T11:41:39Z</time>
      </trkpt>
      <trkpt lat="45.08707" lon="6.16291">
        <ele>1457.02</ele>
        <time>2013-07-14T11:41:54Z</time>
      </trkpt>
      <trkpt lat="45.08706" lon="6.16292">
        <ele>1457.02</ele>
        <time>2013-07-14T11:41:55Z</time>
      </trkpt>
      <trkpt lat="45.08698" lon="6.16303">
        <ele>1455.57</ele>
        <time>2013-07-14T11:42:05Z</time>
      </trkpt>
      <trkpt lat="45.08693" lon="6.16316">
        <ele>1454.13</ele>
        <time>2013-07-14T11:42:13Z</time>
      </trkpt>
      <trkpt lat="45.08688" lon="6.16324">
        <ele>1451.73</ele>
        <time>2013-07-14T11:42:20Z</time>
      </trkpt>
      <trkpt lat="45.08679" lon="6.16335">
        <ele>1449.32</ele>
        <time>2013-07-14T11:42:30Z</time>
      </trkpt>
      <trkpt lat="45.08676" lon="6.16337">
        <ele>1448.36</ele>
        <time>2013-07-14T11:42:34Z</time>
      </trkpt>
      <trkpt lat="45.08674" lon="6.16339">
        <ele>1448.36</ele>
        <time>2013-07-14T11:42:37Z</time>
      </trkpt>
      <trkpt lat="45.0867" lon="6.16342">
        <ele>1447.4</ele>
        <time>2013-07-14T11:42:41Z</time>
      </trkpt>
      <trkpt lat="45.08653" lon="6.16343">
        <ele>1443.56</ele>
        <time>2013-07-14T11:42:56Z</time>
      </trkpt>
      <trkpt lat="45.08644" lon="6.16342">
        <ele>1441.63</ele>
        <time>2013-07-14T11:43:05Z</time>
      </trkpt>
      <trkpt lat="45.08625" lon="6.16325">
        <ele>1438.27</ele>
        <time>2013-07-14T11:43:23Z</time>
      </trkpt>
      <trkpt lat="45.08617" lon="6.16315">
        <ele>1435.87</ele>
        <time>2013-07-14T11:43:32Z</time>
      </trkpt>
      <trkpt lat="45.08602" lon="6.16306">
        <ele>1432.98</ele>
        <time>2013-07-14T11:43:48Z</time>
      </trkpt>
      <trkpt lat="45.08599" lon="6.16305">
        <ele>1431.06</ele>
        <time>2013-07-14T11:43:53Z</time>
      </trkpt>
      <trkpt lat="45.08596" lon="6.16301">
        <ele>1430.58</ele>
        <time>2013-07-14T11:43:57Z</time>
      </trkpt>
      <trkpt lat="45.08581" lon="6.16293">
        <ele>1429.14</ele>
        <time>2013-07-14T11:44:13Z</time>
      </trkpt>
      <trkpt lat="45.08566" lon="6.16291">
        <ele>1427.7</ele>
        <time>2013-07-14T11:44:27Z</time>
      </trkpt>
      <trkpt lat="45.08546" lon="6.16293">
        <ele>1426.25</ele>
        <time>2013-07-14T11:44:43Z</time>
      </trkpt>
      <trkpt lat="45.08525" lon="6.16292">
        <ele>1424.81</ele>
        <time>2013-07-14T11:45:00Z</time>
      </trkpt>
      <trkpt lat="45.08505" lon="6.16291">
        <ele>1423.37</ele>
        <time>2013-07-14T11:45:15Z</time>
      </trkpt>
      <trkpt lat="45.08499" lon="6.1629">
        <ele>1422.41</ele>
        <time>2013-07-14T11:45:20Z</time>
      </trkpt>
      <trkpt lat="45.0848" lon="6.16291">
        <ele>1420.97</ele>
        <time>2013-07-14T11:45:36Z</time>
      </trkpt>
      <trkpt lat="45.08468" lon="6.16291">
        <ele>1420.49</ele>
        <time>2013-07-14T11:45:46Z</time>
      </trkpt>
      <trkpt lat="45.08462" lon="6.16293">
        <ele>1418.56</ele>
        <time>2013-07-14T11:45:50Z</time>
      </trkpt>
      <trkpt lat="45.08455" lon="6.16293">
        <ele>1419.04</ele>
        <time>2013-07-14T11:45:55Z</time>
      </trkpt>
      <trkpt lat="45.08436" lon="6.16288">
        <ele>1418.08</ele>
        <time>2013-07-14T11:46:10Z</time>
      </trkpt>
      <trkpt lat="45.08427" lon="6.16289">
        <ele>1416.16</ele>
        <time>2013-07-14T11:46:19Z</time>
      </trkpt>
      <trkpt lat="45.08421" lon="6.16294">
        <ele>1416.16</ele>
        <time>2013-07-14T11:46:25Z</time>
      </trkpt>
      <trkpt lat="45.08418" lon="6.16298">
        <ele>1415.2</ele>
        <time>2013-07-14T11:46:28Z</time>
      </trkpt>
      <trkpt lat="45.08409" lon="6.16303">
        <ele>1414.72</ele>
        <time>2013-07-14T11:46:37Z</time>
      </trkpt>
      <trkpt lat="45.0839" lon="6.16296">
        <ele>1414.72</ele>
        <time>2013-07-14T11:46:53Z</time>
      </trkpt>
      <trkpt lat="45.08387" lon="6.16292">
        <ele>1414.72</ele>
        <time>2013-07-14T11:46:56Z</time>
      </trkpt>
      <trkpt lat="45.08379" lon="6.16289">
        <ele>1414.72</ele>
        <time>2013-07-14T11:47:02Z</time>
      </trkpt>
      <trkpt lat="45.08371" lon="6.16283">
        <ele>1414.72</ele>
        <time>2013-07-14T11:47:18Z</time>
      </trkpt>
      <trkpt lat="45.08364" lon="6.16277">
        <ele>1414.72</ele>
        <time>2013-07-14T11:47:33Z</time>
      </trkpt>
      <trkpt lat="45.08362" lon="6.16272">
        <ele>1414.24</ele>
        <time>2013-07-14T11:47:50Z</time>
      </trkpt>
      <trkpt lat="45.08359" lon="6.16269">
        <ele>1414.72</ele>
        <time>2013-07-14T11:48:34Z</time>
      </trkpt>
      <trkpt lat="45.0836" lon="6.16271">
        <ele>1415.2</ele>
        <time>2013-07-14T11:49:00Z</time>
      </trkpt>
      <trkpt lat="45.08359" lon="6.16271">
        <ele>1415.68</ele>
        <time>2013-07-14T11:49:15Z</time>
      </trkpt>
      <trkpt lat="45.08359" lon="6.16275">
        <ele>1415.2</ele>
        <time>2013-07-14T11:49:52Z</time>
      </trkpt>
      <trkpt lat="45.08358" lon="6.16281">
        <ele>1415.2</ele>
        <time>2013-07-14T11:50:18Z</time>
      </trkpt>
      <trkpt lat="45.08358" lon="6.1628">
        <ele>1414.72</ele>
        <time>2013-07-14T11:50:47Z</time>
      </trkpt>
      <trkpt lat="45.08356" lon="6.16277">
        <ele>1415.2</ele>
        <time>2013-07-14T11:50:49Z</time>
      </trkpt>
      <trkpt lat="45.08341" lon="6.16268">
        <ele>1415.2</ele>
        <time>2013-07-14T11:51:02Z</time>
      </trkpt>
      <trkpt lat="45.08331" lon="6.16255">
        <ele>1415.68</ele>
        <time>2013-07-14T11:51:16Z</time>
      </trkpt>
      <trkpt lat="45.08321" lon="6.16239">
        <ele>1417.12</ele>
        <time>2013-07-14T11:51:32Z</time>
      </trkpt>
      <trkpt lat="45.08314" lon="6.16232">
        <ele>1416.64</ele>
        <time>2013-07-14T11:51:39Z</time>
      </trkpt>
      <trkpt lat="45.08309" lon="6.16223">
        <ele>1417.12</ele>
        <time>2013-07-14T11:51:45Z</time>
      </trkpt>
      <trkpt lat="45.08308" lon="6.16222">
        <ele>1417.12</ele>
        <time>2013-07-14T11:51:46Z</time>
      </trkpt>
      <trkpt lat="45.08307" lon="6.16221">
        <ele>1417.12</ele>
        <time>2013-07-14T11:51:47Z</time>
      </trkpt>
      <trkpt lat="45.08303" lon="6.16215">
        <ele>1417.6</ele>
        <time>2013-07-14T11:51:53Z</time>
      </trkpt>
      <trkpt lat="45.083" lon="6.16209">
        <ele>1418.56</ele>
        <time>2013-07-14T11:51:59Z</time>
      </trkpt>
      <trkpt lat="45.08286" lon="6.16193">
        <ele>1418.08</ele>
        <time>2013-07-14T11:52:14Z</time>
      </trkpt>
      <trkpt lat="45.08271" lon="6.16173">
        <ele>1417.12</ele>
        <time>2013-07-14T11:52:33Z</time>
      </trkpt>
      <trkpt lat="45.08268" lon="6.16171">
        <ele>1417.6</ele>
        <time>2013-07-14T11:52:35Z</time>
      </trkpt>
      <trkpt lat="45.08258" lon="6.16165">
        <ele>1417.12</ele>
        <time>2013-07-14T11:52:53Z</time>
      </trkpt>
      <trkpt lat="45.08251" lon="6.16159">
        <ele>1416.64</ele>
        <time>2013-07-14T11:53:01Z</time>
      </trkpt>
      <trkpt lat="45.08227" lon="6.16149">
        <ele>1414.72</ele>
        <time>2013-07-14T11:53:21Z</time>
      </trkpt>
      <trkpt lat="45.08221" lon="6.16149">
        <ele>1414.72</ele>
        <time>2013-07-14T11:53:26Z</time>
      </trkpt>
      <trkpt lat="45.08218" lon="6.16148">
        <ele>1415.2</ele>
        <time>2013-07-14T11:53:35Z</time>
      </trkpt>
      <trkpt lat="45.0822" lon="6.16152">
        <ele>1415.68</ele>
        <time>2013-07-14T11:53:39Z</time>
      </trkpt>
      <trkpt lat="45.0822" lon="6.16159">
        <ele>1415.2</ele>
        <time>2013-07-14T11:53:46Z</time>
      </trkpt>
      <trkpt lat="45.0822" lon="6.16153">
        <ele>1414.72</ele>
        <time>2013-07-14T11:53:50Z</time>
      </trkpt>
      <trkpt lat="45.08221" lon="6.1615">
        <ele>1414.72</ele>
        <time>2013-07-14T11:53:52Z</time>
      </trkpt>
      <trkpt lat="45.08222" lon="6.16147">
        <ele>1415.2</ele>
        <time>2013-07-14T11:54:01Z</time>
      </trkpt>
      <trkpt lat="45.08218" lon="6.16145">
        <ele>1415.2</ele>
        <time>2013-07-14T11:54:14Z</time>
      </trkpt>
      <trkpt lat="45.08221" lon="6.16147">
        <ele>1415.68</ele>
        <time>2013-07-14T11:54:19Z</time>
      </trkpt>
      <trkpt lat="45.08228" lon="6.1615">
        <ele>1415.68</ele>
        <time>2013-07-14T11:54:28Z</time>
      </trkpt>
      <trkpt lat="45.0823" lon="6.1615">
        <ele>1416.16</ele>
        <time>2013-07-14T11:54:30Z</time>
      </trkpt>
      <trkpt lat="45.08235" lon="6.16147">
        <ele>1416.16</ele>
        <time>2013-07-14T11:54:35Z</time>
      </trkpt>
      <trkpt lat="45.08245" lon="6.16153">
        <ele>1416.16</ele>
        <time>2013-07-14T11:54:46Z</time>
      </trkpt>
      <trkpt lat="45.08243" lon="6.1615">
        <ele>1415.68</ele>
        <time>2013-07-14T11:54:49Z</time>
      </trkpt>
      <trkpt lat="45.08239" lon="6.1614">
        <ele>1416.16</ele>
        <time>2013-07-14T11:54:56Z</time>
      </trkpt>
      <trkpt lat="45.08234" lon="6.16132">
        <ele>1415.68</ele>
        <time>2013-07-14T11:55:11Z</time>
      </trkpt>
      <trkpt lat="45.08232" lon="6.16131">
        <ele>1415.68</ele>
        <time>2013-07-14T11:55:15Z</time>
      </trkpt>
      <trkpt lat="45.08226" lon="6.16124">
        <ele>1405.58</ele>
        <time>2013-07-14T11:55:22Z</time>
      </trkpt>
      <trkpt lat="45.08225" lon="6.16123">
        <ele>1418.08</ele>
        <time>2013-07-14T11:55:23Z</time>
      </trkpt>
      <trkpt lat="45.08223" lon="6.16122">
        <ele>1411.35</ele>
        <time>2013-07-14T11:55:26Z</time>
      </trkpt>
      <trkpt lat="45.08223" lon="6.16121">
        <ele>1415.68</ele>
        <time>2013-07-14T11:55:27Z</time>
      </trkpt>
      <trkpt lat="45.08223" lon="6.16122">
        <ele>1420.49</ele>
        <time>2013-07-14T11:55:28Z</time>
      </trkpt>
      <trkpt lat="45.08223" lon="6.16122">
        <ele>1420.49</ele>
        <time>2013-07-14T11:55:29Z</time>
      </trkpt>
      <trkpt lat="45.08222" lon="6.16122">
        <ele>1417.12</ele>
        <time>2013-07-14T11:55:36Z</time>
      </trkpt>
      <trkpt lat="45.08208" lon="6.16106">
        <ele>1418.08</ele>
        <time>2013-07-14T11:55:51Z</time>
      </trkpt>
      <trkpt lat="45.08192" lon="6.16091">
        <ele>1419.52</ele>
        <time>2013-07-14T11:56:06Z</time>
      </trkpt>
      <trkpt lat="45.08189" lon="6.16087">
        <ele>1420</ele>
        <time>2013-07-14T11:56:09Z</time>
      </trkpt>
      <trkpt lat="45.08183" lon="6.16081">
        <ele>1420</ele>
        <time>2013-07-14T11:56:16Z</time>
      </trkpt>
      <trkpt lat="45.08182" lon="6.16078">
        <ele>1420.49</ele>
        <time>2013-07-14T11:56:18Z</time>
      </trkpt>
      <trkpt lat="45.08175" lon="6.16071">
        <ele>1420.49</ele>
        <time>2013-07-14T11:56:26Z</time>
      </trkpt>
      <trkpt lat="45.08165" lon="6.16051">
        <ele>1422.89</ele>
        <time>2013-07-14T11:56:42Z</time>
      </trkpt>
      <trkpt lat="45.08156" lon="6.16026">
        <ele>1423.85</ele>
        <time>2013-07-14T11:56:59Z</time>
      </trkpt>
      <trkpt lat="45.08155" lon="6.16025">
        <ele>1424.33</ele>
        <time>2013-07-14T11:57:00Z</time>
      </trkpt>
      <trkpt lat="45.08155" lon="6.16022">
        <ele>1420.97</ele>
        <time>2013-07-14T11:57:02Z</time>
      </trkpt>
      <trkpt lat="45.08154" lon="6.16017">
        <ele>1423.85</ele>
        <time>2013-07-14T11:57:05Z</time>
      </trkpt>
      <trkpt lat="45.08151" lon="6.16006">
        <ele>1424.33</ele>
        <time>2013-07-14T11:57:12Z</time>
      </trkpt>
      <trkpt lat="45.08143" lon="6.15982">
        <ele>1427.7</ele>
        <time>2013-07-14T11:57:26Z</time>
      </trkpt>
      <trkpt lat="45.08143" lon="6.15981">
        <ele>1427.21</ele>
        <time>2013-07-14T11:57:27Z</time>
      </trkpt>
      <trkpt lat="45.08132" lon="6.15966">
        <ele>1428.18</ele>
        <time>2013-07-14T11:57:40Z</time>
      </trkpt>
      <trkpt lat="45.08129" lon="6.15963">
        <ele>1427.7</ele>
        <time>2013-07-14T11:57:43Z</time>
      </trkpt>
      <trkpt lat="45.08118" lon="6.15952">
        <ele>1429.14</ele>
        <time>2013-07-14T11:58:00Z</time>
      </trkpt>
      <trkpt lat="45.08115" lon="6.15948">
        <ele>1428.66</ele>
        <time>2013-07-14T11:58:18Z</time>
      </trkpt>
      <trkpt lat="45.08115" lon="6.15948">
        <ele>1429.14</ele>
        <time>2013-07-14T11:58:46Z</time>
      </trkpt>
      <trkpt lat="45.0811" lon="6.15946">
        <ele>1427.7</ele>
        <time>2013-07-14T12:00:20Z</time>
      </trkpt>
      <trkpt lat="45.08102" lon="6.15938">
        <ele>1428.18</ele>
        <time>2013-07-14T12:00:32Z</time>
      </trkpt>
      <trkpt lat="45.0809" lon="6.15932">
        <ele>1428.66</ele>
        <time>2013-07-14T12:00:44Z</time>
      </trkpt>
      <trkpt lat="45.08073" lon="6.15921">
        <ele>1430.1</ele>
        <time>2013-07-14T12:01:01Z</time>
      </trkpt>
      <trkpt lat="45.0807" lon="6.15915">
        <ele>1430.1</ele>
        <time>2013-07-14T12:01:10Z</time>
      </trkpt>
      <trkpt lat="45.08052" lon="6.15897">
        <ele>1431.54</ele>
        <time>2013-07-14T12:01:28Z</time>
      </trkpt>
      <trkpt lat="45.08036" lon="6.15882">
        <ele>1431.54</ele>
        <time>2013-07-14T12:01:43Z</time>
      </trkpt>
      <trkpt lat="45.0802" lon="6.15867">
        <ele>1430.1</ele>
        <time>2013-07-14T12:01:59Z</time>
      </trkpt>
      <trkpt lat="45.07998" lon="6.15853">
        <ele>1430.1</ele>
        <time>2013-07-14T12:02:16Z</time>
      </trkpt>
      <trkpt lat="45.07991" lon="6.1585">
        <ele>1430.1</ele>
        <time>2013-07-14T12:02:21Z</time>
      </trkpt>
      <trkpt lat="45.07984" lon="6.15845">
        <ele>1431.06</ele>
        <time>2013-07-14T12:02:28Z</time>
      </trkpt>
      <trkpt lat="45.07968" lon="6.15824">
        <ele>1431.54</ele>
        <time>2013-07-14T12:02:45Z</time>
      </trkpt>
      <trkpt lat="45.07955" lon="6.15807">
        <ele>1432.5</ele>
        <time>2013-07-14T12:03:01Z</time>
      </trkpt>
      <trkpt lat="45.07946" lon="6.15797">
        <ele>1433.46</ele>
        <time>2013-07-14T12:03:11Z</time>
      </trkpt>
      <trkpt lat="45.07927" lon="6.15788">
        <ele>1433.94</ele>
        <time>2013-07-14T12:03:28Z</time>
      </trkpt>
      <trkpt lat="45.07908" lon="6.15776">
        <ele>1434.42</ele>
        <time>2013-07-14T12:03:44Z</time>
      </trkpt>
      <trkpt lat="45.07907" lon="6.15775">
        <ele>1434.42</ele>
        <time>2013-07-14T12:03:45Z</time>
      </trkpt>
      <trkpt lat="45.07892" lon="6.15764">
        <ele>1434.42</ele>
        <time>2013-07-14T12:04:01Z</time>
      </trkpt>
      <trkpt lat="45.07886" lon="6.1576">
        <ele>1433.94</ele>
        <time>2013-07-14T12:04:06Z</time>
      </trkpt>
      <trkpt lat="45.07862" lon="6.15749">
        <ele>1432.98</ele>
        <time>2013-07-14T12:04:23Z</time>
      </trkpt>
      <trkpt lat="45.07845" lon="6.15743">
        <ele>1431.06</ele>
        <time>2013-07-14T12:04:37Z</time>
      </trkpt>
      <trkpt lat="45.07842" lon="6.15744">
        <ele>1430.1</ele>
        <time>2013-07-14T12:05:05Z</time>
      </trkpt>
      <trkpt lat="45.07841" lon="6.15745">
        <ele>1429.14</ele>
        <time>2013-07-14T12:05:38Z</time>
      </trkpt>
      <trkpt lat="45.07839" lon="6.15743">
        <ele>1428.18</ele>
        <time>2013-07-14T12:06:59Z</time>
      </trkpt>
      <trkpt lat="45.07833" lon="6.1574">
        <ele>1427.21</ele>
        <time>2013-07-14T12:07:13Z</time>
      </trkpt>
      <trkpt lat="45.0782" lon="6.15736">
        <ele>1423.37</ele>
        <time>2013-07-14T12:07:27Z</time>
      </trkpt>
      <trkpt lat="45.07816" lon="6.15734">
        <ele>1422.41</ele>
        <time>2013-07-14T12:07:32Z</time>
      </trkpt>
      <trkpt lat="45.07812" lon="6.15733">
        <ele>1421.45</ele>
        <time>2013-07-14T12:07:35Z</time>
      </trkpt>
      <trkpt lat="45.07806" lon="6.15735">
        <ele>1418.08</ele>
        <time>2013-07-14T12:07:43Z</time>
      </trkpt>
      <trkpt lat="45.07796" lon="6.15743">
        <ele>1416.64</ele>
        <time>2013-07-14T12:07:53Z</time>
      </trkpt>
      <trkpt lat="45.07776" lon="6.15754">
        <ele>1414.24</ele>
        <time>2013-07-14T12:08:11Z</time>
      </trkpt>
      <trkpt lat="45.07766" lon="6.15757">
        <ele>1413.76</ele>
        <time>2013-07-14T12:08:19Z</time>
      </trkpt>
      <trkpt lat="45.07763" lon="6.15756">
        <ele>1413.76</ele>
        <time>2013-07-14T12:08:22Z</time>
      </trkpt>
      <trkpt lat="45.07744" lon="6.15759">
        <ele>1413.28</ele>
        <time>2013-07-14T12:08:37Z</time>
      </trkpt>
      <trkpt lat="45.0774" lon="6.15759">
        <ele>1412.79</ele>
        <time>2013-07-14T12:08:40Z</time>
      </trkpt>
      <trkpt lat="45.07724" lon="6.15755">
        <ele>1412.79</ele>
        <time>2013-07-14T12:08:54Z</time>
      </trkpt>
      <trkpt lat="45.07711" lon="6.15754">
        <ele>1413.28</ele>
        <time>2013-07-14T12:09:03Z</time>
      </trkpt>
      <trkpt lat="45.077" lon="6.15753">
        <ele>1414.24</ele>
        <time>2013-07-14T12:09:13Z</time>
      </trkpt>
      <trkpt lat="45.07684" lon="6.15747">
        <ele>1417.12</ele>
        <time>2013-07-14T12:09:29Z</time>
      </trkpt>
      <trkpt lat="45.07668" lon="6.15743">
        <ele>1420</ele>
        <time>2013-07-14T12:09:46Z</time>
      </trkpt>
      <trkpt lat="45.07652" lon="6.15741">
        <ele>1420.97</ele>
        <time>2013-07-14T12:10:00Z</time>
      </trkpt>
      <trkpt lat="45.07632" lon="6.15731">
        <ele>1420.97</ele>
        <time>2013-07-14T12:10:16Z</time>
      </trkpt>
      <trkpt lat="45.07617" lon="6.15721">
        <ele>1420.97</ele>
        <time>2013-07-14T12:10:31Z</time>
      </trkpt>
      <trkpt lat="45.07599" lon="6.15716">
        <ele>1420.49</ele>
        <time>2013-07-14T12:10:49Z</time>
      </trkpt>
      <trkpt lat="45.07588" lon="6.15715">
        <ele>1420.49</ele>
        <time>2013-07-14T12:11:01Z</time>
      </trkpt>
      <trkpt lat="45.07567" lon="6.15713">
        <ele>1420.49</ele>
        <time>2013-07-14T12:11:19Z</time>
      </trkpt>
      <trkpt lat="45.07542" lon="6.15722">
        <ele>1420</ele>
        <time>2013-07-14T12:11:37Z</time>
      </trkpt>
      <trkpt lat="45.07527" lon="6.15736">
        <ele>1417.12</ele>
        <time>2013-07-14T12:11:51Z</time>
      </trkpt>
      <trkpt lat="45.07525" lon="6.15741">
        <ele>1415.68</ele>
        <time>2013-07-14T12:11:56Z</time>
      </trkpt>
      <trkpt lat="45.07514" lon="6.15749">
        <ele>1414.72</ele>
        <time>2013-07-14T12:12:06Z</time>
      </trkpt>
      <trkpt lat="45.07511" lon="6.15753">
        <ele>1412.79</ele>
        <time>2013-07-14T12:12:09Z</time>
      </trkpt>
      <trkpt lat="45.07506" lon="6.15755">
        <ele>1412.31</ele>
        <time>2013-07-14T12:12:13Z</time>
      </trkpt>
      <trkpt lat="45.07483" lon="6.15753">
        <ele>1410.39</ele>
        <time>2013-07-14T12:12:29Z</time>
      </trkpt>
      <trkpt lat="45.07463" lon="6.1574">
        <ele>1410.39</ele>
        <time>2013-07-14T12:12:45Z</time>
      </trkpt>
      <trkpt lat="45.07455" lon="6.15737">
        <ele>1409.91</ele>
        <time>2013-07-14T12:12:51Z</time>
      </trkpt>
      <trkpt lat="45.07439" lon="6.15729">
        <ele>1407.51</ele>
        <time>2013-07-14T12:13:03Z</time>
      </trkpt>
      <trkpt lat="45.07426" lon="6.15715">
        <ele>1404.14</ele>
        <time>2013-07-14T12:13:16Z</time>
      </trkpt>
      <trkpt lat="45.07422" lon="6.15712">
        <ele>1404.14</ele>
        <time>2013-07-14T12:13:19Z</time>
      </trkpt>
      <trkpt lat="45.07411" lon="6.15703">
        <ele>1402.7</ele>
        <time>2013-07-14T12:13:29Z</time>
      </trkpt>
      <trkpt lat="45.07405" lon="6.15699">
        <ele>1401.74</ele>
        <time>2013-07-14T12:13:34Z</time>
      </trkpt>
      <trkpt lat="45.0739" lon="6.15691">
        <ele>1397.89</ele>
        <time>2013-07-14T12:13:48Z</time>
      </trkpt>
      <trkpt lat="45.07382" lon="6.15684">
        <ele>1395.49</ele>
        <time>2013-07-14T12:13:56Z</time>
      </trkpt>
      <trkpt lat="45.0737" lon="6.15675">
        <ele>1392.61</ele>
        <time>2013-07-14T12:14:08Z</time>
      </trkpt>
      <trkpt lat="45.07363" lon="6.15674">
        <ele>1391.17</ele>
        <time>2013-07-14T12:14:14Z</time>
      </trkpt>
      <trkpt lat="45.07347" lon="6.15675">
        <ele>1389.72</ele>
        <time>2013-07-14T12:14:26Z</time>
      </trkpt>
      <trkpt lat="45.07338" lon="6.15674">
        <ele>1388.76</ele>
        <time>2013-07-14T12:14:33Z</time>
      </trkpt>
      <trkpt lat="45.07325" lon="6.15674">
        <ele>1386.84</ele>
        <time>2013-07-14T12:14:44Z</time>
      </trkpt>
      <trkpt lat="45.07307" lon="6.15667">
        <ele>1384.44</ele>
        <time>2013-07-14T12:14:59Z</time>
      </trkpt>
      <trkpt lat="45.073" lon="6.15668">
        <ele>1383.47</ele>
        <time>2013-07-14T12:15:05Z</time>
      </trkpt>
      <trkpt lat="45.07295" lon="6.15668">
        <ele>1383.47</ele>
        <time>2013-07-14T12:15:09Z</time>
      </trkpt>
      <trkpt lat="45.07271" lon="6.15653">
        <ele>1382.99</ele>
        <time>2013-07-14T12:15:29Z</time>
      </trkpt>
      <trkpt lat="45.07255" lon="6.15638">
        <ele>1382.51</ele>
        <time>2013-07-14T12:15:44Z</time>
      </trkpt>
      <trkpt lat="45.07233" lon="6.15619">
        <ele>1382.51</ele>
        <time>2013-07-14T12:16:04Z</time>
      </trkpt>
      <trkpt lat="45.07233" lon="6.15618">
        <ele>1382.99</ele>
        <time>2013-07-14T12:16:05Z</time>
      </trkpt>
      <trkpt lat="45.07219" lon="6.15606">
        <ele>1381.55</ele>
        <time>2013-07-14T12:16:17Z</time>
      </trkpt>
      <trkpt lat="45.07201" lon="6.1559">
        <ele>1379.63</ele>
        <time>2013-07-14T12:16:34Z</time>
      </trkpt>
      <trkpt lat="45.07195" lon="6.15584">
        <ele>1380.11</ele>
        <time>2013-07-14T12:16:47Z</time>
      </trkpt>
      <trkpt lat="45.07179" lon="6.15568">
        <ele>1378.19</ele>
        <time>2013-07-14T12:17:03Z</time>
      </trkpt>
      <trkpt lat="45.07175" lon="6.15565">
        <ele>1376.75</ele>
        <time>2013-07-14T12:17:06Z</time>
      </trkpt>
      <trkpt lat="45.07169" lon="6.15556">
        <ele>1375.3</ele>
        <time>2013-07-14T12:17:13Z</time>
      </trkpt>
      <trkpt lat="45.07153" lon="6.1553">
        <ele>1375.3</ele>
        <time>2013-07-14T12:17:31Z</time>
      </trkpt>
      <trkpt lat="45.07148" lon="6.15522">
        <ele>1375.3</ele>
        <time>2013-07-14T12:17:37Z</time>
      </trkpt>
      <trkpt lat="45.07147" lon="6.1551">
        <ele>1376.75</ele>
        <time>2013-07-14T12:17:57Z</time>
      </trkpt>
      <trkpt lat="45.07145" lon="6.15515">
        <ele>1375.3</ele>
        <time>2013-07-14T12:18:11Z</time>
      </trkpt>
      <trkpt lat="45.07145" lon="6.15515">
        <ele>1375.3</ele>
        <time>2013-07-14T12:18:36Z</time>
      </trkpt>
      <trkpt lat="45.07148" lon="6.15524">
        <ele>1374.34</ele>
        <time>2013-07-14T12:18:51Z</time>
      </trkpt>
      <trkpt lat="45.0715" lon="6.15527">
        <ele>1374.34</ele>
        <time>2013-07-14T12:19:36Z</time>
      </trkpt>
      <trkpt lat="45.07148" lon="6.15524">
        <ele>1374.34</ele>
        <time>2013-07-14T12:20:11Z</time>
      </trkpt>
      <trkpt lat="45.07148" lon="6.15518">
        <ele>1374.34</ele>
        <time>2013-07-14T12:20:18Z</time>
      </trkpt>
      <trkpt lat="45.07146" lon="6.15513">
        <ele>1374.82</ele>
        <time>2013-07-14T12:20:22Z</time>
      </trkpt>
      <trkpt lat="45.07147" lon="6.1551">
        <ele>1374.82</ele>
        <time>2013-07-14T12:20:24Z</time>
      </trkpt>
      <trkpt lat="45.07141" lon="6.15495">
        <ele>1375.78</ele>
        <time>2013-07-14T12:20:35Z</time>
      </trkpt>
      <trkpt lat="45.07134" lon="6.15475">
        <ele>1376.26</ele>
        <time>2013-07-14T12:20:48Z</time>
      </trkpt>
      <trkpt lat="45.07132" lon="6.15466">
        <ele>1376.26</ele>
        <time>2013-07-14T12:20:54Z</time>
      </trkpt>
      <trkpt lat="45.07137" lon="6.15463">
        <ele>1377.23</ele>
        <time>2013-07-14T12:21:01Z</time>
      </trkpt>
      <trkpt lat="45.07138" lon="6.15462">
        <ele>1376.75</ele>
        <time>2013-07-14T12:21:03Z</time>
      </trkpt>
      <trkpt lat="45.0715" lon="6.15453">
        <ele>1377.23</ele>
        <time>2013-07-14T12:21:18Z</time>
      </trkpt>
      <trkpt lat="45.07158" lon="6.1545">
        <ele>1377.23</ele>
        <time>2013-07-14T12:21:31Z</time>
      </trkpt>
      <trkpt lat="45.07158" lon="6.15448">
        <ele>1377.71</ele>
        <time>2013-07-14T12:21:46Z</time>
      </trkpt>
      <trkpt lat="45.07158" lon="6.15447">
        <ele>1375.78</ele>
        <time>2013-07-14T12:22:07Z</time>
      </trkpt>
      <trkpt lat="45.07158" lon="6.15447">
        <ele>1375.78</ele>
        <time>2013-07-14T12:23:08Z</time>
      </trkpt>
      <trkpt lat="45.07158" lon="6.15445">
        <ele>1375.78</ele>
        <time>2013-07-14T12:24:41Z</time>
      </trkpt>
      <trkpt lat="45.07158" lon="6.15446">
        <ele>1374.82</ele>
        <time>2013-07-14T12:28:20Z</time>
      </trkpt>
      <trkpt lat="45.07159" lon="6.15451">
        <ele>1372.42</ele>
        <time>2013-07-14T12:36:16Z</time>
      </trkpt>
      <trkpt lat="45.0716" lon="6.15451">
        <ele>1371.46</ele>
        <time>2013-07-14T12:39:16Z</time>
      </trkpt>
      <trkpt lat="45.07161" lon="6.15451">
        <ele>1371.46</ele>
        <time>2013-07-14T12:41:39Z</time>
      </trkpt>
      <trkpt lat="45.07161" lon="6.15451">
        <ele>1370.5</ele>
        <time>2013-07-14T12:43:01Z</time>
      </trkpt>
      <trkpt lat="45.07161" lon="6.1545">
        <ele>1369.54</ele>
        <time>2013-07-14T12:44:50Z</time>
      </trkpt>
      <trkpt lat="45.07161" lon="6.15452">
        <ele>1366.17</ele>
        <time>2013-07-14T12:45:30Z</time>
      </trkpt>
      <trkpt lat="45.07161" lon="6.15452">
        <ele>1371.46</ele>
        <time>2013-07-14T12:45:31Z</time>
      </trkpt>
      <trkpt lat="45.07161" lon="6.15452">
        <ele>1367.13</ele>
        <time>2013-07-14T12:45:36Z</time>
      </trkpt>
      <trkpt lat="45.07161" lon="6.15452">
        <ele>1358.48</ele>
        <time>2013-07-14T12:46:42Z</time>
      </trkpt>
      <trkpt lat="45.07161" lon="6.15452">
        <ele>1370.5</ele>
        <time>2013-07-14T12:46:44Z</time>
      </trkpt>
      <trkpt lat="45.07151" lon="6.15441">
        <ele>1368.57</ele>
        <time>2013-07-14T12:46:53Z</time>
      </trkpt>
      <trkpt lat="45.07149" lon="6.15443">
        <ele>1371.94</ele>
        <time>2013-07-14T12:48:18Z</time>
      </trkpt>
      <trkpt lat="45.07148" lon="6.15443">
        <ele>1371.46</ele>
        <time>2013-07-14T12:48:23Z</time>
      </trkpt>
      <trkpt lat="45.07147" lon="6.15453">
        <ele>1370.98</ele>
        <time>2013-07-14T12:48:33Z</time>
      </trkpt>
      <trkpt lat="45.07135" lon="6.15466">
        <ele>1370.98</ele>
        <time>2013-07-14T12:48:46Z</time>
      </trkpt>
      <trkpt lat="45.07135" lon="6.15472">
        <ele>1370.02</ele>
        <time>2013-07-14T12:48:51Z</time>
      </trkpt>
      <trkpt lat="45.07141" lon="6.15488">
        <ele>1370.02</ele>
        <time>2013-07-14T12:49:05Z</time>
      </trkpt>
      <trkpt lat="45.07146" lon="6.15503">
        <ele>1370.02</ele>
        <time>2013-07-14T12:49:18Z</time>
      </trkpt>
      <trkpt lat="45.07147" lon="6.15512">
        <ele>1368.57</ele>
        <time>2013-07-14T12:49:25Z</time>
      </trkpt>
      <trkpt lat="45.07145" lon="6.15516">
        <ele>1368.57</ele>
        <time>2013-07-14T12:49:41Z</time>
      </trkpt>
      <trkpt lat="45.07142" lon="6.15515">
        <ele>1368.57</ele>
        <time>2013-07-14T12:50:25Z</time>
      </trkpt>
      <trkpt lat="45.07126" lon="6.1551">
        <ele>1368.09</ele>
        <time>2013-07-14T12:50:39Z</time>
      </trkpt>
      <trkpt lat="45.07122" lon="6.1551">
        <ele>1367.61</ele>
        <time>2013-07-14T12:50:43Z</time>
      </trkpt>
      <trkpt lat="45.07109" lon="6.15515">
        <ele>1365.21</ele>
        <time>2013-07-14T12:50:57Z</time>
      </trkpt>
      <trkpt lat="45.07098" lon="6.15528">
        <ele>1361.84</ele>
        <time>2013-07-14T12:51:11Z</time>
      </trkpt>
      <trkpt lat="45.07101" lon="6.1553">
        <ele>1361.84</ele>
        <time>2013-07-14T12:51:13Z</time>
      </trkpt>
      <trkpt lat="45.07103" lon="6.15532">
        <ele>1361.84</ele>
        <time>2013-07-14T12:51:15Z</time>
      </trkpt>
      <trkpt lat="45.07114" lon="6.15547">
        <ele>1360.4</ele>
        <time>2013-07-14T12:51:29Z</time>
      </trkpt>
      <trkpt lat="45.07117" lon="6.15559">
        <ele>1357.52</ele>
        <time>2013-07-14T12:51:43Z</time>
      </trkpt>
      <trkpt lat="45.07121" lon="6.15567">
        <ele>1355.12</ele>
        <time>2013-07-14T12:51:54Z</time>
      </trkpt>
      <trkpt lat="45.0713" lon="6.15583">
        <ele>1352.23</ele>
        <time>2013-07-14T12:52:11Z</time>
      </trkpt>
      <trkpt lat="45.07124" lon="6.15588">
        <ele>1349.83</ele>
        <time>2013-07-14T12:52:26Z</time>
      </trkpt>
      <trkpt lat="45.07116" lon="6.15588">
        <ele>1348.87</ele>
        <time>2013-07-14T12:52:35Z</time>
      </trkpt>
      <trkpt lat="45.07112" lon="6.1559">
        <ele>1348.39</ele>
        <time>2013-07-14T12:52:40Z</time>
      </trkpt>
      <trkpt lat="45.07104" lon="6.15595">
        <ele>1345.5</ele>
        <time>2013-07-14T12:52:54Z</time>
      </trkpt>
      <trkpt lat="45.07101" lon="6.15595">
        <ele>1342.14</ele>
        <time>2013-07-14T12:53:03Z</time>
      </trkpt>
      <trkpt lat="45.07092" lon="6.15595">
        <ele>1339.73</ele>
        <time>2013-07-14T12:53:19Z</time>
      </trkpt>
      <trkpt lat="45.07087" lon="6.156">
        <ele>1338.29</ele>
        <time>2013-07-14T12:53:25Z</time>
      </trkpt>
      <trkpt lat="45.07077" lon="6.15606">
        <ele>1334.93</ele>
        <time>2013-07-14T12:53:42Z</time>
      </trkpt>
      <trkpt lat="45.07069" lon="6.15608">
        <ele>1332.52</ele>
        <time>2013-07-14T12:53:53Z</time>
      </trkpt>
      <trkpt lat="45.07064" lon="6.15611">
        <ele>1329.64</ele>
        <time>2013-07-14T12:54:09Z</time>
      </trkpt>
      <trkpt lat="45.07068" lon="6.15616">
        <ele>1326.28</ele>
        <time>2013-07-14T12:54:27Z</time>
      </trkpt>
      <trkpt lat="45.0707" lon="6.15623">
        <ele>1323.87</ele>
        <time>2013-07-14T12:54:43Z</time>
      </trkpt>
      <trkpt lat="45.07072" lon="6.15641">
        <ele>1321.95</ele>
        <time>2013-07-14T12:55:18Z</time>
      </trkpt>
      <trkpt lat="45.07074" lon="6.1566">
        <ele>1320.51</ele>
        <time>2013-07-14T12:55:32Z</time>
      </trkpt>
      <trkpt lat="45.07061" lon="6.1567">
        <ele>1317.14</ele>
        <time>2013-07-14T12:55:48Z</time>
      </trkpt>
      <trkpt lat="45.07043" lon="6.15679">
        <ele>1314.74</ele>
        <time>2013-07-14T12:56:01Z</time>
      </trkpt>
      <trkpt lat="45.07037" lon="6.15677">
        <ele>1312.82</ele>
        <time>2013-07-14T12:56:06Z</time>
      </trkpt>
      <trkpt lat="45.0703" lon="6.15669">
        <ele>1311.86</ele>
        <time>2013-07-14T12:56:17Z</time>
      </trkpt>
      <trkpt lat="45.07027" lon="6.1567">
        <ele>1311.38</ele>
        <time>2013-07-14T12:56:19Z</time>
      </trkpt>
      <trkpt lat="45.0702" lon="6.15678">
        <ele>1308.97</ele>
        <time>2013-07-14T12:56:26Z</time>
      </trkpt>
      <trkpt lat="45.07014" lon="6.15681">
        <ele>1306.57</ele>
        <time>2013-07-14T12:56:37Z</time>
      </trkpt>
      <trkpt lat="45.06998" lon="6.15683">
        <ele>1303.2</ele>
        <time>2013-07-14T12:56:53Z</time>
      </trkpt>
      <trkpt lat="45.06983" lon="6.15683">
        <ele>1299.84</ele>
        <time>2013-07-14T12:57:08Z</time>
      </trkpt>
      <trkpt lat="45.06966" lon="6.15673">
        <ele>1297.92</ele>
        <time>2013-07-14T12:57:23Z</time>
      </trkpt>
      <trkpt lat="45.06963" lon="6.15672">
        <ele>1297.92</ele>
        <time>2013-07-14T12:57:25Z</time>
      </trkpt>
      <trkpt lat="45.06955" lon="6.15667">
        <ele>1296.48</ele>
        <time>2013-07-14T12:57:32Z</time>
      </trkpt>
      <trkpt lat="45.06938" lon="6.15655">
        <ele>1294.07</ele>
        <time>2013-07-14T12:57:48Z</time>
      </trkpt>
      <trkpt lat="45.06937" lon="6.15653">
        <ele>1294.55</ele>
        <time>2013-07-14T12:58:06Z</time>
      </trkpt>
      <trkpt lat="45.06932" lon="6.15648">
        <ele>1294.07</ele>
        <time>2013-07-14T12:58:18Z</time>
      </trkpt>
      <trkpt lat="45.06925" lon="6.15643">
        <ele>1294.07</ele>
        <time>2013-07-14T12:58:24Z</time>
      </trkpt>
      <trkpt lat="45.06913" lon="6.15633">
        <ele>1292.63</ele>
        <time>2013-07-14T12:58:38Z</time>
      </trkpt>
      <trkpt lat="45.06901" lon="6.15629">
        <ele>1289.75</ele>
        <time>2013-07-14T12:58:50Z</time>
      </trkpt>
      <trkpt lat="45.069" lon="6.15627">
        <ele>1289.27</ele>
        <time>2013-07-14T12:58:52Z</time>
      </trkpt>
      <trkpt lat="45.06886" lon="6.15621">
        <ele>1286.38</ele>
        <time>2013-07-14T12:59:04Z</time>
      </trkpt>
      <trkpt lat="45.06879" lon="6.15618">
        <ele>1285.42</ele>
        <time>2013-07-14T12:59:09Z</time>
      </trkpt>
      <trkpt lat="45.06861" lon="6.15617">
        <ele>1283.5</ele>
        <time>2013-07-14T12:59:25Z</time>
      </trkpt>
      <trkpt lat="45.06854" lon="6.15617">
        <ele>1283.5</ele>
        <time>2013-07-14T12:59:30Z</time>
      </trkpt>
      <trkpt lat="45.06837" lon="6.15613">
        <ele>1281.09</ele>
        <time>2013-07-14T12:59:45Z</time>
      </trkpt>
      <trkpt lat="45.06833" lon="6.15612">
        <ele>1280.61</ele>
        <time>2013-07-14T13:00:00Z</time>
      </trkpt>
      <trkpt lat="45.06838" lon="6.15615">
        <ele>1280.61</ele>
        <time>2013-07-14T13:00:04Z</time>
      </trkpt>
      <trkpt lat="45.06841" lon="6.15618">
        <ele>1280.13</ele>
        <time>2013-07-14T13:00:07Z</time>
      </trkpt>
      <trkpt lat="45.06843" lon="6.15623">
        <ele>1280.13</ele>
        <time>2013-07-14T13:00:11Z</time>
      </trkpt>
      <trkpt lat="45.06847" lon="6.1563">
        <ele>1279.17</ele>
        <time>2013-07-14T13:00:16Z</time>
      </trkpt>
      <trkpt lat="45.06853" lon="6.15642">
        <ele>1279.17</ele>
        <time>2013-07-14T13:00:24Z</time>
      </trkpt>
      <trkpt lat="45.06857" lon="6.15645">
        <ele>1279.17</ele>
        <time>2013-07-14T13:00:27Z</time>
      </trkpt>
      <trkpt lat="45.06862" lon="6.15651">
        <ele>1279.17</ele>
        <time>2013-07-14T13:00:32Z</time>
      </trkpt>
      <trkpt lat="45.06874" lon="6.15659">
        <ele>1278.69</ele>
        <time>2013-07-14T13:00:43Z</time>
      </trkpt>
      <trkpt lat="45.06894" lon="6.15663">
        <ele>1279.17</ele>
        <time>2013-07-14T13:00:59Z</time>
      </trkpt>
      <trkpt lat="45.06903" lon="6.15673">
        <ele>1280.13</ele>
        <time>2013-07-14T13:01:09Z</time>
      </trkpt>
      <trkpt lat="45.06903" lon="6.15682">
        <ele>1279.65</ele>
        <time>2013-07-14T13:01:14Z</time>
      </trkpt>
      <trkpt lat="45.069" lon="6.15686">
        <ele>1279.65</ele>
        <time>2013-07-14T13:01:16Z</time>
      </trkpt>
      <trkpt lat="45.06899" lon="6.15696">
        <ele>1279.17</ele>
        <time>2013-07-14T13:01:22Z</time>
      </trkpt>
      <trkpt lat="45.06897" lon="6.15723">
        <ele>1280.61</ele>
        <time>2013-07-14T13:01:37Z</time>
      </trkpt>
      <trkpt lat="45.06898" lon="6.15743">
        <ele>1281.57</ele>
        <time>2013-07-14T13:01:48Z</time>
      </trkpt>
      <trkpt lat="45.069" lon="6.15755">
        <ele>1282.54</ele>
        <time>2013-07-14T13:02:04Z</time>
      </trkpt>
      <trkpt lat="45.069" lon="6.15757">
        <ele>1282.06</ele>
        <time>2013-07-14T13:02:09Z</time>
      </trkpt>
      <trkpt lat="45.06899" lon="6.15751">
        <ele>1283.98</ele>
        <time>2013-07-14T13:02:23Z</time>
      </trkpt>
      <trkpt lat="45.069" lon="6.15748">
        <ele>1285.42</ele>
        <time>2013-07-14T13:02:27Z</time>
      </trkpt>
      <trkpt lat="45.069" lon="6.15743">
        <ele>1286.38</ele>
        <time>2013-07-14T13:02:35Z</time>
      </trkpt>
      <trkpt lat="45.06903" lon="6.15729">
        <ele>1289.27</ele>
        <time>2013-07-14T13:02:48Z</time>
      </trkpt>
      <trkpt lat="45.06912" lon="6.15723">
        <ele>1291.19</ele>
        <time>2013-07-14T13:03:01Z</time>
      </trkpt>
      <trkpt lat="45.0692" lon="6.15728">
        <ele>1292.63</ele>
        <time>2013-07-14T13:03:15Z</time>
      </trkpt>
      <trkpt lat="45.06921" lon="6.15729">
        <ele>1295.51</ele>
        <time>2013-07-14T13:03:31Z</time>
      </trkpt>
      <trkpt lat="45.0692" lon="6.1573">
        <ele>1298.4</ele>
        <time>2013-07-14T13:03:47Z</time>
      </trkpt>
      <trkpt lat="45.06925" lon="6.15733">
        <ele>1299.36</ele>
        <time>2013-07-14T13:04:02Z</time>
      </trkpt>
      <trkpt lat="45.06931" lon="6.15738">
        <ele>1302.24</ele>
        <time>2013-07-14T13:04:11Z</time>
      </trkpt>
      <trkpt lat="45.06935" lon="6.15742">
        <ele>1304.17</ele>
        <time>2013-07-14T13:04:24Z</time>
      </trkpt>
      <trkpt lat="45.06935" lon="6.15747">
        <ele>1306.09</ele>
        <time>2013-07-14T13:04:41Z</time>
      </trkpt>
      <trkpt lat="45.06939" lon="6.15753">
        <ele>1308.01</ele>
        <time>2013-07-14T13:04:56Z</time>
      </trkpt>
      <trkpt lat="45.06944" lon="6.15753">
        <ele>1311.38</ele>
        <time>2013-07-14T13:05:08Z</time>
      </trkpt>
      <trkpt lat="45.0694" lon="6.15762">
        <ele>1312.34</ele>
        <time>2013-07-14T13:05:23Z</time>
      </trkpt>
      <trkpt lat="45.06937" lon="6.15767">
        <ele>1315.22</ele>
        <time>2013-07-14T13:05:38Z</time>
      </trkpt>
      <trkpt lat="45.0695" lon="6.15777">
        <ele>1317.14</ele>
        <time>2013-07-14T13:05:54Z</time>
      </trkpt>
      <trkpt lat="45.06952" lon="6.15777">
        <ele>1317.62</ele>
        <time>2013-07-14T13:05:57Z</time>
      </trkpt>
      <trkpt lat="45.06967" lon="6.15781">
        <ele>1319.55</ele>
        <time>2013-07-14T13:06:16Z</time>
      </trkpt>
      <trkpt lat="45.06973" lon="6.15789">
        <ele>1322.43</ele>
        <time>2013-07-14T13:06:32Z</time>
      </trkpt>
      <trkpt lat="45.06982" lon="6.1579">
        <ele>1324.83</ele>
        <time>2013-07-14T13:06:47Z</time>
      </trkpt>
      <trkpt lat="45.06988" lon="6.15788">
        <ele>1327.24</ele>
        <time>2013-07-14T13:07:00Z</time>
      </trkpt>
      <trkpt lat="45.07001" lon="6.15792">
        <ele>1329.64</ele>
        <time>2013-07-14T13:07:16Z</time>
      </trkpt>
      <trkpt lat="45.07003" lon="6.15795">
        <ele>1330.12</ele>
        <time>2013-07-14T13:07:31Z</time>
      </trkpt>
      <trkpt lat="45.07003" lon="6.15795">
        <ele>1330.6</ele>
        <time>2013-07-14T13:08:50Z</time>
      </trkpt>
      <trkpt lat="45.07001" lon="6.15798">
        <ele>1332.04</ele>
        <time>2013-07-14T13:09:58Z</time>
      </trkpt>
      <trkpt lat="45.06997" lon="6.15798">
        <ele>1333.97</ele>
        <time>2013-07-14T13:10:14Z</time>
      </trkpt>
      <trkpt lat="45.06998" lon="6.15803">
        <ele>1335.41</ele>
        <time>2013-07-14T13:10:30Z</time>
      </trkpt>
      <trkpt lat="45.07003" lon="6.15811">
        <ele>1337.33</ele>
        <time>2013-07-14T13:10:43Z</time>
      </trkpt>
      <trkpt lat="45.07006" lon="6.15812">
        <ele>1339.73</ele>
        <time>2013-07-14T13:10:57Z</time>
      </trkpt>
      <trkpt lat="45.07006" lon="6.15816">
        <ele>1341.18</ele>
        <time>2013-07-14T13:11:10Z</time>
      </trkpt>
      <trkpt lat="45.07005" lon="6.15821">
        <ele>1341.66</ele>
        <time>2013-07-14T13:11:25Z</time>
      </trkpt>
      <trkpt lat="45.0701" lon="6.15828">
        <ele>1343.58</ele>
        <time>2013-07-14T13:11:46Z</time>
      </trkpt>
      <trkpt lat="45.0701" lon="6.1583">
        <ele>1345.02</ele>
        <time>2013-07-14T13:11:54Z</time>
      </trkpt>
      <trkpt lat="45.07015" lon="6.15843">
        <ele>1346.94</ele>
        <time>2013-07-14T13:12:09Z</time>
      </trkpt>
      <trkpt lat="45.07017" lon="6.15845">
        <ele>1349.35</ele>
        <time>2013-07-14T13:12:26Z</time>
      </trkpt>
      <trkpt lat="45.07017" lon="6.15845">
        <ele>1351.75</ele>
        <time>2013-07-14T13:12:41Z</time>
      </trkpt>
      <trkpt lat="45.07017" lon="6.15853">
        <ele>1351.75</ele>
        <time>2013-07-14T13:13:08Z</time>
      </trkpt>
      <trkpt lat="45.07023" lon="6.15855">
        <ele>1354.15</ele>
        <time>2013-07-14T13:13:25Z</time>
      </trkpt>
      <trkpt lat="45.07033" lon="6.15859">
        <ele>1355.6</ele>
        <time>2013-07-14T13:13:43Z</time>
      </trkpt>
      <trkpt lat="45.07037" lon="6.1587">
        <ele>1357.04</ele>
        <time>2013-07-14T13:14:01Z</time>
      </trkpt>
      <trkpt lat="45.07042" lon="6.15876">
        <ele>1359.44</ele>
        <time>2013-07-14T13:14:15Z</time>
      </trkpt>
      <trkpt lat="45.07051" lon="6.15877">
        <ele>1362.33</ele>
        <time>2013-07-14T13:14:32Z</time>
      </trkpt>
      <trkpt lat="45.07052" lon="6.15882">
        <ele>1363.77</ele>
        <time>2013-07-14T13:14:48Z</time>
      </trkpt>
      <trkpt lat="45.0705" lon="6.15886">
        <ele>1365.21</ele>
        <time>2013-07-14T13:15:38Z</time>
      </trkpt>
      <trkpt lat="45.07052" lon="6.15888">
        <ele>1366.65</ele>
        <time>2013-07-14T13:15:53Z</time>
      </trkpt>
      <trkpt lat="45.07058" lon="6.15892">
        <ele>1369.54</ele>
        <time>2013-07-14T13:16:11Z</time>
      </trkpt>
      <trkpt lat="45.07066" lon="6.15898">
        <ele>1370.5</ele>
        <time>2013-07-14T13:16:26Z</time>
      </trkpt>
      <trkpt lat="45.07067" lon="6.15897">
        <ele>1370.98</ele>
        <time>2013-07-14T13:16:29Z</time>
      </trkpt>
      <trkpt lat="45.07078" lon="6.15899">
        <ele>1373.38</ele>
        <time>2013-07-14T13:16:47Z</time>
      </trkpt>
      <trkpt lat="45.07081" lon="6.15901">
        <ele>1374.82</ele>
        <time>2013-07-14T13:17:00Z</time>
      </trkpt>
      <trkpt lat="45.0708" lon="6.15907">
        <ele>1376.75</ele>
        <time>2013-07-14T13:17:15Z</time>
      </trkpt>
      <trkpt lat="45.07074" lon="6.1591">
        <ele>1378.67</ele>
        <time>2013-07-14T13:17:31Z</time>
      </trkpt>
      <trkpt lat="45.07073" lon="6.15914">
        <ele>1379.63</ele>
        <time>2013-07-14T13:17:48Z</time>
      </trkpt>
      <trkpt lat="45.07078" lon="6.15919">
        <ele>1381.07</ele>
        <time>2013-07-14T13:18:07Z</time>
      </trkpt>
      <trkpt lat="45.07083" lon="6.15921">
        <ele>1383.47</ele>
        <time>2013-07-14T13:18:23Z</time>
      </trkpt>
      <trkpt lat="45.0708" lon="6.15934">
        <ele>1385.4</ele>
        <time>2013-07-14T13:18:40Z</time>
      </trkpt>
      <trkpt lat="45.07079" lon="6.15937">
        <ele>1387.32</ele>
        <time>2013-07-14T13:19:00Z</time>
      </trkpt>
      <trkpt lat="45.07083" lon="6.15943">
        <ele>1388.76</ele>
        <time>2013-07-14T13:19:19Z</time>
      </trkpt>
      <trkpt lat="45.07082" lon="6.15943">
        <ele>1388.76</ele>
        <time>2013-07-14T13:19:53Z</time>
      </trkpt>
      <trkpt lat="45.07078" lon="6.15946">
        <ele>1392.13</ele>
        <time>2013-07-14T13:21:23Z</time>
      </trkpt>
      <trkpt lat="45.07073" lon="6.15944">
        <ele>1394.53</ele>
        <time>2013-07-14T13:21:48Z</time>
      </trkpt>
      <trkpt lat="45.07064" lon="6.15956">
        <ele>1396.45</ele>
        <time>2013-07-14T13:22:09Z</time>
      </trkpt>
      <trkpt lat="45.07066" lon="6.15962">
        <ele>1398.86</ele>
        <time>2013-07-14T13:22:29Z</time>
      </trkpt>
      <trkpt lat="45.07069" lon="6.15972">
        <ele>1401.26</ele>
        <time>2013-07-14T13:22:47Z</time>
      </trkpt>
      <trkpt lat="45.07073" lon="6.15981">
        <ele>1402.7</ele>
        <time>2013-07-14T13:23:05Z</time>
      </trkpt>
      <trkpt lat="45.07078" lon="6.1599">
        <ele>1405.1</ele>
        <time>2013-07-14T13:23:21Z</time>
      </trkpt>
      <trkpt lat="45.07081" lon="6.15994">
        <ele>1407.03</ele>
        <time>2013-07-14T13:23:39Z</time>
      </trkpt>
      <trkpt lat="45.07085" lon="6.16004">
        <ele>1408.95</ele>
        <time>2013-07-14T13:23:55Z</time>
      </trkpt>
      <trkpt lat="45.07088" lon="6.16015">
        <ele>1411.35</ele>
        <time>2013-07-14T13:24:11Z</time>
      </trkpt>
      <trkpt lat="45.07086" lon="6.16027">
        <ele>1413.76</ele>
        <time>2013-07-14T13:24:30Z</time>
      </trkpt>
      <trkpt lat="45.07079" lon="6.16022">
        <ele>1415.68</ele>
        <time>2013-07-14T13:24:45Z</time>
      </trkpt>
      <trkpt lat="45.07079" lon="6.1602">
        <ele>1417.12</ele>
        <time>2013-07-14T13:25:00Z</time>
      </trkpt>
      <trkpt lat="45.07083" lon="6.16032">
        <ele>1418.56</ele>
        <time>2013-07-14T13:25:18Z</time>
      </trkpt>
      <trkpt lat="45.07084" lon="6.16048">
        <ele>1420</ele>
        <time>2013-07-14T13:25:36Z</time>
      </trkpt>
      <trkpt lat="45.0708" lon="6.16059">
        <ele>1422.41</ele>
        <time>2013-07-14T13:25:54Z</time>
      </trkpt>
      <trkpt lat="45.07077" lon="6.16073">
        <ele>1424.33</ele>
        <time>2013-07-14T13:26:12Z</time>
      </trkpt>
      <trkpt lat="45.07074" lon="6.16081">
        <ele>1427.21</ele>
        <time>2013-07-14T13:26:29Z</time>
      </trkpt>
      <trkpt lat="45.07076" lon="6.16084">
        <ele>1426.73</ele>
        <time>2013-07-14T13:27:11Z</time>
      </trkpt>
      <trkpt lat="45.07076" lon="6.16085">
        <ele>1426.73</ele>
        <time>2013-07-14T13:27:48Z</time>
      </trkpt>
      <trkpt lat="45.07081" lon="6.16089">
        <ele>1427.21</ele>
        <time>2013-07-14T13:27:55Z</time>
      </trkpt>
      <trkpt lat="45.07086" lon="6.16103">
        <ele>1429.62</ele>
        <time>2013-07-14T13:28:12Z</time>
      </trkpt>
      <trkpt lat="45.07089" lon="6.16114">
        <ele>1432.5</ele>
        <time>2013-07-14T13:28:27Z</time>
      </trkpt>
      <trkpt lat="45.07089" lon="6.16114">
        <ele>1432.98</ele>
        <time>2013-07-14T13:28:59Z</time>
      </trkpt>
      <trkpt lat="45.07089" lon="6.16116">
        <ele>1432.98</ele>
        <time>2013-07-14T13:30:03Z</time>
      </trkpt>
      <trkpt lat="45.07088" lon="6.16117">
        <ele>1432.98</ele>
        <time>2013-07-14T13:31:24Z</time>
      </trkpt>
      <trkpt lat="45.07089" lon="6.16117">
        <ele>1433.94</ele>
        <time>2013-07-14T13:32:20Z</time>
      </trkpt>
      <trkpt lat="45.0709" lon="6.16117">
        <ele>1433.46</ele>
        <time>2013-07-14T13:33:08Z</time>
      </trkpt>
      <trkpt lat="45.0709" lon="6.16117">
        <ele>1433.46</ele>
        <time>2013-07-14T13:33:21Z</time>
      </trkpt>
      <trkpt lat="45.07093" lon="6.16128">
        <ele>1434.91</ele>
        <time>2013-07-14T13:33:35Z</time>
      </trkpt>
      <trkpt lat="45.07097" lon="6.16137">
        <ele>1436.35</ele>
        <time>2013-07-14T13:33:50Z</time>
      </trkpt>
      <trkpt lat="45.071" lon="6.16145">
        <ele>1438.27</ele>
        <time>2013-07-14T13:34:06Z</time>
      </trkpt>
      <trkpt lat="45.07101" lon="6.16153">
        <ele>1441.63</ele>
        <time>2013-07-14T13:34:21Z</time>
      </trkpt>
      <trkpt lat="45.07102" lon="6.16158">
        <ele>1441.15</ele>
        <time>2013-07-14T13:34:30Z</time>
      </trkpt>
      <trkpt lat="45.07101" lon="6.16171">
        <ele>1445</ele>
        <time>2013-07-14T13:34:47Z</time>
      </trkpt>
      <trkpt lat="45.07104" lon="6.1618">
        <ele>1445.96</ele>
        <time>2013-07-14T13:35:02Z</time>
      </trkpt>
      <trkpt lat="45.07107" lon="6.16195">
        <ele>1448.84</ele>
        <time>2013-07-14T13:35:20Z</time>
      </trkpt>
      <trkpt lat="45.07108" lon="6.16205">
        <ele>1449.81</ele>
        <time>2013-07-14T13:35:32Z</time>
      </trkpt>
      <trkpt lat="45.07106" lon="6.16228">
        <ele>1451.73</ele>
        <time>2013-07-14T13:35:49Z</time>
      </trkpt>
      <trkpt lat="45.07107" lon="6.16244">
        <ele>1453.17</ele>
        <time>2013-07-14T13:36:05Z</time>
      </trkpt>
      <trkpt lat="45.07106" lon="6.1626">
        <ele>1454.13</ele>
        <time>2013-07-14T13:36:20Z</time>
      </trkpt>
      <trkpt lat="45.07105" lon="6.16272">
        <ele>1455.09</ele>
        <time>2013-07-14T13:36:30Z</time>
      </trkpt>
      <trkpt lat="45.07105" lon="6.1629">
        <ele>1456.53</ele>
        <time>2013-07-14T13:36:47Z</time>
      </trkpt>
      <trkpt lat="45.07106" lon="6.163">
        <ele>1457.02</ele>
        <time>2013-07-14T13:37:03Z</time>
      </trkpt>
      <trkpt lat="45.07106" lon="6.163">
        <ele>1457.02</ele>
        <time>2013-07-14T13:37:11Z</time>
      </trkpt>
      <trkpt lat="45.07112" lon="6.16311">
        <ele>1458.94</ele>
        <time>2013-07-14T13:37:26Z</time>
      </trkpt>
      <trkpt lat="45.07115" lon="6.16325">
        <ele>1460.38</ele>
        <time>2013-07-14T13:37:45Z</time>
      </trkpt>
      <trkpt lat="45.07117" lon="6.1634">
        <ele>1463.26</ele>
        <time>2013-07-14T13:38:02Z</time>
      </trkpt>
      <trkpt lat="45.07116" lon="6.16356">
        <ele>1465.67</ele>
        <time>2013-07-14T13:38:22Z</time>
      </trkpt>
      <trkpt lat="45.07116" lon="6.16371">
        <ele>1467.59</ele>
        <time>2013-07-14T13:38:38Z</time>
      </trkpt>
      <trkpt lat="45.07113" lon="6.16385">
        <ele>1469.51</ele>
        <time>2013-07-14T13:38:55Z</time>
      </trkpt>
      <trkpt lat="45.0711" lon="6.16401">
        <ele>1470.95</ele>
        <time>2013-07-14T13:39:12Z</time>
      </trkpt>
      <trkpt lat="45.07108" lon="6.16406">
        <ele>1471.44</ele>
        <time>2013-07-14T13:39:16Z</time>
      </trkpt>
      <trkpt lat="45.07106" lon="6.1643">
        <ele>1472.4</ele>
        <time>2013-07-14T13:39:35Z</time>
      </trkpt>
      <trkpt lat="45.07108" lon="6.16447">
        <ele>1472.4</ele>
        <time>2013-07-14T13:39:50Z</time>
      </trkpt>
      <trkpt lat="45.07111" lon="6.16463">
        <ele>1471.92</ele>
        <time>2013-07-14T13:40:08Z</time>
      </trkpt>
      <trkpt lat="45.07118" lon="6.16475">
        <ele>1472.88</ele>
        <time>2013-07-14T13:40:24Z</time>
      </trkpt>
      <trkpt lat="45.0712" lon="6.1648">
        <ele>1473.36</ele>
        <time>2013-07-14T13:40:30Z</time>
      </trkpt>
      <trkpt lat="45.07126" lon="6.16487">
        <ele>1474.32</ele>
        <time>2013-07-14T13:40:39Z</time>
      </trkpt>
      <trkpt lat="45.07132" lon="6.16499">
        <ele>1475.76</ele>
        <time>2013-07-14T13:40:54Z</time>
      </trkpt>
      <trkpt lat="45.07144" lon="6.16517">
        <ele>1477.2</ele>
        <time>2013-07-14T13:41:14Z</time>
      </trkpt>
      <trkpt lat="45.0715" lon="6.16536">
        <ele>1479.61</ele>
        <time>2013-07-14T13:41:32Z</time>
      </trkpt>
      <trkpt lat="45.07154" lon="6.16554">
        <ele>1481.53</ele>
        <time>2013-07-14T13:41:52Z</time>
      </trkpt>
      <trkpt lat="45.07154" lon="6.16558">
        <ele>1482.01</ele>
        <time>2013-07-14T13:42:12Z</time>
      </trkpt>
      <trkpt lat="45.07152" lon="6.16564">
        <ele>1483.45</ele>
        <time>2013-07-14T13:42:33Z</time>
      </trkpt>
      <trkpt lat="45.07146" lon="6.1658">
        <ele>1484.89</ele>
        <time>2013-07-14T13:42:51Z</time>
      </trkpt>
      <trkpt lat="45.0714" lon="6.16597">
        <ele>1486.82</ele>
        <time>2013-07-14T13:43:08Z</time>
      </trkpt>
      <trkpt lat="45.07138" lon="6.1661">
        <ele>1487.3</ele>
        <time>2013-07-14T13:43:22Z</time>
      </trkpt>
      <trkpt lat="45.07132" lon="6.16624">
        <ele>1489.22</ele>
        <time>2013-07-14T13:43:42Z</time>
      </trkpt>
      <trkpt lat="45.07135" lon="6.16645">
        <ele>1490.66</ele>
        <time>2013-07-14T13:44:01Z</time>
      </trkpt>
      <trkpt lat="45.07135" lon="6.16659">
        <ele>1492.1</ele>
        <time>2013-07-14T13:44:17Z</time>
      </trkpt>
      <trkpt lat="45.07138" lon="6.16665">
        <ele>1495.47</ele>
        <time>2013-07-14T13:44:32Z</time>
      </trkpt>
      <trkpt lat="45.07137" lon="6.16675">
        <ele>1496.43</ele>
        <time>2013-07-14T13:44:47Z</time>
      </trkpt>
      <trkpt lat="45.07138" lon="6.16686">
        <ele>1498.83</ele>
        <time>2013-07-14T13:45:03Z</time>
      </trkpt>
      <trkpt lat="45.07138" lon="6.16696">
        <ele>1500.76</ele>
        <time>2013-07-14T13:45:19Z</time>
      </trkpt>
      <trkpt lat="45.07136" lon="6.1671">
        <ele>1503.64</ele>
        <time>2013-07-14T13:45:36Z</time>
      </trkpt>
      <trkpt lat="45.07133" lon="6.16719">
        <ele>1506.04</ele>
        <time>2013-07-14T13:45:51Z</time>
      </trkpt>
      <trkpt lat="45.07132" lon="6.1673">
        <ele>1507.48</ele>
        <time>2013-07-14T13:46:08Z</time>
      </trkpt>
      <trkpt lat="45.07135" lon="6.16742">
        <ele>1509.41</ele>
        <time>2013-07-14T13:46:24Z</time>
      </trkpt>
      <trkpt lat="45.07133" lon="6.1676">
        <ele>1511.33</ele>
        <time>2013-07-14T13:46:42Z</time>
      </trkpt>
      <trkpt lat="45.07127" lon="6.16777">
        <ele>1513.25</ele>
        <time>2013-07-14T13:47:01Z</time>
      </trkpt>
      <trkpt lat="45.07125" lon="6.16792">
        <ele>1515.18</ele>
        <time>2013-07-14T13:47:17Z</time>
      </trkpt>
      <trkpt lat="45.07125" lon="6.16804">
        <ele>1516.62</ele>
        <time>2013-07-14T13:47:30Z</time>
      </trkpt>
      <trkpt lat="45.07115" lon="6.16815">
        <ele>1519.02</ele>
        <time>2013-07-14T13:47:47Z</time>
      </trkpt>
      <trkpt lat="45.07114" lon="6.16817">
        <ele>1519.98</ele>
        <time>2013-07-14T13:48:13Z</time>
      </trkpt>
      <trkpt lat="45.07114" lon="6.16817">
        <ele>1519.98</ele>
        <time>2013-07-14T13:48:55Z</time>
      </trkpt>
      <trkpt lat="45.07111" lon="6.16817">
        <ele>1519.98</ele>
        <time>2013-07-14T13:49:37Z</time>
      </trkpt>
      <trkpt lat="45.07108" lon="6.16817">
        <ele>1519.98</ele>
        <time>2013-07-14T13:49:56Z</time>
      </trkpt>
      <trkpt lat="45.0711" lon="6.16817">
        <ele>1520.46</ele>
        <time>2013-07-14T13:50:24Z</time>
      </trkpt>
      <trkpt lat="45.07112" lon="6.16816">
        <ele>1519.98</ele>
        <time>2013-07-14T13:50:41Z</time>
      </trkpt>
      <trkpt lat="45.07118" lon="6.16817">
        <ele>1520.94</ele>
        <time>2013-07-14T13:51:07Z</time>
      </trkpt>
      <trkpt lat="45.07111" lon="6.16816">
        <ele>1520.46</ele>
        <time>2013-07-14T13:51:23Z</time>
      </trkpt>
      <trkpt lat="45.07104" lon="6.16819">
        <ele>1519.98</ele>
        <time>2013-07-14T13:52:03Z</time>
      </trkpt>
      <trkpt lat="45.07109" lon="6.16816">
        <ele>1520.94</ele>
        <time>2013-07-14T13:52:22Z</time>
      </trkpt>
      <trkpt lat="45.0711" lon="6.16816">
        <ele>1520.94</ele>
        <time>2013-07-14T13:53:02Z</time>
      </trkpt>
      <trkpt lat="45.07115" lon="6.16808">
        <ele>1519.5</ele>
        <time>2013-07-14T13:53:39Z</time>
      </trkpt>
      <trkpt lat="45.07118" lon="6.16802">
        <ele>1519.02</ele>
        <time>2013-07-14T13:53:56Z</time>
      </trkpt>
      <trkpt lat="45.07116" lon="6.16813">
        <ele>1520.46</ele>
        <time>2013-07-14T13:54:30Z</time>
      </trkpt>
      <trkpt lat="45.07113" lon="6.16814">
        <ele>1520.94</ele>
        <time>2013-07-14T13:54:54Z</time>
      </trkpt>
      <trkpt lat="45.07114" lon="6.16816">
        <ele>1521.42</ele>
        <time>2013-07-14T13:55:17Z</time>
      </trkpt>
      <trkpt lat="45.07115" lon="6.16821">
        <ele>1521.9</ele>
        <time>2013-07-14T13:55:51Z</time>
      </trkpt>
      <trkpt lat="45.07111" lon="6.16838">
        <ele>1523.35</ele>
        <time>2013-07-14T13:56:09Z</time>
      </trkpt>
      <trkpt lat="45.07108" lon="6.16854">
        <ele>1525.75</ele>
        <time>2013-07-14T13:56:29Z</time>
      </trkpt>
      <trkpt lat="45.07107" lon="6.16869">
        <ele>1527.67</ele>
        <time>2013-07-14T13:56:46Z</time>
      </trkpt>
      <trkpt lat="45.07103" lon="6.16884">
        <ele>1529.59</ele>
        <time>2013-07-14T13:57:06Z</time>
      </trkpt>
      <trkpt lat="45.07099" lon="6.16895">
        <ele>1531.04</ele>
        <time>2013-07-14T13:57:22Z</time>
      </trkpt>
      <trkpt lat="45.07094" lon="6.16901">
        <ele>1532</ele>
        <time>2013-07-14T13:57:43Z</time>
      </trkpt>
      <trkpt lat="45.07094" lon="6.16902">
        <ele>1532.48</ele>
        <time>2013-07-14T13:58:48Z</time>
      </trkpt>
      <trkpt lat="45.07093" lon="6.16905">
        <ele>1532.48</ele>
        <time>2013-07-14T13:59:26Z</time>
      </trkpt>
      <trkpt lat="45.07088" lon="6.1691">
        <ele>1533.44</ele>
        <time>2013-07-14T14:00:53Z</time>
      </trkpt>
      <trkpt lat="45.07087" lon="6.16914">
        <ele>1533.44</ele>
        <time>2013-07-14T14:01:16Z</time>
      </trkpt>
      <trkpt lat="45.07092" lon="6.16918">
        <ele>1533.92</ele>
        <time>2013-07-14T14:01:24Z</time>
      </trkpt>
      <trkpt lat="45.07104" lon="6.16932">
        <ele>1536.32</ele>
        <time>2013-07-14T14:01:42Z</time>
      </trkpt>
      <trkpt lat="45.0711" lon="6.16938">
        <ele>1538.73</ele>
        <time>2013-07-14T14:02:02Z</time>
      </trkpt>
      <trkpt lat="45.07124" lon="6.16943">
        <ele>1540.65</ele>
        <time>2013-07-14T14:02:21Z</time>
      </trkpt>
      <trkpt lat="45.07135" lon="6.16956">
        <ele>1542.57</ele>
        <time>2013-07-14T14:02:37Z</time>
      </trkpt>
      <trkpt lat="45.07137" lon="6.16957">
        <ele>1543.05</ele>
        <time>2013-07-14T14:02:38Z</time>
      </trkpt>
      <trkpt lat="45.07145" lon="6.16974">
        <ele>1544.5</ele>
        <time>2013-07-14T14:02:55Z</time>
      </trkpt>
      <trkpt lat="45.07158" lon="6.16992">
        <ele>1546.42</ele>
        <time>2013-07-14T14:03:17Z</time>
      </trkpt>
      <trkpt lat="45.07155" lon="6.17016">
        <ele>1548.34</ele>
        <time>2013-07-14T14:03:35Z</time>
      </trkpt>
      <trkpt lat="45.07158" lon="6.17025">
        <ele>1549.3</ele>
        <time>2013-07-14T14:03:52Z</time>
      </trkpt>
      <trkpt lat="45.07159" lon="6.17025">
        <ele>1549.3</ele>
        <time>2013-07-14T14:04:38Z</time>
      </trkpt>
      <trkpt lat="45.07165" lon="6.17047">
        <ele>1551.22</ele>
        <time>2013-07-14T14:05:01Z</time>
      </trkpt>
      <trkpt lat="45.07167" lon="6.17049">
        <ele>1551.22</ele>
        <time>2013-07-14T14:05:03Z</time>
      </trkpt>
      <trkpt lat="45.07172" lon="6.17077">
        <ele>1549.3</ele>
        <time>2013-07-14T14:05:20Z</time>
      </trkpt>
      <trkpt lat="45.07178" lon="6.17096">
        <ele>1549.3</ele>
        <time>2013-07-14T14:05:37Z</time>
      </trkpt>
      <trkpt lat="45.07178" lon="6.17098">
        <ele>1548.82</ele>
        <time>2013-07-14T14:05:38Z</time>
      </trkpt>
      <trkpt lat="45.0718" lon="6.17117">
        <ele>1549.3</ele>
        <time>2013-07-14T14:05:48Z</time>
      </trkpt>
      <trkpt lat="45.07178" lon="6.1714">
        <ele>1549.3</ele>
        <time>2013-07-14T14:06:05Z</time>
      </trkpt>
      <trkpt lat="45.07177" lon="6.17143">
        <ele>1545.94</ele>
        <time>2013-07-14T14:06:17Z</time>
      </trkpt>
      <trkpt lat="45.07177" lon="6.17143">
        <ele>1549.3</ele>
        <time>2013-07-14T14:06:18Z</time>
      </trkpt>
      <trkpt lat="45.07182" lon="6.17157">
        <ele>1549.3</ele>
        <time>2013-07-14T14:06:46Z</time>
      </trkpt>
      <trkpt lat="45.07182" lon="6.17183">
        <ele>1549.78</ele>
        <time>2013-07-14T14:07:12Z</time>
      </trkpt>
      <trkpt lat="45.07175" lon="6.17129">
        <ele>1549.3</ele>
        <time>2013-07-14T14:07:35Z</time>
      </trkpt>
      <trkpt lat="45.07174" lon="6.17142">
        <ele>1549.78</ele>
        <time>2013-07-14T14:08:03Z</time>
      </trkpt>
      <trkpt lat="45.07175" lon="6.17147">
        <ele>1547.38</ele>
        <time>2013-07-14T14:08:15Z</time>
      </trkpt>
      <trkpt lat="45.07175" lon="6.17148">
        <ele>1550.26</ele>
        <time>2013-07-14T14:08:16Z</time>
      </trkpt>
      <trkpt lat="45.07176" lon="6.17149">
        <ele>1546.42</ele>
        <time>2013-07-14T14:08:19Z</time>
      </trkpt>
      <trkpt lat="45.07176" lon="6.1715">
        <ele>1546.42</ele>
        <time>2013-07-14T14:08:20Z</time>
      </trkpt>
    </trkseg>
  </trk>
</gpx>